<?xml version="1.0" encoding="UTF-8"?>
<gpx xmlns="http://www.topografix.com/GPX/1/1" version="1.1" creator="EasyGPS 4.18" xmlns:xsi="http://www.w3.org/2001/XMLSchema-instance" xsi:schemaLocation="http://www.topografix.com/GPX/1/1 http://www.topografix.com/GPX/1/1/gpx.xsd http://www.topografix.com/GPX/gpx_overlay/0/3 http://www.topografix.com/GPX/gpx_overlay/0/3/gpx_overlay.xsd http://www.topografix.com/GPX/gpx_modified/0/1 http://www.topografix.com/GPX/gpx_modified/0/1/gpx_modified.xsd">
<metadata>
<link href="http://www.garmin.com">
<text>Garmin International</text>
</link>
<bounds minlat="43.02545001" minlon="-2.91150000" maxlat="43.10705001" maxlon="-2.78125000"/>
<extensions>
<time xmlns="http://www.topografix.com/GPX/gpx_modified/0/1">2012-09-20T06:40:30.656Z</time>
</extensions>
</metadata>
<trk>
<name>Martxa_Luzea</name>
<desc>Martxa_Luzea</desc>
<extensions>
<time xmlns="http://www.topografix.com/GPX/gpx_modified/0/1">2012-09-20T06:39:14.296Z</time>
<label xmlns="http://www.topografix.com/GPX/gpx_overlay/0/3">
<label_text>Martxa_Luzea</label_text>
</label>
</extensions>
<trkseg>
<trkpt lat="43.10705001" lon="-2.91150000">
<ele>161.148</ele>
<time>2011-02-07T12:09:26Z</time>
</trkpt>
<trkpt lat="43.10676000" lon="-2.91018999">
<ele>167.884</ele>
<time>2011-02-07T12:09:45Z</time>
</trkpt>
<trkpt lat="43.10640000" lon="-2.90907998">
<ele>164.043</ele>
<time>2011-02-07T12:09:54Z</time>
</trkpt>
<trkpt lat="43.10584000" lon="-2.90710000">
<ele>162.123</ele>
<time>2011-02-07T12:10:07Z</time>
</trkpt>
<trkpt lat="43.10563004" lon="-2.90674000">
<ele>162.611</ele>
<time>2011-02-07T12:10:11Z</time>
</trkpt>
<trkpt lat="43.10541001" lon="-2.90670999">
<ele>163.556</ele>
<time>2011-02-07T12:10:16Z</time>
</trkpt>
<trkpt lat="43.10508002" lon="-2.90647002">
<ele>159.715</ele>
<time>2011-02-07T12:10:24Z</time>
</trkpt>
<trkpt lat="43.10512000" lon="-2.90638997">
<ele>160.203</ele>
<time>2011-02-07T12:10:25Z</time>
</trkpt>
<trkpt lat="43.10471004" lon="-2.90586996">
<ele>209.215</ele>
<time>2011-08-03T14:39:35Z</time>
</trkpt>
<trkpt lat="43.10417997" lon="-2.90599996">
<ele>176.052</ele>
<time>2011-08-03T14:39:51Z</time>
</trkpt>
<trkpt lat="43.10367999" lon="-2.90592997">
<ele>176.052</ele>
<time>2011-08-03T14:40:02Z</time>
</trkpt>
<trkpt lat="43.10341001" lon="-2.90568002">
<ele>176.540</ele>
<time>2011-08-03T14:40:11Z</time>
</trkpt>
<trkpt lat="43.10331001" lon="-2.90542999">
<ele>179.436</ele>
<time>2011-08-03T14:40:19Z</time>
</trkpt>
<trkpt lat="43.10242002" lon="-2.90480001">
<ele>180.868</ele>
<time>2011-08-03T14:40:44Z</time>
</trkpt>
<trkpt lat="43.10210997" lon="-2.90464997">
<ele>187.117</ele>
<time>2011-08-03T14:40:54Z</time>
</trkpt>
<trkpt lat="43.10203998" lon="-2.90385000">
<ele>190.957</ele>
<time>2011-08-03T14:41:19Z</time>
</trkpt>
<trkpt lat="43.10176003" lon="-2.90371003">
<ele>191.933</ele>
<time>2011-08-03T14:41:29Z</time>
</trkpt>
<trkpt lat="43.10124001" lon="-2.90355002">
<ele>199.614</ele>
<time>2011-08-03T14:41:42Z</time>
</trkpt>
<trkpt lat="43.10124001" lon="-2.90355002">
<ele>190.470</ele>
<time>2011-08-03T14:43:41Z</time>
</trkpt>
<trkpt lat="43.10066996" lon="-2.90369997">
<ele>191.445</ele>
<time>2011-08-03T14:45:31Z</time>
</trkpt>
<trkpt lat="43.10000997" lon="-2.90362000">
<ele>193.853</ele>
<time>2011-08-03T14:45:47Z</time>
</trkpt>
<trkpt lat="43.09969003" lon="-2.90378002">
<ele>196.718</ele>
<time>2011-08-03T14:45:58Z</time>
</trkpt>
<trkpt lat="43.09954000" lon="-2.90433004">
<ele>198.181</ele>
<time>2011-08-03T14:46:11Z</time>
</trkpt>
<trkpt lat="43.09882997" lon="-2.90588002">
<ele>215.463</ele>
<time>2011-08-03T14:47:07Z</time>
</trkpt>
<trkpt lat="43.09845001" lon="-2.90638997">
<ele>218.359</ele>
<time>2011-08-03T14:47:26Z</time>
</trkpt>
<trkpt lat="43.09822999" lon="-2.90679004">
<ele>217.871</ele>
<time>2011-08-03T14:47:35Z</time>
</trkpt>
<trkpt lat="43.09819998" lon="-2.90691996">
<ele>217.871</ele>
<time>2011-08-03T14:47:37Z</time>
</trkpt>
<trkpt lat="43.09799999" lon="-2.90704996">
<ele>219.791</ele>
<time>2011-08-03T14:47:45Z</time>
</trkpt>
<trkpt lat="43.09759003" lon="-2.90681996">
<ele>230.856</ele>
<time>2011-08-03T14:48:04Z</time>
</trkpt>
<trkpt lat="43.09714998" lon="-2.90674000">
<ele>231.800</ele>
<time>2011-08-03T14:48:23Z</time>
</trkpt>
<trkpt lat="43.09681999" lon="-2.90673003">
<ele>235.671</ele>
<time>2011-08-03T14:48:39Z</time>
</trkpt>
<trkpt lat="43.09625999" lon="-2.90657999">
<ele>240.457</ele>
<time>2011-08-03T14:49:09Z</time>
</trkpt>
<trkpt lat="43.09599998" lon="-2.90644999">
<ele>244.785</ele>
<time>2011-08-03T14:49:27Z</time>
</trkpt>
<trkpt lat="43.09577996" lon="-2.90620004">
<ele>251.033</ele>
<time>2011-08-03T14:49:46Z</time>
</trkpt>
<trkpt lat="43.09560997" lon="-2.90592997">
<ele>254.874</ele>
<time>2011-08-03T14:50:03Z</time>
</trkpt>
<trkpt lat="43.09550998" lon="-2.90556000">
<ele>261.610</ele>
<time>2011-08-03T14:50:23Z</time>
</trkpt>
<trkpt lat="43.09542004" lon="-2.90530996">
<ele>263.530</ele>
<time>2011-08-03T14:50:37Z</time>
</trkpt>
<trkpt lat="43.09537000" lon="-2.90535003">
<ele>264.018</ele>
<time>2011-08-03T14:50:41Z</time>
</trkpt>
<trkpt lat="43.09517001" lon="-2.90569997">
<ele>268.346</ele>
<time>2011-08-03T14:51:01Z</time>
</trkpt>
<trkpt lat="43.09516003" lon="-2.90581003">
<ele>271.699</ele>
<time>2011-08-03T14:51:07Z</time>
</trkpt>
<trkpt lat="43.09497002" lon="-2.90651000">
<ele>276.515</ele>
<time>2011-08-03T14:51:39Z</time>
</trkpt>
<trkpt lat="43.09484001" lon="-2.90687000">
<ele>282.275</ele>
<time>2011-08-03T14:51:57Z</time>
</trkpt>
<trkpt lat="43.09474999" lon="-2.90670002">
<ele>291.907</ele>
<time>2011-08-03T14:52:10Z</time>
</trkpt>
<trkpt lat="43.09455000" lon="-2.90608001">
<ele>302.484</ele>
<time>2011-08-03T14:52:43Z</time>
</trkpt>
<trkpt lat="43.09455997" lon="-2.90591002">
<ele>309.189</ele>
<time>2011-08-03T14:52:52Z</time>
</trkpt>
<trkpt lat="43.09460004" lon="-2.90579997">
<ele>317.358</ele>
<time>2011-08-03T14:52:57Z</time>
</trkpt>
<trkpt lat="43.09449996" lon="-2.90549001">
<ele>322.661</ele>
<time>2011-08-03T14:53:10Z</time>
</trkpt>
<trkpt lat="43.09441002" lon="-2.90532002">
<ele>320.253</ele>
<time>2011-08-03T14:53:19Z</time>
</trkpt>
<trkpt lat="43.09434003" lon="-2.90515004">
<ele>321.686</ele>
<time>2011-08-03T14:53:27Z</time>
</trkpt>
<trkpt lat="43.09426996" lon="-2.90483002">
<ele>326.989</ele>
<time>2011-08-03T14:53:42Z</time>
</trkpt>
<trkpt lat="43.09419997" lon="-2.90460999">
<ele>327.477</ele>
<time>2011-08-03T14:53:54Z</time>
</trkpt>
<trkpt lat="43.09409000" lon="-2.90441000">
<ele>326.014</ele>
<time>2011-08-03T14:54:06Z</time>
</trkpt>
<trkpt lat="43.09396997" lon="-2.90418997">
<ele>330.342</ele>
<time>2011-08-03T14:54:18Z</time>
</trkpt>
<trkpt lat="43.09360997" lon="-2.90374003">
<ele>327.477</ele>
<time>2011-08-03T14:54:45Z</time>
</trkpt>
<trkpt lat="43.09339003" lon="-2.90342001">
<ele>329.855</ele>
<time>2011-08-03T14:55:00Z</time>
</trkpt>
<trkpt lat="43.09319003" lon="-2.90307996">
<ele>340.919</ele>
<time>2011-08-03T14:55:15Z</time>
</trkpt>
<trkpt lat="43.09304000" lon="-2.90274996">
<ele>336.103</ele>
<time>2011-08-03T14:55:34Z</time>
</trkpt>
<trkpt lat="43.09300002" lon="-2.90260999">
<ele>339.974</ele>
<time>2011-08-03T14:55:43Z</time>
</trkpt>
<trkpt lat="43.09281000" lon="-2.90238996">
<ele>338.511</ele>
<time>2011-08-03T14:55:58Z</time>
</trkpt>
<trkpt lat="43.09252996" lon="-2.90188001">
<ele>345.247</ele>
<time>2011-08-03T14:56:29Z</time>
</trkpt>
<trkpt lat="43.09240004" lon="-2.90167004">
<ele>351.008</ele>
<time>2011-08-03T14:56:43Z</time>
</trkpt>
<trkpt lat="43.09215001" lon="-2.90145999">
<ele>351.008</ele>
<time>2011-08-03T14:56:59Z</time>
</trkpt>
<trkpt lat="43.09189000" lon="-2.90129000">
<ele>351.495</ele>
<time>2011-08-03T14:57:17Z</time>
</trkpt>
<trkpt lat="43.09169998" lon="-2.90126997">
<ele>359.664</ele>
<time>2011-08-03T14:57:33Z</time>
</trkpt>
<trkpt lat="43.09153997" lon="-2.90122001">
<ele>361.584</ele>
<time>2011-08-03T14:57:46Z</time>
</trkpt>
<trkpt lat="43.09137996" lon="-2.90077996">
<ele>374.569</ele>
<time>2011-08-03T14:58:06Z</time>
</trkpt>
<trkpt lat="43.09130997" lon="-2.90030002">
<ele>378.409</ele>
<time>2011-08-03T14:58:26Z</time>
</trkpt>
<trkpt lat="43.09117997" lon="-2.89993004">
<ele>377.464</ele>
<time>2011-08-03T14:58:44Z</time>
</trkpt>
<trkpt lat="43.09100999" lon="-2.89959996">
<ele>380.329</ele>
<time>2011-08-03T14:59:02Z</time>
</trkpt>
<trkpt lat="43.09074000" lon="-2.89899001">
<ele>393.802</ele>
<time>2011-08-03T14:59:36Z</time>
</trkpt>
<trkpt lat="43.09057002" lon="-2.89859002">
<ele>398.617</ele>
<time>2011-08-03T14:59:54Z</time>
</trkpt>
<trkpt lat="43.09041998" lon="-2.89808996">
<ele>401.483</ele>
<time>2011-08-03T15:00:15Z</time>
</trkpt>
<trkpt lat="43.09017004" lon="-2.89715001">
<ele>415.900</ele>
<time>2011-08-03T15:01:01Z</time>
</trkpt>
<trkpt lat="43.08995001" lon="-2.89669001">
<ele>419.740</ele>
<time>2011-08-03T15:01:23Z</time>
</trkpt>
<trkpt lat="43.08969000" lon="-2.89627000">
<ele>420.228</ele>
<time>2011-08-03T15:01:39Z</time>
</trkpt>
<trkpt lat="43.08946998" lon="-2.89577002">
<ele>424.068</ele>
<time>2011-08-03T15:01:57Z</time>
</trkpt>
<trkpt lat="43.08929002" lon="-2.89550004">
<ele>426.964</ele>
<time>2011-08-03T15:02:10Z</time>
</trkpt>
<trkpt lat="43.08910000" lon="-2.89528999">
<ele>424.068</ele>
<time>2011-08-03T15:02:26Z</time>
</trkpt>
<trkpt lat="43.08912003" lon="-2.89489998">
<ele>431.780</ele>
<time>2011-08-03T15:02:41Z</time>
</trkpt>
<trkpt lat="43.08909003" lon="-2.89453000">
<ele>434.188</ele>
<time>2011-08-03T15:02:54Z</time>
</trkpt>
<trkpt lat="43.08933000" lon="-2.89376004">
<ele>427.452</ele>
<time>2011-08-03T15:03:12Z</time>
</trkpt>
<trkpt lat="43.08940996" lon="-2.89328998">
<ele>423.611</ele>
<time>2011-08-03T15:03:18Z</time>
</trkpt>
<trkpt lat="43.08962999" lon="-2.89255003">
<ele>420.715</ele>
<time>2011-08-03T15:03:30Z</time>
</trkpt>
<trkpt lat="43.08976997" lon="-2.89197000">
<ele>423.611</ele>
<time>2011-08-03T15:03:48Z</time>
</trkpt>
<trkpt lat="43.08984004" lon="-2.89145996">
<ele>429.372</ele>
<time>2011-08-03T15:04:09Z</time>
</trkpt>
<trkpt lat="43.08975999" lon="-2.89098999">
<ele>437.540</ele>
<time>2011-08-03T15:04:29Z</time>
</trkpt>
<trkpt lat="43.08963996" lon="-2.89075001">
<ele>438.028</ele>
<time>2011-08-03T15:04:40Z</time>
</trkpt>
<trkpt lat="43.08956997" lon="-2.89053996">
<ele>443.301</ele>
<time>2011-08-03T15:04:50Z</time>
</trkpt>
<trkpt lat="43.08939999" lon="-2.89028004">
<ele>444.276</ele>
<time>2011-08-03T15:05:04Z</time>
</trkpt>
<trkpt lat="43.08896002" lon="-2.88971996">
<ele>447.629</ele>
<time>2011-08-03T15:05:35Z</time>
</trkpt>
<trkpt lat="43.08876003" lon="-2.88954000">
<ele>447.629</ele>
<time>2011-08-03T15:05:48Z</time>
</trkpt>
<trkpt lat="43.08856004" lon="-2.88934998">
<ele>452.933</ele>
<time>2011-08-03T15:06:03Z</time>
</trkpt>
<trkpt lat="43.08834999" lon="-2.88911001">
<ele>459.181</ele>
<time>2011-08-03T15:06:20Z</time>
</trkpt>
<trkpt lat="43.08834999" lon="-2.88907003">
<ele>463.022</ele>
<time>2011-08-03T15:06:23Z</time>
</trkpt>
<trkpt lat="43.08834999" lon="-2.88868002">
<ele>474.055</ele>
<time>2011-08-03T15:06:36Z</time>
</trkpt>
<trkpt lat="43.08837002" lon="-2.88829998">
<ele>477.926</ele>
<time>2011-08-03T15:06:46Z</time>
</trkpt>
<trkpt lat="43.08864998" lon="-2.88803997">
<ele>475.518</ele>
<time>2011-08-03T15:07:04Z</time>
</trkpt>
<trkpt lat="43.08877998" lon="-2.88764996">
<ele>474.055</ele>
<time>2011-08-03T15:07:20Z</time>
</trkpt>
<trkpt lat="43.08880001" lon="-2.88731997">
<ele>477.439</ele>
<time>2011-08-03T15:07:33Z</time>
</trkpt>
<trkpt lat="43.08861997" lon="-2.88655998">
<ele>481.279</ele>
<time>2011-08-03T15:08:08Z</time>
</trkpt>
<trkpt lat="43.08861000" lon="-2.88622001">
<ele>485.120</ele>
<time>2011-08-03T15:08:23Z</time>
</trkpt>
<trkpt lat="43.08857001" lon="-2.88595003">
<ele>493.288</ele>
<time>2011-08-03T15:08:38Z</time>
</trkpt>
<trkpt lat="43.08841000" lon="-2.88566002">
<ele>495.209</ele>
<time>2011-08-03T15:08:55Z</time>
</trkpt>
<trkpt lat="43.08841000" lon="-2.88523003">
<ele>505.785</ele>
<time>2011-08-03T15:09:15Z</time>
</trkpt>
<trkpt lat="43.08837002" lon="-2.88494999">
<ele>506.760</ele>
<time>2011-08-03T15:09:32Z</time>
</trkpt>
<trkpt lat="43.08831998" lon="-2.88461999">
<ele>503.865</ele>
<time>2011-08-03T15:09:47Z</time>
</trkpt>
<trkpt lat="43.08830003" lon="-2.88425999">
<ele>509.168</ele>
<time>2011-08-03T15:10:04Z</time>
</trkpt>
<trkpt lat="43.08837002" lon="-2.88385003">
<ele>514.929</ele>
<time>2011-08-03T15:10:24Z</time>
</trkpt>
<trkpt lat="43.08848997" lon="-2.88352003">
<ele>523.585</ele>
<time>2011-08-03T15:10:43Z</time>
</trkpt>
<trkpt lat="43.08866004" lon="-2.88288997">
<ele>527.426</ele>
<time>2011-08-03T15:11:16Z</time>
</trkpt>
<trkpt lat="43.08867998" lon="-2.88264999">
<ele>528.858</ele>
<time>2011-08-03T15:11:28Z</time>
</trkpt>
<trkpt lat="43.08876003" lon="-2.88235998">
<ele>534.162</ele>
<time>2011-08-03T15:11:43Z</time>
</trkpt>
<trkpt lat="43.08877001" lon="-2.88218999">
<ele>534.619</ele>
<time>2011-08-03T15:11:51Z</time>
</trkpt>
<trkpt lat="43.08891996" lon="-2.88168004">
<ele>541.843</ele>
<time>2011-08-03T15:12:18Z</time>
</trkpt>
<trkpt lat="43.08906999" lon="-2.88122004">
<ele>543.763</ele>
<time>2011-08-03T15:12:39Z</time>
</trkpt>
<trkpt lat="43.08906999" lon="-2.88083003">
<ele>546.171</ele>
<time>2011-08-03T15:12:56Z</time>
</trkpt>
<trkpt lat="43.08889003" lon="-2.88061000">
<ele>545.683</ele>
<time>2011-08-03T15:13:11Z</time>
</trkpt>
<trkpt lat="43.08868996" lon="-2.88051998">
<ele>549.036</ele>
<time>2011-08-03T15:13:25Z</time>
</trkpt>
<trkpt lat="43.08844001" lon="-2.88054999">
<ele>552.420</ele>
<time>2011-08-03T15:13:41Z</time>
</trkpt>
<trkpt lat="43.08807003" lon="-2.88097001">
<ele>567.781</ele>
<time>2011-08-03T15:14:16Z</time>
</trkpt>
<trkpt lat="43.08782998" lon="-2.88117000">
<ele>571.652</ele>
<time>2011-08-03T15:14:39Z</time>
</trkpt>
<trkpt lat="43.08746000" lon="-2.88156998">
<ele>582.686</ele>
<time>2011-08-03T15:15:16Z</time>
</trkpt>
<trkpt lat="43.08667998" lon="-2.88221003">
<ele>597.591</ele>
<time>2011-08-03T15:16:26Z</time>
</trkpt>
<trkpt lat="43.08604999" lon="-2.88258000">
<ele>605.302</ele>
<time>2011-08-03T15:17:14Z</time>
</trkpt>
<trkpt lat="43.08588998" lon="-2.88288997">
<ele>611.551</ele>
<time>2011-08-03T15:17:33Z</time>
</trkpt>
<trkpt lat="43.08538003" lon="-2.88376001">
<ele>619.719</ele>
<time>2011-08-03T15:18:21Z</time>
</trkpt>
<trkpt lat="43.08512002" lon="-2.88382002">
<ele>622.584</ele>
<time>2011-08-03T15:18:38Z</time>
</trkpt>
<trkpt lat="43.08489002" lon="-2.88369999">
<ele>627.400</ele>
<time>2011-08-03T15:18:58Z</time>
</trkpt>
<trkpt lat="43.08470998" lon="-2.88399998">
<ele>634.594</ele>
<time>2011-08-03T15:19:21Z</time>
</trkpt>
<trkpt lat="43.08447998" lon="-2.88432998">
<ele>639.897</ele>
<time>2011-08-03T15:19:46Z</time>
</trkpt>
<trkpt lat="43.08410003" lon="-2.88488997">
<ele>651.419</ele>
<time>2011-08-03T15:20:25Z</time>
</trkpt>
<trkpt lat="43.08388000" lon="-2.88517001">
<ele>658.155</ele>
<time>2011-08-03T15:20:47Z</time>
</trkpt>
<trkpt lat="43.08357004" lon="-2.88527998">
<ele>661.050</ele>
<time>2011-08-03T15:21:11Z</time>
</trkpt>
<trkpt lat="43.08328003" lon="-2.88526003">
<ele>665.836</ele>
<time>2011-08-03T15:21:33Z</time>
</trkpt>
<trkpt lat="43.08308003" lon="-2.88493004">
<ele>667.299</ele>
<time>2011-08-03T15:21:52Z</time>
</trkpt>
<trkpt lat="43.08306998" lon="-2.88432000">
<ele>668.244</ele>
<time>2011-08-03T15:22:11Z</time>
</trkpt>
<trkpt lat="43.08309001" lon="-2.88408003">
<ele>670.164</ele>
<time>2011-08-03T15:22:48Z</time>
</trkpt>
<trkpt lat="43.08283998" lon="-2.88235998">
<ele>682.661</ele>
<time>2011-08-03T15:23:52Z</time>
</trkpt>
<trkpt lat="43.08254996" lon="-2.88137997">
<ele>691.317</ele>
<time>2011-08-03T15:24:34Z</time>
</trkpt>
<trkpt lat="43.08239004" lon="-2.88093003">
<ele>695.645</ele>
<time>2011-08-03T15:24:56Z</time>
</trkpt>
<trkpt lat="43.08181001" lon="-2.87962999">
<ele>707.197</ele>
<time>2011-08-03T15:25:56Z</time>
</trkpt>
<trkpt lat="43.08138999" lon="-2.87877998">
<ele>714.878</ele>
<time>2011-08-03T15:26:36Z</time>
</trkpt>
<trkpt lat="43.08047997" lon="-2.87644001">
<ele>738.439</ele>
<time>2011-08-03T15:28:32Z</time>
</trkpt>
<trkpt lat="43.07987002" lon="-2.87512003">
<ele>751.393</ele>
<time>2011-08-03T15:29:37Z</time>
</trkpt>
<trkpt lat="43.07924003" lon="-2.87401998">
<ele>766.785</ele>
<time>2011-08-03T15:30:49Z</time>
</trkpt>
<trkpt lat="43.07826002" lon="-2.87249004">
<ele>786.963</ele>
<time>2011-08-03T15:32:34Z</time>
</trkpt>
<trkpt lat="43.07786004" lon="-2.87171999">
<ele>796.107</ele>
<time>2011-08-03T15:33:20Z</time>
</trkpt>
<trkpt lat="43.07754999" lon="-2.87099998">
<ele>805.251</ele>
<time>2011-08-03T15:34:02Z</time>
</trkpt>
<trkpt lat="43.07738001" lon="-2.87069002">
<ele>809.092</ele>
<time>2011-08-03T15:34:22Z</time>
</trkpt>
<trkpt lat="43.07725000" lon="-2.87021996">
<ele>817.260</ele>
<time>2011-08-03T15:34:50Z</time>
</trkpt>
<trkpt lat="43.07712997" lon="-2.86994001">
<ele>821.101</ele>
<time>2011-08-03T15:35:10Z</time>
</trkpt>
<trkpt lat="43.07666000" lon="-2.86896997">
<ele>836.950</ele>
<time>2011-08-03T15:36:21Z</time>
</trkpt>
<trkpt lat="43.07617997" lon="-2.86807001">
<ele>850.422</ele>
<time>2011-08-03T15:37:26Z</time>
</trkpt>
<trkpt lat="43.07603002" lon="-2.86786004">
<ele>853.318</ele>
<time>2011-08-03T15:37:42Z</time>
</trkpt>
<trkpt lat="43.07607997" lon="-2.86755997">
<ele>856.183</ele>
<time>2011-08-03T15:37:58Z</time>
</trkpt>
<trkpt lat="43.07626999" lon="-2.86754999">
<ele>855.696</ele>
<time>2011-08-03T15:38:10Z</time>
</trkpt>
<trkpt lat="43.07620000" lon="-2.86729996">
<ele>855.238</ele>
<time>2011-08-03T15:38:25Z</time>
</trkpt>
<trkpt lat="43.07603002" lon="-2.86748000">
<ele>857.159</ele>
<time>2011-08-03T15:38:42Z</time>
</trkpt>
<trkpt lat="43.07540003" lon="-2.86718002">
<ele>862.432</ele>
<time>2011-08-03T15:39:30Z</time>
</trkpt>
<trkpt lat="43.07486996" lon="-2.86681004">
<ele>869.168</ele>
<time>2011-08-03T15:40:10Z</time>
</trkpt>
<trkpt lat="43.07442002" lon="-2.86656998">
<ele>876.849</ele>
<time>2011-08-03T15:40:48Z</time>
</trkpt>
<trkpt lat="43.07386003" lon="-2.86619003">
<ele>888.401</ele>
<time>2011-08-03T15:41:38Z</time>
</trkpt>
<trkpt lat="43.07360999" lon="-2.86613001">
<ele>893.216</ele>
<time>2011-08-03T15:41:58Z</time>
</trkpt>
<trkpt lat="43.07334999" lon="-2.86620998">
<ele>897.514</ele>
<time>2011-08-03T15:42:18Z</time>
</trkpt>
<trkpt lat="43.07314002" lon="-2.86607997">
<ele>901.842</ele>
<time>2011-08-03T15:42:37Z</time>
</trkpt>
<trkpt lat="43.07284003" lon="-2.86561998">
<ele>910.499</ele>
<time>2011-08-03T15:43:15Z</time>
</trkpt>
<trkpt lat="43.07255999" lon="-2.86542996">
<ele>913.882</ele>
<time>2011-08-03T15:43:37Z</time>
</trkpt>
<trkpt lat="43.07223997" lon="-2.86538998">
<ele>917.235</ele>
<time>2011-08-03T15:43:59Z</time>
</trkpt>
<trkpt lat="43.07193998" lon="-2.86561998">
<ele>921.563</ele>
<time>2011-08-03T15:44:21Z</time>
</trkpt>
<trkpt lat="43.07078999" lon="-2.86693996">
<ele>941.741</ele>
<time>2011-08-03T15:45:58Z</time>
</trkpt>
<trkpt lat="43.07049997" lon="-2.86708999">
<ele>946.069</ele>
<time>2011-08-03T15:46:16Z</time>
</trkpt>
<trkpt lat="43.07016000" lon="-2.86708002">
<ele>951.372</ele>
<time>2011-08-03T15:46:39Z</time>
</trkpt>
<trkpt lat="43.06954997" lon="-2.86676000">
<ele>961.949</ele>
<time>2011-08-03T15:47:23Z</time>
</trkpt>
<trkpt lat="43.06927001" lon="-2.86633001">
<ele>964.814</ele>
<time>2011-08-03T15:47:46Z</time>
</trkpt>
<trkpt lat="43.06926004" lon="-2.86626999">
<ele>965.302</ele>
<time>2011-08-03T15:47:49Z</time>
</trkpt>
<trkpt lat="43.06936003" lon="-2.86623001">
<ele>967.222</ele>
<time>2011-08-03T15:47:57Z</time>
</trkpt>
<trkpt lat="43.06967000" lon="-2.86636001">
<ele>970.575</ele>
<time>2011-08-03T15:48:15Z</time>
</trkpt>
<trkpt lat="43.06995003" lon="-2.86610998">
<ele>973.958</ele>
<time>2011-08-03T15:48:34Z</time>
</trkpt>
<trkpt lat="43.06992003" lon="-2.86577999">
<ele>976.823</ele>
<time>2011-08-03T15:48:50Z</time>
</trkpt>
<trkpt lat="43.06974996" lon="-2.86548997">
<ele>981.151</ele>
<time>2011-08-03T15:49:09Z</time>
</trkpt>
<trkpt lat="43.06957000" lon="-2.86508999">
<ele>985.967</ele>
<time>2011-08-03T15:49:32Z</time>
</trkpt>
<trkpt lat="43.06927001" lon="-2.86426999">
<ele>991.728</ele>
<time>2011-08-03T15:50:13Z</time>
</trkpt>
<trkpt lat="43.06901998" lon="-2.86387998">
<ele>996.056</ele>
<time>2011-08-03T15:50:35Z</time>
</trkpt>
<trkpt lat="43.06874002" lon="-2.86361997">
<ele>1000.872</ele>
<time>2011-08-03T15:50:56Z</time>
</trkpt>
<trkpt lat="43.06839997" lon="-2.86321999">
<ele>1000.384</ele>
<time>2011-08-03T15:51:13Z</time>
</trkpt>
<trkpt lat="43.06776001" lon="-2.86265002">
<ele>992.703</ele>
<time>2011-08-03T15:51:27Z</time>
</trkpt>
<trkpt lat="43.06684999" lon="-2.86225003">
<ele>995.111</ele>
<time>2011-08-03T15:51:53Z</time>
</trkpt>
<trkpt lat="43.06662996" lon="-2.86196999">
<ele>995.568</ele>
<time>2011-08-03T15:52:06Z</time>
</trkpt>
<trkpt lat="43.06632000" lon="-2.86128997">
<ele>1005.200</ele>
<time>2011-08-03T15:52:43Z</time>
</trkpt>
<trkpt lat="43.06576001" lon="-2.85989002">
<ele>1018.642</ele>
<time>2011-08-03T15:53:58Z</time>
</trkpt>
<trkpt lat="43.06553998" lon="-2.85944997">
<ele>1022.513</ele>
<time>2011-08-03T15:54:19Z</time>
</trkpt>
<trkpt lat="43.06520001" lon="-2.85904999">
<ele>1026.353</ele>
<time>2011-08-03T15:54:39Z</time>
</trkpt>
<trkpt lat="43.06475996" lon="-2.85875998">
<ele>1027.298</ele>
<time>2011-08-03T15:54:56Z</time>
</trkpt>
<trkpt lat="43.06376997" lon="-2.85829000">
<ele>1028.761</ele>
<time>2011-08-03T15:55:29Z</time>
</trkpt>
<trkpt lat="43.06349002" lon="-2.85805003">
<ele>1028.273</ele>
<time>2011-08-03T15:55:38Z</time>
</trkpt>
<trkpt lat="43.06332003" lon="-2.85796001">
<ele>1026.810</ele>
<time>2011-08-03T15:55:42Z</time>
</trkpt>
<trkpt lat="43.06320998" lon="-2.85793997">
<ele>1026.353</ele>
<time>2011-08-03T15:55:44Z</time>
</trkpt>
<trkpt lat="43.06284998" lon="-2.85809001">
<ele>1027.298</ele>
<time>2011-08-03T15:55:55Z</time>
</trkpt>
<trkpt lat="43.06257002" lon="-2.85862000">
<ele>1030.194</ele>
<time>2011-08-03T15:56:13Z</time>
</trkpt>
<trkpt lat="43.06227003" lon="-2.85959003">
<ele>1038.850</ele>
<time>2011-08-03T15:56:47Z</time>
</trkpt>
<trkpt lat="43.06224003" lon="-2.86009999">
<ele>1042.203</ele>
<time>2011-08-03T15:57:04Z</time>
</trkpt>
<trkpt lat="43.06215998" lon="-2.86045999">
<ele>1045.586</ele>
<time>2011-08-03T15:57:20Z</time>
</trkpt>
<trkpt lat="43.06179000" lon="-2.86065001">
<ele>1047.018</ele>
<time>2011-08-03T15:57:38Z</time>
</trkpt>
<trkpt lat="43.06152002" lon="-2.86056996">
<ele>1047.018</ele>
<time>2011-08-03T15:57:50Z</time>
</trkpt>
<trkpt lat="43.06116999" lon="-2.86036997">
<ele>1045.586</ele>
<time>2011-08-03T15:58:02Z</time>
</trkpt>
<trkpt lat="43.06045996" lon="-2.86022999">
<ele>1037.387</ele>
<time>2011-08-03T15:58:18Z</time>
</trkpt>
<trkpt lat="43.06024002" lon="-2.86006998">
<ele>1034.522</ele>
<time>2011-08-03T15:58:22Z</time>
</trkpt>
<trkpt lat="43.05958003" lon="-2.85940999">
<ele>1026.353</ele>
<time>2011-08-03T15:58:35Z</time>
</trkpt>
<trkpt lat="43.05893001" lon="-2.85842998">
<ele>1021.050</ele>
<time>2011-08-03T15:58:54Z</time>
</trkpt>
<trkpt lat="43.05866003" lon="-2.85816997">
<ele>1018.642</ele>
<time>2011-08-03T15:58:59Z</time>
</trkpt>
<trkpt lat="43.05831000" lon="-2.85762004">
<ele>1015.776</ele>
<time>2011-08-03T15:59:07Z</time>
</trkpt>
<trkpt lat="43.05801999" lon="-2.85721997">
<ele>1014.801</ele>
<time>2011-08-03T15:59:14Z</time>
</trkpt>
<trkpt lat="43.05758002" lon="-2.85720999">
<ele>1008.553</ele>
<time>2011-08-03T15:59:23Z</time>
</trkpt>
<trkpt lat="43.05739998" lon="-2.85757997">
<ele>1004.225</ele>
<time>2011-08-03T15:59:29Z</time>
</trkpt>
<trkpt lat="43.05715003" lon="-2.85785004">
<ele>999.896</ele>
<time>2011-08-03T15:59:36Z</time>
</trkpt>
<trkpt lat="43.05708004" lon="-2.85812999">
<ele>997.519</ele>
<time>2011-08-03T15:59:41Z</time>
</trkpt>
<trkpt lat="43.05696001" lon="-2.85838002">
<ele>997.519</ele>
<time>2011-08-03T15:59:49Z</time>
</trkpt>
<trkpt lat="43.05672004" lon="-2.85855001">
<ele>1001.817</ele>
<time>2011-08-03T16:00:07Z</time>
</trkpt>
<trkpt lat="43.05644000" lon="-2.85882996">
<ele>1006.145</ele>
<time>2011-08-03T16:00:25Z</time>
</trkpt>
<trkpt lat="43.05610003" lon="-2.85931000">
<ele>1010.016</ele>
<time>2011-08-03T16:00:45Z</time>
</trkpt>
<trkpt lat="43.05545999" lon="-2.86062998">
<ele>1016.721</ele>
<time>2011-08-03T16:01:20Z</time>
</trkpt>
<trkpt lat="43.05503000" lon="-2.86124999">
<ele>1019.129</ele>
<time>2011-08-03T16:01:38Z</time>
</trkpt>
<trkpt lat="43.05460998" lon="-2.86136004">
<ele>1018.184</ele>
<time>2011-08-03T16:01:49Z</time>
</trkpt>
<trkpt lat="43.05440999" lon="-2.86156003">
<ele>1016.264</ele>
<time>2011-08-03T16:01:54Z</time>
</trkpt>
<trkpt lat="43.05420002" lon="-2.86205004">
<ele>1011.936</ele>
<time>2011-08-03T16:02:02Z</time>
</trkpt>
<trkpt lat="43.05410002" lon="-2.86219002">
<ele>1010.473</ele>
<time>2011-08-03T16:02:05Z</time>
</trkpt>
<trkpt lat="43.05372996" lon="-2.86252001">
<ele>1007.120</ele>
<time>2011-08-03T16:02:17Z</time>
</trkpt>
<trkpt lat="43.05358001" lon="-2.86255999">
<ele>1004.712</ele>
<time>2011-08-03T16:02:24Z</time>
</trkpt>
<trkpt lat="43.05335001" lon="-2.86301002">
<ele>997.976</ele>
<time>2011-08-03T16:02:41Z</time>
</trkpt>
<trkpt lat="43.05306000" lon="-2.86322996">
<ele>994.623</ele>
<time>2011-08-03T16:02:54Z</time>
</trkpt>
<trkpt lat="43.05276001" lon="-2.86338000">
<ele>992.215</ele>
<time>2011-08-03T16:03:07Z</time>
</trkpt>
<trkpt lat="43.05254996" lon="-2.86324002">
<ele>989.808</ele>
<time>2011-08-03T16:03:18Z</time>
</trkpt>
<trkpt lat="43.05227998" lon="-2.86364000">
<ele>989.320</ele>
<time>2011-08-03T16:03:32Z</time>
</trkpt>
<trkpt lat="43.05191997" lon="-2.86386003">
<ele>991.271</ele>
<time>2011-08-03T16:03:47Z</time>
</trkpt>
<trkpt lat="43.05151002" lon="-2.86379004">
<ele>988.375</ele>
<time>2011-08-03T16:04:00Z</time>
</trkpt>
<trkpt lat="43.05088003" lon="-2.86343004">
<ele>983.071</ele>
<time>2011-08-03T16:04:15Z</time>
</trkpt>
<trkpt lat="43.05027997" lon="-2.86320004">
<ele>978.286</ele>
<time>2011-08-03T16:04:24Z</time>
</trkpt>
<trkpt lat="43.04991997" lon="-2.86315997">
<ele>976.366</ele>
<time>2011-08-03T16:04:29Z</time>
</trkpt>
<trkpt lat="43.04921002" lon="-2.86295000">
<ele>974.446</ele>
<time>2011-08-03T16:04:41Z</time>
</trkpt>
<trkpt lat="43.04871004" lon="-2.86295998">
<ele>974.903</ele>
<time>2011-08-03T16:04:55Z</time>
</trkpt>
<trkpt lat="43.04790001" lon="-2.86304003">
<ele>974.903</ele>
<time>2011-08-03T16:05:23Z</time>
</trkpt>
<trkpt lat="43.04744999" lon="-2.86324002">
<ele>972.038</ele>
<time>2011-08-03T16:05:36Z</time>
</trkpt>
<trkpt lat="43.04692998" lon="-2.86364998">
<ele>962.406</ele>
<time>2011-08-03T16:05:52Z</time>
</trkpt>
<trkpt lat="43.04646000" lon="-2.86387998">
<ele>952.805</ele>
<time>2011-08-03T16:06:04Z</time>
</trkpt>
<trkpt lat="43.04622003" lon="-2.86391996">
<ele>950.397</ele>
<time>2011-08-03T16:06:09Z</time>
</trkpt>
<trkpt lat="43.04602004" lon="-2.86387000">
<ele>948.477</ele>
<time>2011-08-03T16:06:14Z</time>
</trkpt>
<trkpt lat="43.04577998" lon="-2.86387000">
<ele>944.636</ele>
<time>2011-08-03T16:06:21Z</time>
</trkpt>
<trkpt lat="43.04550002" lon="-2.86383002">
<ele>938.875</ele>
<time>2011-08-03T16:06:30Z</time>
</trkpt>
<trkpt lat="43.04501002" lon="-2.86371997">
<ele>933.084</ele>
<time>2011-08-03T16:06:41Z</time>
</trkpt>
<trkpt lat="43.04439001" lon="-2.86347999">
<ele>924.458</ele>
<time>2011-08-03T16:06:55Z</time>
</trkpt>
<trkpt lat="43.04423000" lon="-2.86331001">
<ele>923.971</ele>
<time>2011-08-03T16:06:59Z</time>
</trkpt>
<trkpt lat="43.04428004" lon="-2.86311002">
<ele>923.971</ele>
<time>2011-08-03T16:07:07Z</time>
</trkpt>
<trkpt lat="43.04491002" lon="-2.86311002">
<ele>917.235</ele>
<time>2011-08-03T16:07:21Z</time>
</trkpt>
<trkpt lat="43.04548997" lon="-2.86278002">
<ele>910.011</ele>
<time>2011-08-03T16:07:35Z</time>
</trkpt>
<trkpt lat="43.04589003" lon="-2.86223997">
<ele>902.330</ele>
<time>2011-08-03T16:07:49Z</time>
</trkpt>
<trkpt lat="43.04607997" lon="-2.86170999">
<ele>893.216</ele>
<time>2011-08-03T16:08:03Z</time>
</trkpt>
<trkpt lat="43.04603001" lon="-2.86160002">
<ele>892.729</ele>
<time>2011-08-03T16:08:11Z</time>
</trkpt>
<trkpt lat="43.04577000" lon="-2.86148996">
<ele>897.057</ele>
<time>2011-08-03T16:08:30Z</time>
</trkpt>
<trkpt lat="43.04554000" lon="-2.86131000">
<ele>902.818</ele>
<time>2011-08-03T16:08:49Z</time>
</trkpt>
<trkpt lat="43.04541000" lon="-2.86104002">
<ele>908.091</ele>
<time>2011-08-03T16:09:08Z</time>
</trkpt>
<trkpt lat="43.04528997" lon="-2.86065998">
<ele>911.474</ele>
<time>2011-08-03T16:09:29Z</time>
</trkpt>
<trkpt lat="43.04495000" lon="-2.85816000">
<ele>928.299</ele>
<time>2011-08-03T16:11:01Z</time>
</trkpt>
<trkpt lat="43.04492000" lon="-2.85757997">
<ele>930.707</ele>
<time>2011-08-03T16:11:18Z</time>
</trkpt>
<trkpt lat="43.04476996" lon="-2.85710002">
<ele>931.164</ele>
<time>2011-08-03T16:11:33Z</time>
</trkpt>
<trkpt lat="43.04465001" lon="-2.85634004">
<ele>934.060</ele>
<time>2011-08-03T16:11:57Z</time>
</trkpt>
<trkpt lat="43.04485998" lon="-2.85585003">
<ele>931.164</ele>
<time>2011-08-03T16:12:08Z</time>
</trkpt>
<trkpt lat="43.04511999" lon="-2.85546999">
<ele>928.756</ele>
<time>2011-08-03T16:12:14Z</time>
</trkpt>
<trkpt lat="43.04518998" lon="-2.85519004">
<ele>928.299</ele>
<time>2011-08-03T16:12:18Z</time>
</trkpt>
<trkpt lat="43.04518998" lon="-2.85432997">
<ele>923.971</ele>
<time>2011-08-03T16:12:31Z</time>
</trkpt>
<trkpt lat="43.04527002" lon="-2.85365003">
<ele>920.587</ele>
<time>2011-08-03T16:12:44Z</time>
</trkpt>
<trkpt lat="43.04528000" lon="-2.85323001">
<ele>921.563</ele>
<time>2011-08-03T16:12:57Z</time>
</trkpt>
<trkpt lat="43.04534999" lon="-2.85284998">
<ele>922.050</ele>
<time>2011-08-03T16:13:09Z</time>
</trkpt>
<trkpt lat="43.04522996" lon="-2.85250003">
<ele>921.075</ele>
<time>2011-08-03T16:13:21Z</time>
</trkpt>
<trkpt lat="43.04511001" lon="-2.85208999">
<ele>916.259</ele>
<time>2011-08-03T16:13:33Z</time>
</trkpt>
<trkpt lat="43.04476996" lon="-2.85199000">
<ele>920.130</ele>
<time>2011-08-03T16:13:51Z</time>
</trkpt>
<trkpt lat="43.04461003" lon="-2.85178003">
<ele>924.458</ele>
<time>2011-08-03T16:14:05Z</time>
</trkpt>
<trkpt lat="43.04432999" lon="-2.85163997">
<ele>923.971</ele>
<time>2011-08-03T16:14:15Z</time>
</trkpt>
<trkpt lat="43.04400000" lon="-2.85150996">
<ele>928.756</ele>
<time>2011-08-03T16:14:34Z</time>
</trkpt>
<trkpt lat="43.04360001" lon="-2.85139999">
<ele>933.572</ele>
<time>2011-08-03T16:14:56Z</time>
</trkpt>
<trkpt lat="43.04325996" lon="-2.85155003">
<ele>935.492</ele>
<time>2011-08-03T16:15:12Z</time>
</trkpt>
<trkpt lat="43.04285998" lon="-2.85162999">
<ele>935.004</ele>
<time>2011-08-03T16:15:26Z</time>
</trkpt>
<trkpt lat="43.04249000" lon="-2.85130000">
<ele>934.547</ele>
<time>2011-08-03T16:15:40Z</time>
</trkpt>
<trkpt lat="43.04219001" lon="-2.85071000">
<ele>934.547</ele>
<time>2011-08-03T16:15:55Z</time>
</trkpt>
<trkpt lat="43.04203000" lon="-2.85008999">
<ele>935.004</ele>
<time>2011-08-03T16:16:10Z</time>
</trkpt>
<trkpt lat="43.04192003" lon="-2.84942999">
<ele>934.060</ele>
<time>2011-08-03T16:16:26Z</time>
</trkpt>
<trkpt lat="43.04202002" lon="-2.84897000">
<ele>936.955</ele>
<time>2011-08-03T16:16:40Z</time>
</trkpt>
<trkpt lat="43.04232999" lon="-2.84867998">
<ele>943.661</ele>
<time>2011-08-03T16:16:57Z</time>
</trkpt>
<trkpt lat="43.04268002" lon="-2.84838997">
<ele>946.556</ele>
<time>2011-08-03T16:17:14Z</time>
</trkpt>
<trkpt lat="43.04347001" lon="-2.84738003">
<ele>949.909</ele>
<time>2011-08-03T16:17:53Z</time>
</trkpt>
<trkpt lat="43.04340002" lon="-2.84706001">
<ele>949.909</ele>
<time>2011-08-03T16:18:04Z</time>
</trkpt>
<trkpt lat="43.04307003" lon="-2.84663999">
<ele>946.069</ele>
<time>2011-08-03T16:18:17Z</time>
</trkpt>
<trkpt lat="43.04275000" lon="-2.84640002">
<ele>941.253</ele>
<time>2011-08-03T16:18:26Z</time>
</trkpt>
<trkpt lat="43.04170000" lon="-2.84585000">
<ele>922.995</ele>
<time>2011-08-03T16:18:53Z</time>
</trkpt>
<trkpt lat="43.04130002" lon="-2.84569996">
<ele>913.882</ele>
<time>2011-08-03T16:19:06Z</time>
</trkpt>
<trkpt lat="43.04100003" lon="-2.84552998">
<ele>906.658</ele>
<time>2011-08-03T16:19:14Z</time>
</trkpt>
<trkpt lat="43.04069996" lon="-2.84542998">
<ele>899.465</ele>
<time>2011-08-03T16:19:21Z</time>
</trkpt>
<trkpt lat="43.03989999" lon="-2.84595000">
<ele>891.753</ele>
<time>2011-08-03T16:19:41Z</time>
</trkpt>
<trkpt lat="43.03916004" lon="-2.84621998">
<ele>881.664</ele>
<time>2011-08-03T16:19:58Z</time>
</trkpt>
<trkpt lat="43.03858998" lon="-2.84637001">
<ele>869.168</ele>
<time>2011-08-03T16:20:10Z</time>
</trkpt>
<trkpt lat="43.03779999" lon="-2.84660999">
<ele>857.646</ele>
<time>2011-08-03T16:20:26Z</time>
</trkpt>
<trkpt lat="43.03750000" lon="-2.84676002">
<ele>853.318</ele>
<time>2011-08-03T16:20:33Z</time>
</trkpt>
<trkpt lat="43.03700002" lon="-2.84683001">
<ele>843.686</ele>
<time>2011-08-03T16:20:46Z</time>
</trkpt>
<trkpt lat="43.03677002" lon="-2.84674997">
<ele>838.413</ele>
<time>2011-08-03T16:20:52Z</time>
</trkpt>
<trkpt lat="43.03658000" lon="-2.84646004">
<ele>835.518</ele>
<time>2011-08-03T16:20:58Z</time>
</trkpt>
<trkpt lat="43.03638998" lon="-2.84588998">
<ele>833.110</ele>
<time>2011-08-03T16:21:10Z</time>
</trkpt>
<trkpt lat="43.03601003" lon="-2.84545999">
<ele>828.782</ele>
<time>2011-08-03T16:21:23Z</time>
</trkpt>
<trkpt lat="43.03536999" lon="-2.84474996">
<ele>814.852</ele>
<time>2011-08-03T16:21:46Z</time>
</trkpt>
<trkpt lat="43.03496003" lon="-2.84440999">
<ele>804.763</ele>
<time>2011-08-03T16:21:59Z</time>
</trkpt>
<trkpt lat="43.03471000" lon="-2.84398000">
<ele>802.843</ele>
<time>2011-08-03T16:22:10Z</time>
</trkpt>
<trkpt lat="43.03448997" lon="-2.84352000">
<ele>805.708</ele>
<time>2011-08-03T16:22:21Z</time>
</trkpt>
<trkpt lat="43.03435997" lon="-2.84332998">
<ele>805.251</ele>
<time>2011-08-03T16:22:25Z</time>
</trkpt>
<trkpt lat="43.03424003" lon="-2.84300996">
<ele>802.356</ele>
<time>2011-08-03T16:22:30Z</time>
</trkpt>
<trkpt lat="43.03418999" lon="-2.84273998">
<ele>801.868</ele>
<time>2011-08-03T16:22:34Z</time>
</trkpt>
<trkpt lat="43.03427003" lon="-2.84220999">
<ele>798.515</ele>
<time>2011-08-03T16:22:45Z</time>
</trkpt>
<trkpt lat="43.03493002" lon="-2.84059002">
<ele>791.779</ele>
<time>2011-08-03T16:23:22Z</time>
</trkpt>
<trkpt lat="43.03494000" lon="-2.84030001">
<ele>792.267</ele>
<time>2011-08-03T16:23:34Z</time>
</trkpt>
<trkpt lat="43.03491997" lon="-2.84014000">
<ele>801.868</ele>
<time>2011-08-03T16:23:43Z</time>
</trkpt>
<trkpt lat="43.03490999" lon="-2.83974999">
<ele>809.092</ele>
<time>2011-08-03T16:23:58Z</time>
</trkpt>
<trkpt lat="43.03484998" lon="-2.83929996">
<ele>804.276</ele>
<time>2011-08-03T16:24:10Z</time>
</trkpt>
<trkpt lat="43.03473003" lon="-2.83869001">
<ele>802.356</ele>
<time>2011-08-03T16:24:30Z</time>
</trkpt>
<trkpt lat="43.03467002" lon="-2.83852003">
<ele>798.027</ele>
<time>2011-08-03T16:24:41Z</time>
</trkpt>
<trkpt lat="43.03467999" lon="-2.83843998">
<ele>798.515</ele>
<time>2011-08-03T16:25:12Z</time>
</trkpt>
<trkpt lat="43.03455996" lon="-2.83820998">
<ele>797.540</ele>
<time>2011-08-03T16:25:18Z</time>
</trkpt>
<trkpt lat="43.03448997" lon="-2.83812004">
<ele>795.162</ele>
<time>2011-08-03T16:25:20Z</time>
</trkpt>
<trkpt lat="43.03425000" lon="-2.83773003">
<ele>796.107</ele>
<time>2011-08-03T16:25:31Z</time>
</trkpt>
<trkpt lat="43.03395999" lon="-2.83735000">
<ele>798.515</ele>
<time>2011-08-03T16:25:46Z</time>
</trkpt>
<trkpt lat="43.03376997" lon="-2.83709996">
<ele>794.675</ele>
<time>2011-08-03T16:25:58Z</time>
</trkpt>
<trkpt lat="43.03332003" lon="-2.83682001">
<ele>788.426</ele>
<time>2011-08-03T16:26:10Z</time>
</trkpt>
<trkpt lat="43.03280999" lon="-2.83684004">
<ele>787.451</ele>
<time>2011-08-03T16:26:22Z</time>
</trkpt>
<trkpt lat="43.03273003" lon="-2.83672999">
<ele>785.531</ele>
<time>2011-08-03T16:26:33Z</time>
</trkpt>
<trkpt lat="43.03270999" lon="-2.83662999">
<ele>795.619</ele>
<time>2011-08-03T16:26:46Z</time>
</trkpt>
<trkpt lat="43.03280999" lon="-2.83650996">
<ele>807.171</ele>
<time>2011-08-03T16:27:01Z</time>
</trkpt>
<trkpt lat="43.03274000" lon="-2.83648004">
<ele>824.941</ele>
<time>2011-08-03T16:27:17Z</time>
</trkpt>
<trkpt lat="43.03234999" lon="-2.83639002">
<ele>806.196</ele>
<time>2011-08-03T16:27:30Z</time>
</trkpt>
<trkpt lat="43.03192997" lon="-2.83648004">
<ele>793.699</ele>
<time>2011-08-03T16:27:44Z</time>
</trkpt>
<trkpt lat="43.03142002" lon="-2.83666997">
<ele>787.451</ele>
<time>2011-08-03T16:28:03Z</time>
</trkpt>
<trkpt lat="43.03103998" lon="-2.83705001">
<ele>785.531</ele>
<time>2011-08-03T16:28:20Z</time>
</trkpt>
<trkpt lat="43.03054000" lon="-2.83728001">
<ele>775.442</ele>
<time>2011-08-03T16:28:36Z</time>
</trkpt>
<trkpt lat="43.03008000" lon="-2.83735000">
<ele>761.970</ele>
<time>2011-08-03T16:28:50Z</time>
</trkpt>
<trkpt lat="43.03000004" lon="-2.83719996">
<ele>760.537</ele>
<time>2011-08-03T16:28:56Z</time>
</trkpt>
<trkpt lat="43.02975001" lon="-2.83734002">
<ele>760.049</ele>
<time>2011-08-03T16:29:15Z</time>
</trkpt>
<trkpt lat="43.02968999" lon="-2.83738998">
<ele>760.537</ele>
<time>2011-08-03T16:29:21Z</time>
</trkpt>
<trkpt lat="43.02964004" lon="-2.83755996">
<ele>759.592</ele>
<time>2011-08-03T16:29:32Z</time>
</trkpt>
<trkpt lat="43.02942999" lon="-2.83767002">
<ele>761.512</ele>
<time>2011-08-03T16:29:48Z</time>
</trkpt>
<trkpt lat="43.02903000" lon="-2.83777999">
<ele>761.025</ele>
<time>2011-08-03T16:30:03Z</time>
</trkpt>
<trkpt lat="43.02849004" lon="-2.83778996">
<ele>759.104</ele>
<time>2011-08-03T16:30:20Z</time>
</trkpt>
<trkpt lat="43.02813004" lon="-2.83754001">
<ele>757.641</ele>
<time>2011-08-03T16:30:32Z</time>
</trkpt>
<trkpt lat="43.02741003" lon="-2.83695001">
<ele>762.457</ele>
<time>2011-08-03T16:31:05Z</time>
</trkpt>
<trkpt lat="43.02695003" lon="-2.83666000">
<ele>764.865</ele>
<time>2011-08-03T16:31:27Z</time>
</trkpt>
<trkpt lat="43.02647000" lon="-2.83629002">
<ele>767.761</ele>
<time>2011-08-03T16:31:49Z</time>
</trkpt>
<trkpt lat="43.02631997" lon="-2.83613998">
<ele>768.218</ele>
<time>2011-08-03T16:31:58Z</time>
</trkpt>
<trkpt lat="43.02637001" lon="-2.83607997">
<ele>769.681</ele>
<time>2011-08-03T16:32:04Z</time>
</trkpt>
<trkpt lat="43.02706998" lon="-2.83609003">
<ele>778.337</ele>
<time>2011-08-03T16:32:49Z</time>
</trkpt>
<trkpt lat="43.02797003" lon="-2.83623001">
<ele>788.914</ele>
<time>2011-08-03T16:33:48Z</time>
</trkpt>
<trkpt lat="43.02834000" lon="-2.83622003">
<ele>788.914</ele>
<time>2011-08-03T16:34:06Z</time>
</trkpt>
<trkpt lat="43.02870998" lon="-2.83609003">
<ele>791.779</ele>
<time>2011-08-03T16:34:26Z</time>
</trkpt>
<trkpt lat="43.02890997" lon="-2.83570999">
<ele>793.212</ele>
<time>2011-08-03T16:34:44Z</time>
</trkpt>
<trkpt lat="43.02900997" lon="-2.83525997">
<ele>797.540</ele>
<time>2011-08-03T16:35:05Z</time>
</trkpt>
<trkpt lat="43.02883001" lon="-2.83446997">
<ele>809.579</ele>
<time>2011-08-03T16:35:49Z</time>
</trkpt>
<trkpt lat="43.02876002" lon="-2.83335996">
<ele>823.021</ele>
<time>2011-08-03T16:36:47Z</time>
</trkpt>
<trkpt lat="43.02870001" lon="-2.83304002">
<ele>827.837</ele>
<time>2011-08-03T16:37:06Z</time>
</trkpt>
<trkpt lat="43.02873999" lon="-2.83265999">
<ele>831.677</ele>
<time>2011-08-03T16:37:26Z</time>
</trkpt>
<trkpt lat="43.02906998" lon="-2.83196001">
<ele>838.901</ele>
<time>2011-08-03T16:38:08Z</time>
</trkpt>
<trkpt lat="43.02915003" lon="-2.83154000">
<ele>842.742</ele>
<time>2011-08-03T16:38:30Z</time>
</trkpt>
<trkpt lat="43.02922999" lon="-2.83127001">
<ele>847.527</ele>
<time>2011-08-03T16:38:47Z</time>
</trkpt>
<trkpt lat="43.02936000" lon="-2.83107002">
<ele>854.751</ele>
<time>2011-08-03T16:39:06Z</time>
</trkpt>
<trkpt lat="43.02951003" lon="-2.83088998">
<ele>856.671</ele>
<time>2011-08-03T16:39:25Z</time>
</trkpt>
<trkpt lat="43.02964004" lon="-2.83067004">
<ele>861.487</ele>
<time>2011-08-03T16:39:45Z</time>
</trkpt>
<trkpt lat="43.02975998" lon="-2.83078998">
<ele>864.352</ele>
<time>2011-08-03T16:40:04Z</time>
</trkpt>
<trkpt lat="43.02987004" lon="-2.83071002">
<ele>866.760</ele>
<time>2011-08-03T16:40:20Z</time>
</trkpt>
<trkpt lat="43.03023004" lon="-2.83062000">
<ele>879.744</ele>
<time>2011-08-03T16:41:10Z</time>
</trkpt>
<trkpt lat="43.03031000" lon="-2.83048999">
<ele>881.177</ele>
<time>2011-08-03T16:41:20Z</time>
</trkpt>
<trkpt lat="43.03048996" lon="-2.83035002">
<ele>884.560</ele>
<time>2011-08-03T16:41:38Z</time>
</trkpt>
<trkpt lat="43.03063002" lon="-2.83013997">
<ele>885.505</ele>
<time>2011-08-03T16:41:54Z</time>
</trkpt>
<trkpt lat="43.03084997" lon="-2.82970998">
<ele>880.232</ele>
<time>2011-08-03T16:42:06Z</time>
</trkpt>
<trkpt lat="43.03129002" lon="-2.82898000">
<ele>872.063</ele>
<time>2011-08-03T16:42:18Z</time>
</trkpt>
<trkpt lat="43.03153996" lon="-2.82849996">
<ele>871.576</ele>
<time>2011-08-03T16:42:28Z</time>
</trkpt>
<trkpt lat="43.03175999" lon="-2.82785003">
<ele>880.720</ele>
<time>2011-08-03T16:43:09Z</time>
</trkpt>
<trkpt lat="43.03197004" lon="-2.82730998">
<ele>893.674</ele>
<time>2011-08-03T16:44:01Z</time>
</trkpt>
<trkpt lat="43.03220004" lon="-2.82690003">
<ele>906.658</ele>
<time>2011-08-03T16:44:56Z</time>
</trkpt>
<trkpt lat="43.03228000" lon="-2.82671998">
<ele>909.066</ele>
<time>2011-08-03T16:45:17Z</time>
</trkpt>
<trkpt lat="43.03253003" lon="-2.82609000">
<ele>925.403</ele>
<time>2011-08-03T16:46:29Z</time>
</trkpt>
<trkpt lat="43.03300001" lon="-2.82526002">
<ele>953.780</ele>
<time>2011-08-03T16:48:24Z</time>
</trkpt>
<trkpt lat="43.03309003" lon="-2.82513002">
<ele>958.566</ele>
<time>2011-08-03T16:48:45Z</time>
</trkpt>
<trkpt lat="43.03325004" lon="-2.82504997">
<ele>964.326</ele>
<time>2011-08-03T16:49:08Z</time>
</trkpt>
<trkpt lat="43.03349001" lon="-2.82504000">
<ele>969.142</ele>
<time>2011-08-03T16:49:35Z</time>
</trkpt>
<trkpt lat="43.03369001" lon="-2.82488996">
<ele>970.117</ele>
<time>2011-08-03T16:49:50Z</time>
</trkpt>
<trkpt lat="43.03392998" lon="-2.82451998">
<ele>969.142</ele>
<time>2011-08-03T16:50:08Z</time>
</trkpt>
<trkpt lat="43.03409996" lon="-2.82418001">
<ele>971.550</ele>
<time>2011-08-03T16:50:24Z</time>
</trkpt>
<trkpt lat="43.03434002" lon="-2.82369001">
<ele>971.062</ele>
<time>2011-08-03T16:50:45Z</time>
</trkpt>
<trkpt lat="43.03444002" lon="-2.82329002">
<ele>971.062</ele>
<time>2011-08-03T16:51:00Z</time>
</trkpt>
<trkpt lat="43.03461998" lon="-2.82297998">
<ele>974.903</ele>
<time>2011-08-03T16:51:19Z</time>
</trkpt>
<trkpt lat="43.03473003" lon="-2.82274998">
<ele>980.694</ele>
<time>2011-08-03T16:51:37Z</time>
</trkpt>
<trkpt lat="43.03517997" lon="-2.82232996">
<ele>989.808</ele>
<time>2011-08-03T16:52:21Z</time>
</trkpt>
<trkpt lat="43.03539002" lon="-2.82197004">
<ele>993.648</ele>
<time>2011-08-03T16:52:43Z</time>
</trkpt>
<trkpt lat="43.03553000" lon="-2.82166000">
<ele>995.568</ele>
<time>2011-08-03T16:53:01Z</time>
</trkpt>
<trkpt lat="43.03641999" lon="-2.82083999">
<ele>1014.801</ele>
<time>2011-08-03T16:54:40Z</time>
</trkpt>
<trkpt lat="43.03668997" lon="-2.82107997">
<ele>1018.642</ele>
<time>2011-08-03T16:55:15Z</time>
</trkpt>
<trkpt lat="43.03710999" lon="-2.82166000">
<ele>1024.890</ele>
<time>2011-08-03T16:56:03Z</time>
</trkpt>
<trkpt lat="43.03727000" lon="-2.82182998">
<ele>1026.353</ele>
<time>2011-08-03T16:56:18Z</time>
</trkpt>
<trkpt lat="43.03747997" lon="-2.82205001">
<ele>1028.273</ele>
<time>2011-08-03T16:56:36Z</time>
</trkpt>
<trkpt lat="43.03789001" lon="-2.82240003">
<ele>1033.546</ele>
<time>2011-08-03T16:57:11Z</time>
</trkpt>
<trkpt lat="43.03802001" lon="-2.82244002">
<ele>1035.009</ele>
<time>2011-08-03T16:57:23Z</time>
</trkpt>
<trkpt lat="43.03831003" lon="-2.82248000">
<ele>1042.203</ele>
<time>2011-08-03T16:57:51Z</time>
</trkpt>
<trkpt lat="43.03858001" lon="-2.82244999">
<ele>1050.859</ele>
<time>2011-08-03T16:58:28Z</time>
</trkpt>
<trkpt lat="43.03870004" lon="-2.82244002">
<ele>1052.292</ele>
<time>2011-08-03T16:58:43Z</time>
</trkpt>
<trkpt lat="43.03884001" lon="-2.82227003">
<ele>1055.675</ele>
<time>2011-08-03T16:59:04Z</time>
</trkpt>
<trkpt lat="43.03883004" lon="-2.82186996">
<ele>1058.540</ele>
<time>2011-08-03T16:59:44Z</time>
</trkpt>
<trkpt lat="43.03890003" lon="-2.82156000">
<ele>1065.276</ele>
<time>2011-08-03T17:00:18Z</time>
</trkpt>
<trkpt lat="43.03894001" lon="-2.82115004">
<ele>1072.012</ele>
<time>2011-08-03T17:00:59Z</time>
</trkpt>
<trkpt lat="43.03897002" lon="-2.82094996">
<ele>1076.340</ele>
<time>2011-08-03T17:01:19Z</time>
</trkpt>
<trkpt lat="43.03917001" lon="-2.82037002">
<ele>1090.757</ele>
<time>2011-08-03T17:02:25Z</time>
</trkpt>
<trkpt lat="43.03897999" lon="-2.81999996">
<ele>1089.325</ele>
<time>2011-08-03T17:02:51Z</time>
</trkpt>
<trkpt lat="43.03881001" lon="-2.81956997">
<ele>1081.613</ele>
<time>2011-07-11T14:51:24Z</time>
</trkpt>
<trkpt lat="43.03877003" lon="-2.81955999">
<ele>1079.693</ele>
<time>2011-07-11T14:51:31Z</time>
</trkpt>
<trkpt lat="43.03874999" lon="-2.81952001">
<ele>1078.260</ele>
<time>2011-07-11T14:51:34Z</time>
</trkpt>
<trkpt lat="43.03885996" lon="-2.81939001">
<ele>1074.420</ele>
<time>2011-07-11T14:51:47Z</time>
</trkpt>
<trkpt lat="43.03926003" lon="-2.81889003">
<ele>1066.709</ele>
<time>2011-07-11T14:52:32Z</time>
</trkpt>
<trkpt lat="43.03930999" lon="-2.81882004">
<ele>1065.764</ele>
<time>2011-07-11T14:52:41Z</time>
</trkpt>
<trkpt lat="43.03930999" lon="-2.81877000">
<ele>1065.276</ele>
<time>2011-07-11T14:52:44Z</time>
</trkpt>
<trkpt lat="43.03921997" lon="-2.81873002">
<ele>1063.843</ele>
<time>2011-07-11T14:52:52Z</time>
</trkpt>
<trkpt lat="43.03918996" lon="-2.81854997">
<ele>1060.948</ele>
<time>2011-07-11T14:53:06Z</time>
</trkpt>
<trkpt lat="43.03914000" lon="-2.81850002">
<ele>1059.515</ele>
<time>2011-07-11T14:53:11Z</time>
</trkpt>
<trkpt lat="43.03914000" lon="-2.81840002">
<ele>1057.595</ele>
<time>2011-07-11T14:53:18Z</time>
</trkpt>
<trkpt lat="43.03894999" lon="-2.81841997">
<ele>1054.212</ele>
<time>2011-07-11T14:53:36Z</time>
</trkpt>
<trkpt lat="43.03887002" lon="-2.81847001">
<ele>1052.292</ele>
<time>2011-07-11T14:53:43Z</time>
</trkpt>
<trkpt lat="43.03881998" lon="-2.81825996">
<ele>1047.963</ele>
<time>2011-07-11T14:53:58Z</time>
</trkpt>
<trkpt lat="43.03877003" lon="-2.81824999">
<ele>1046.531</ele>
<time>2011-07-11T14:54:02Z</time>
</trkpt>
<trkpt lat="43.03861999" lon="-2.81828997">
<ele>1043.635</ele>
<time>2011-07-11T14:54:14Z</time>
</trkpt>
<trkpt lat="43.03858998" lon="-2.81823004">
<ele>1042.690</ele>
<time>2011-07-11T14:54:19Z</time>
</trkpt>
<trkpt lat="43.03868000" lon="-2.81808000">
<ele>1039.795</ele>
<time>2011-07-11T14:55:51Z</time>
</trkpt>
<trkpt lat="43.03877003" lon="-2.81808000">
<ele>1040.282</ele>
<time>2011-07-11T14:57:30Z</time>
</trkpt>
<trkpt lat="43.03884999" lon="-2.81801001">
<ele>1037.387</ele>
<time>2011-07-11T14:57:46Z</time>
</trkpt>
<trkpt lat="43.03903003" lon="-2.81765001">
<ele>1035.467</ele>
<time>2011-07-11T14:58:20Z</time>
</trkpt>
<trkpt lat="43.03926003" lon="-2.81728003">
<ele>1025.865</ele>
<time>2011-07-11T14:58:54Z</time>
</trkpt>
<trkpt lat="43.03927001" lon="-2.81722002">
<ele>1025.378</ele>
<time>2011-07-11T14:58:58Z</time>
</trkpt>
<trkpt lat="43.03943999" lon="-2.81709001">
<ele>1023.457</ele>
<time>2011-07-11T14:59:14Z</time>
</trkpt>
<trkpt lat="43.03965004" lon="-2.81703997">
<ele>1022.025</ele>
<time>2011-07-11T14:59:31Z</time>
</trkpt>
<trkpt lat="43.04002999" lon="-2.81685004">
<ele>1016.264</ele>
<time>2011-07-11T15:00:04Z</time>
</trkpt>
<trkpt lat="43.04013996" lon="-2.81673001">
<ele>1015.289</ele>
<time>2011-07-11T15:00:16Z</time>
</trkpt>
<trkpt lat="43.04025999" lon="-2.81667997">
<ele>1012.393</ele>
<time>2011-07-11T15:00:27Z</time>
</trkpt>
<trkpt lat="43.04026997" lon="-2.81664996">
<ele>1012.881</ele>
<time>2011-07-11T15:00:29Z</time>
</trkpt>
<trkpt lat="43.04041003" lon="-2.81663999">
<ele>1015.289</ele>
<time>2011-07-11T15:00:43Z</time>
</trkpt>
<trkpt lat="43.04051002" lon="-2.81660001">
<ele>1013.369</ele>
<time>2011-07-11T15:00:55Z</time>
</trkpt>
<trkpt lat="43.04058999" lon="-2.81651996">
<ele>1014.313</ele>
<time>2011-07-11T15:01:03Z</time>
</trkpt>
<trkpt lat="43.04072997" lon="-2.81641996">
<ele>1009.528</ele>
<time>2011-07-11T15:01:19Z</time>
</trkpt>
<trkpt lat="43.04084999" lon="-2.81631997">
<ele>1004.712</ele>
<time>2011-07-11T15:01:31Z</time>
</trkpt>
<trkpt lat="43.04098997" lon="-2.81624001">
<ele>1000.384</ele>
<time>2011-07-11T15:01:46Z</time>
</trkpt>
<trkpt lat="43.04117999" lon="-2.81613003">
<ele>996.544</ele>
<time>2011-07-11T15:02:11Z</time>
</trkpt>
<trkpt lat="43.04121000" lon="-2.81608997">
<ele>993.648</ele>
<time>2011-07-11T15:02:19Z</time>
</trkpt>
<trkpt lat="43.04121997" lon="-2.81591001">
<ele>983.559</ele>
<time>2011-07-11T15:02:31Z</time>
</trkpt>
<trkpt lat="43.04128996" lon="-2.81581001">
<ele>978.774</ele>
<time>2011-07-11T15:02:46Z</time>
</trkpt>
<trkpt lat="43.04130999" lon="-2.81567004">
<ele>983.559</ele>
<time>2011-07-11T15:02:59Z</time>
</trkpt>
<trkpt lat="43.04134000" lon="-2.81546996">
<ele>972.525</ele>
<time>2011-07-11T15:03:25Z</time>
</trkpt>
<trkpt lat="43.04137001" lon="-2.81535999">
<ele>970.575</ele>
<time>2011-07-11T15:03:37Z</time>
</trkpt>
<trkpt lat="43.04130002" lon="-2.81519998">
<ele>970.575</ele>
<time>2011-07-11T15:03:48Z</time>
</trkpt>
<trkpt lat="43.04117002" lon="-2.81506998">
<ele>964.326</ele>
<time>2011-07-11T15:04:00Z</time>
</trkpt>
<trkpt lat="43.04111998" lon="-2.81486001">
<ele>957.621</ele>
<time>2011-07-11T15:04:16Z</time>
</trkpt>
<trkpt lat="43.04113003" lon="-2.81476001">
<ele>954.237</ele>
<time>2011-07-11T15:04:24Z</time>
</trkpt>
<trkpt lat="43.04111998" lon="-2.81460998">
<ele>950.397</ele>
<time>2011-07-11T15:04:33Z</time>
</trkpt>
<trkpt lat="43.04114001" lon="-2.81450001">
<ele>949.909</ele>
<time>2011-07-11T15:04:41Z</time>
</trkpt>
<trkpt lat="43.04113003" lon="-2.81434000">
<ele>944.636</ele>
<time>2011-07-11T15:04:52Z</time>
</trkpt>
<trkpt lat="43.04114001" lon="-2.81426003">
<ele>944.148</ele>
<time>2011-07-11T15:04:59Z</time>
</trkpt>
<trkpt lat="43.04113003" lon="-2.81407001">
<ele>945.581</ele>
<time>2011-07-11T15:05:14Z</time>
</trkpt>
<trkpt lat="43.04105996" lon="-2.81381001">
<ele>942.228</ele>
<time>2011-07-11T15:05:34Z</time>
</trkpt>
<trkpt lat="43.04104001" lon="-2.81362996">
<ele>946.556</ele>
<time>2011-07-11T15:05:49Z</time>
</trkpt>
<trkpt lat="43.04097002" lon="-2.81318002">
<ele>932.139</ele>
<time>2011-07-11T15:06:20Z</time>
</trkpt>
<trkpt lat="43.04101001" lon="-2.81306997">
<ele>931.652</ele>
<time>2011-07-11T15:06:36Z</time>
</trkpt>
<trkpt lat="43.04101998" lon="-2.81296997">
<ele>931.164</ele>
<time>2011-07-11T15:06:48Z</time>
</trkpt>
<trkpt lat="43.04098000" lon="-2.81286998">
<ele>927.811</ele>
<time>2011-07-11T15:07:00Z</time>
</trkpt>
<trkpt lat="43.04091998" lon="-2.81273000">
<ele>929.731</ele>
<time>2011-07-11T15:07:12Z</time>
</trkpt>
<trkpt lat="43.04088998" lon="-2.81262003">
<ele>925.403</ele>
<time>2011-07-11T15:07:21Z</time>
</trkpt>
<trkpt lat="43.04085997" lon="-2.81224997">
<ele>913.882</ele>
<time>2011-07-11T15:07:45Z</time>
</trkpt>
<trkpt lat="43.04084002" lon="-2.81210999">
<ele>907.146</ele>
<time>2011-07-11T15:07:58Z</time>
</trkpt>
<trkpt lat="43.04082996" lon="-2.81200999">
<ele>905.713</ele>
<time>2011-07-11T15:08:17Z</time>
</trkpt>
<trkpt lat="43.04077003" lon="-2.81186004">
<ele>914.339</ele>
<time>2011-07-11T15:08:44Z</time>
</trkpt>
<trkpt lat="43.04084002" lon="-2.81187002">
<ele>913.394</ele>
<time>2011-07-11T15:09:18Z</time>
</trkpt>
<trkpt lat="43.04082996" lon="-2.81177002">
<ele>909.554</ele>
<time>2011-07-11T15:09:28Z</time>
</trkpt>
<trkpt lat="43.04075000" lon="-2.81162996">
<ele>905.226</ele>
<time>2011-07-11T15:09:41Z</time>
</trkpt>
<trkpt lat="43.04059996" lon="-2.81158998">
<ele>898.977</ele>
<time>2011-07-11T15:10:12Z</time>
</trkpt>
<trkpt lat="43.04052997" lon="-2.81152996">
<ele>895.137</ele>
<time>2011-07-11T15:10:37Z</time>
</trkpt>
<trkpt lat="43.04046996" lon="-2.81145997">
<ele>898.977</ele>
<time>2011-07-11T15:10:50Z</time>
</trkpt>
<trkpt lat="43.04044004" lon="-2.81151001">
<ele>892.729</ele>
<time>2011-07-11T15:11:13Z</time>
</trkpt>
<trkpt lat="43.04044004" lon="-2.81147003">
<ele>892.729</ele>
<time>2011-07-11T15:11:29Z</time>
</trkpt>
<trkpt lat="43.04042998" lon="-2.81147003">
<ele>897.057</ele>
<time>2011-07-11T15:11:46Z</time>
</trkpt>
<trkpt lat="43.04042000" lon="-2.81138998">
<ele>896.569</ele>
<time>2011-07-11T15:12:19Z</time>
</trkpt>
<trkpt lat="43.04035001" lon="-2.81135000">
<ele>899.922</ele>
<time>2011-07-11T15:12:33Z</time>
</trkpt>
<trkpt lat="43.04035999" lon="-2.81135998">
<ele>907.146</ele>
<time>2011-07-11T15:12:50Z</time>
</trkpt>
<trkpt lat="43.04035001" lon="-2.81128001">
<ele>909.066</ele>
<time>2011-07-11T15:13:03Z</time>
</trkpt>
<trkpt lat="43.04032001" lon="-2.81125001">
<ele>907.146</ele>
<time>2011-07-11T15:13:16Z</time>
</trkpt>
<trkpt lat="43.04029997" lon="-2.81115999">
<ele>915.314</ele>
<time>2011-07-11T15:13:41Z</time>
</trkpt>
<trkpt lat="43.04025999" lon="-2.81105001">
<ele>912.906</ele>
<time>2011-07-11T15:13:57Z</time>
</trkpt>
<trkpt lat="43.04016000" lon="-2.81075003">
<ele>916.747</ele>
<time>2011-07-11T15:14:27Z</time>
</trkpt>
<trkpt lat="43.04015002" lon="-2.81059999">
<ele>918.667</ele>
<time>2011-07-11T15:14:39Z</time>
</trkpt>
<trkpt lat="43.04011004" lon="-2.81043001">
<ele>918.210</ele>
<time>2011-07-11T15:14:51Z</time>
</trkpt>
<trkpt lat="43.03992002" lon="-2.80993002">
<ele>924.458</ele>
<time>2011-07-11T15:15:42Z</time>
</trkpt>
<trkpt lat="43.03983998" lon="-2.80981997">
<ele>923.971</ele>
<time>2011-07-11T15:15:58Z</time>
</trkpt>
<trkpt lat="43.03980997" lon="-2.80971000">
<ele>922.050</ele>
<time>2011-07-11T15:16:08Z</time>
</trkpt>
<trkpt lat="43.03975004" lon="-2.80958997">
<ele>921.563</ele>
<time>2011-07-11T15:16:22Z</time>
</trkpt>
<trkpt lat="43.03967997" lon="-2.80968997">
<ele>922.995</ele>
<time>2011-07-11T15:16:51Z</time>
</trkpt>
<trkpt lat="43.03960998" lon="-2.80963004">
<ele>923.971</ele>
<time>2011-07-11T15:17:06Z</time>
</trkpt>
<trkpt lat="43.03960000" lon="-2.80954999">
<ele>925.403</ele>
<time>2011-07-11T15:17:20Z</time>
</trkpt>
<trkpt lat="43.03950998" lon="-2.80932996">
<ele>930.219</ele>
<time>2011-07-11T15:17:45Z</time>
</trkpt>
<trkpt lat="43.03946002" lon="-2.80924003">
<ele>930.219</ele>
<time>2011-07-11T15:17:57Z</time>
</trkpt>
<trkpt lat="43.03923002" lon="-2.80886997">
<ele>940.308</ele>
<time>2011-07-11T15:18:42Z</time>
</trkpt>
<trkpt lat="43.03917001" lon="-2.80879998">
<ele>940.796</ele>
<time>2011-07-11T15:18:51Z</time>
</trkpt>
<trkpt lat="43.03908996" lon="-2.80869998">
<ele>939.333</ele>
<time>2011-07-11T15:19:02Z</time>
</trkpt>
<trkpt lat="43.03888997" lon="-2.80855003">
<ele>932.627</ele>
<time>2011-07-11T15:19:30Z</time>
</trkpt>
<trkpt lat="43.03885996" lon="-2.80849001">
<ele>930.219</ele>
<time>2011-07-11T15:19:46Z</time>
</trkpt>
<trkpt lat="43.03885996" lon="-2.80850996">
<ele>930.707</ele>
<time>2011-07-11T15:19:51Z</time>
</trkpt>
<trkpt lat="43.03888997" lon="-2.80853997">
<ele>931.652</ele>
<time>2011-07-11T15:19:55Z</time>
</trkpt>
<trkpt lat="43.03884999" lon="-2.80839999">
<ele>934.060</ele>
<time>2011-07-11T15:20:08Z</time>
</trkpt>
<trkpt lat="43.03871999" lon="-2.80843997">
<ele>935.492</ele>
<time>2011-07-11T15:20:27Z</time>
</trkpt>
<trkpt lat="43.03857003" lon="-2.80853000">
<ele>934.060</ele>
<time>2011-07-11T15:20:40Z</time>
</trkpt>
<trkpt lat="43.03845998" lon="-2.80866000">
<ele>930.219</ele>
<time>2011-07-11T15:20:55Z</time>
</trkpt>
<trkpt lat="43.03835998" lon="-2.80894004">
<ele>929.244</ele>
<time>2011-07-11T15:21:22Z</time>
</trkpt>
<trkpt lat="43.03825001" lon="-2.80915998">
<ele>923.971</ele>
<time>2011-07-11T15:21:42Z</time>
</trkpt>
<trkpt lat="43.03822001" lon="-2.80927003">
<ele>926.836</ele>
<time>2011-07-11T15:21:59Z</time>
</trkpt>
<trkpt lat="43.03824004" lon="-2.80931002">
<ele>924.916</ele>
<time>2011-07-11T15:22:02Z</time>
</trkpt>
<trkpt lat="43.03816997" lon="-2.80937003">
<ele>927.324</ele>
<time>2011-07-11T15:22:16Z</time>
</trkpt>
<trkpt lat="43.03814004" lon="-2.80941999">
<ele>925.403</ele>
<time>2011-07-11T15:22:22Z</time>
</trkpt>
<trkpt lat="43.03819000" lon="-2.80958000">
<ele>923.483</ele>
<time>2011-07-11T15:22:32Z</time>
</trkpt>
<trkpt lat="43.03811003" lon="-2.80960003">
<ele>928.756</ele>
<time>2011-07-11T15:22:47Z</time>
</trkpt>
<trkpt lat="43.03805002" lon="-2.80964999">
<ele>933.572</ele>
<time>2011-07-11T15:22:53Z</time>
</trkpt>
<trkpt lat="43.03795002" lon="-2.80977001">
<ele>935.980</ele>
<time>2011-07-11T15:23:05Z</time>
</trkpt>
<trkpt lat="43.03785003" lon="-2.80983003">
<ele>935.004</ele>
<time>2011-07-11T15:23:11Z</time>
</trkpt>
<trkpt lat="43.03776998" lon="-2.80997001">
<ele>926.379</ele>
<time>2011-07-11T15:23:18Z</time>
</trkpt>
<trkpt lat="43.03769002" lon="-2.81007000">
<ele>926.379</ele>
<time>2011-07-11T15:23:33Z</time>
</trkpt>
<trkpt lat="43.03760997" lon="-2.81022004">
<ele>931.652</ele>
<time>2011-07-11T15:23:45Z</time>
</trkpt>
<trkpt lat="43.03760000" lon="-2.81023001">
<ele>931.164</ele>
<time>2011-07-11T15:23:46Z</time>
</trkpt>
<trkpt lat="43.03750997" lon="-2.81027997">
<ele>938.388</ele>
<time>2011-07-11T15:23:58Z</time>
</trkpt>
<trkpt lat="43.03744996" lon="-2.81033998">
<ele>939.820</ele>
<time>2011-07-11T15:24:05Z</time>
</trkpt>
<trkpt lat="43.03719004" lon="-2.81035004">
<ele>933.084</ele>
<time>2011-07-11T15:24:31Z</time>
</trkpt>
<trkpt lat="43.03716003" lon="-2.81035004">
<ele>935.004</ele>
<time>2011-07-11T15:24:35Z</time>
</trkpt>
<trkpt lat="43.03690002" lon="-2.81043001">
<ele>938.388</ele>
<time>2011-07-11T15:24:58Z</time>
</trkpt>
<trkpt lat="43.03677002" lon="-2.81050997">
<ele>933.572</ele>
<time>2011-07-11T15:25:10Z</time>
</trkpt>
<trkpt lat="43.03668000" lon="-2.81052003">
<ele>931.652</ele>
<time>2011-07-11T15:25:21Z</time>
</trkpt>
<trkpt lat="43.03654999" lon="-2.81065003">
<ele>931.164</ele>
<time>2011-07-11T15:25:45Z</time>
</trkpt>
<trkpt lat="43.03648001" lon="-2.81066000">
<ele>932.139</ele>
<time>2011-07-11T15:25:52Z</time>
</trkpt>
<trkpt lat="43.03645000" lon="-2.81073997">
<ele>930.219</ele>
<time>2011-07-11T15:25:58Z</time>
</trkpt>
<trkpt lat="43.03632000" lon="-2.81091004">
<ele>927.811</ele>
<time>2011-07-11T15:26:21Z</time>
</trkpt>
<trkpt lat="43.03622997" lon="-2.81099000">
<ele>929.244</ele>
<time>2011-07-11T15:26:31Z</time>
</trkpt>
<trkpt lat="43.03619997" lon="-2.81112000">
<ele>931.652</ele>
<time>2011-07-11T15:26:41Z</time>
</trkpt>
<trkpt lat="43.03612998" lon="-2.81115001">
<ele>939.333</ele>
<time>2011-07-11T15:26:55Z</time>
</trkpt>
<trkpt lat="43.03604004" lon="-2.81119997">
<ele>942.228</ele>
<time>2011-07-11T15:27:07Z</time>
</trkpt>
<trkpt lat="43.03596997" lon="-2.81122000">
<ele>938.875</ele>
<time>2011-07-11T15:27:19Z</time>
</trkpt>
<trkpt lat="43.03579998" lon="-2.81112000">
<ele>944.148</ele>
<time>2011-07-11T15:27:46Z</time>
</trkpt>
<trkpt lat="43.03573997" lon="-2.81109997">
<ele>948.477</ele>
<time>2011-07-11T15:27:58Z</time>
</trkpt>
<trkpt lat="43.03560996" lon="-2.81106996">
<ele>951.372</ele>
<time>2011-07-11T15:28:15Z</time>
</trkpt>
<trkpt lat="43.03549999" lon="-2.81105999">
<ele>960.029</ele>
<time>2011-07-11T15:28:28Z</time>
</trkpt>
<trkpt lat="43.03545004" lon="-2.81114004">
<ele>965.302</ele>
<time>2011-07-11T15:28:39Z</time>
</trkpt>
<trkpt lat="43.03542003" lon="-2.81131002">
<ele>964.326</ele>
<time>2011-07-11T15:28:49Z</time>
</trkpt>
<trkpt lat="43.03526999" lon="-2.81151001">
<ele>963.381</ele>
<time>2011-07-11T15:29:05Z</time>
</trkpt>
<trkpt lat="43.03523001" lon="-2.81157003">
<ele>969.142</ele>
<time>2011-07-11T15:29:14Z</time>
</trkpt>
<trkpt lat="43.03522004" lon="-2.81171001">
<ele>975.878</ele>
<time>2011-07-11T15:29:24Z</time>
</trkpt>
<trkpt lat="43.03514997" lon="-2.81186004">
<ele>972.525</ele>
<time>2011-07-11T15:29:36Z</time>
</trkpt>
<trkpt lat="43.03503002" lon="-2.81197999">
<ele>965.302</ele>
<time>2011-07-11T15:29:47Z</time>
</trkpt>
<trkpt lat="43.03497001" lon="-2.81209004">
<ele>972.038</ele>
<time>2011-07-11T15:30:00Z</time>
</trkpt>
<trkpt lat="43.03487998" lon="-2.81227998">
<ele>962.406</ele>
<time>2011-07-11T15:30:11Z</time>
</trkpt>
<trkpt lat="43.03477999" lon="-2.81240998">
<ele>962.894</ele>
<time>2011-07-11T15:30:22Z</time>
</trkpt>
<trkpt lat="43.03476004" lon="-2.81250997">
<ele>960.973</ele>
<time>2011-07-11T15:30:28Z</time>
</trkpt>
<trkpt lat="43.03461000" lon="-2.81253998">
<ele>964.814</ele>
<time>2011-07-11T15:30:42Z</time>
</trkpt>
<trkpt lat="43.03441001" lon="-2.81260000">
<ele>964.326</ele>
<time>2011-07-11T15:30:57Z</time>
</trkpt>
<trkpt lat="43.03435997" lon="-2.81257996">
<ele>969.630</ele>
<time>2011-07-11T15:31:07Z</time>
</trkpt>
<trkpt lat="43.03422997" lon="-2.81269999">
<ele>968.197</ele>
<time>2011-07-11T15:31:18Z</time>
</trkpt>
<trkpt lat="43.03405998" lon="-2.81283000">
<ele>960.029</ele>
<time>2011-07-11T15:31:30Z</time>
</trkpt>
<trkpt lat="43.03386997" lon="-2.81303996">
<ele>954.725</ele>
<time>2011-07-11T15:31:47Z</time>
</trkpt>
<trkpt lat="43.03382001" lon="-2.81308003">
<ele>958.078</ele>
<time>2011-07-11T15:31:56Z</time>
</trkpt>
<trkpt lat="43.03363997" lon="-2.81316997">
<ele>960.029</ele>
<time>2011-07-11T15:32:12Z</time>
</trkpt>
<trkpt lat="43.03349001" lon="-2.81325999">
<ele>957.133</ele>
<time>2011-07-11T15:32:23Z</time>
</trkpt>
<trkpt lat="43.03336001" lon="-2.81335001">
<ele>964.814</ele>
<time>2011-07-11T15:32:37Z</time>
</trkpt>
<trkpt lat="43.03323001" lon="-2.81344003">
<ele>960.973</ele>
<time>2011-07-11T15:32:47Z</time>
</trkpt>
<trkpt lat="43.03307000" lon="-2.81348999">
<ele>963.381</ele>
<time>2011-07-11T15:32:59Z</time>
</trkpt>
<trkpt lat="43.03300001" lon="-2.81351002">
<ele>966.734</ele>
<time>2011-07-11T15:33:06Z</time>
</trkpt>
<trkpt lat="43.03280999" lon="-2.81361999">
<ele>962.894</ele>
<time>2011-07-11T15:33:21Z</time>
</trkpt>
<trkpt lat="43.03270002" lon="-2.81365000">
<ele>959.053</ele>
<time>2011-07-11T15:33:33Z</time>
</trkpt>
<trkpt lat="43.03268996" lon="-2.81365997">
<ele>963.869</ele>
<time>2011-07-11T15:33:39Z</time>
</trkpt>
<trkpt lat="43.03261997" lon="-2.81370004">
<ele>961.461</ele>
<time>2011-07-11T15:33:49Z</time>
</trkpt>
<trkpt lat="43.03248997" lon="-2.81378997">
<ele>967.710</ele>
<time>2011-07-11T15:34:01Z</time>
</trkpt>
<trkpt lat="43.03224002" lon="-2.81391000">
<ele>961.949</ele>
<time>2011-07-11T15:34:21Z</time>
</trkpt>
<trkpt lat="43.03211999" lon="-2.81388997">
<ele>955.700</ele>
<time>2011-07-11T15:34:32Z</time>
</trkpt>
<trkpt lat="43.03207004" lon="-2.81387002">
<ele>956.158</ele>
<time>2011-07-11T15:34:38Z</time>
</trkpt>
<trkpt lat="43.03198001" lon="-2.81378997">
<ele>958.078</ele>
<time>2011-07-11T15:34:50Z</time>
</trkpt>
<trkpt lat="43.03179997" lon="-2.81374999">
<ele>964.814</ele>
<time>2011-07-11T15:35:05Z</time>
</trkpt>
<trkpt lat="43.03172001" lon="-2.81372996">
<ele>964.326</ele>
<time>2011-07-11T15:35:11Z</time>
</trkpt>
<trkpt lat="43.03159998" lon="-2.81365997">
<ele>972.038</ele>
<time>2011-07-11T15:35:23Z</time>
</trkpt>
<trkpt lat="43.03149001" lon="-2.81348999">
<ele>971.062</ele>
<time>2011-07-11T15:35:37Z</time>
</trkpt>
<trkpt lat="43.03140996" lon="-2.81332000">
<ele>975.878</ele>
<time>2011-07-11T15:35:52Z</time>
</trkpt>
<trkpt lat="43.03123000" lon="-2.81312998">
<ele>973.958</ele>
<time>2011-07-11T15:36:09Z</time>
</trkpt>
<trkpt lat="43.03123998" lon="-2.81299001">
<ele>974.446</ele>
<time>2011-07-11T15:36:19Z</time>
</trkpt>
<trkpt lat="43.03116001" lon="-2.81289998">
<ele>971.550</ele>
<time>2011-07-11T15:36:28Z</time>
</trkpt>
<trkpt lat="43.03106002" lon="-2.81279001">
<ele>977.311</ele>
<time>2011-07-11T15:36:43Z</time>
</trkpt>
<trkpt lat="43.03094996" lon="-2.81263000">
<ele>979.231</ele>
<time>2011-07-11T15:36:57Z</time>
</trkpt>
<trkpt lat="43.03083002" lon="-2.81256999">
<ele>989.320</ele>
<time>2011-07-11T15:37:08Z</time>
</trkpt>
<trkpt lat="43.03067001" lon="-2.81244996">
<ele>983.559</ele>
<time>2011-07-11T15:37:21Z</time>
</trkpt>
<trkpt lat="43.03056004" lon="-2.81237997">
<ele>984.534</ele>
<time>2011-07-11T15:37:31Z</time>
</trkpt>
<trkpt lat="43.03044001" lon="-2.81227000">
<ele>976.823</ele>
<time>2011-07-11T15:37:42Z</time>
</trkpt>
<trkpt lat="43.03027002" lon="-2.81213002">
<ele>973.470</ele>
<time>2011-07-11T15:37:58Z</time>
</trkpt>
<trkpt lat="43.03027002" lon="-2.81207001">
<ele>965.302</ele>
<time>2011-07-11T15:38:02Z</time>
</trkpt>
<trkpt lat="43.03015997" lon="-2.81194998">
<ele>981.639</ele>
<time>2011-07-11T15:38:22Z</time>
</trkpt>
<trkpt lat="43.03023004" lon="-2.81194001">
<ele>995.568</ele>
<time>2011-07-11T15:38:41Z</time>
</trkpt>
<trkpt lat="43.03008998" lon="-2.81204998">
<ele>984.047</ele>
<time>2011-07-11T15:38:55Z</time>
</trkpt>
<trkpt lat="43.03001001" lon="-2.81214997">
<ele>985.479</ele>
<time>2011-07-11T15:39:05Z</time>
</trkpt>
<trkpt lat="43.02987004" lon="-2.81227000">
<ele>980.206</ele>
<time>2011-07-11T15:39:17Z</time>
</trkpt>
<trkpt lat="43.02968999" lon="-2.81239003">
<ele>977.798</ele>
<time>2011-07-11T15:39:32Z</time>
</trkpt>
<trkpt lat="43.02951003" lon="-2.81242004">
<ele>995.111</ele>
<time>2011-07-11T15:40:03Z</time>
</trkpt>
<trkpt lat="43.02939001" lon="-2.81242004">
<ele>992.703</ele>
<time>2011-07-11T15:40:13Z</time>
</trkpt>
<trkpt lat="43.02922002" lon="-2.81240000">
<ele>992.703</ele>
<time>2011-07-11T15:40:27Z</time>
</trkpt>
<trkpt lat="43.02910997" lon="-2.81233999">
<ele>995.568</ele>
<time>2011-07-11T15:40:38Z</time>
</trkpt>
<trkpt lat="43.02896001" lon="-2.81227998">
<ele>995.111</ele>
<time>2011-07-11T15:40:50Z</time>
</trkpt>
<trkpt lat="43.02877997" lon="-2.81207998">
<ele>998.464</ele>
<time>2011-07-11T15:41:07Z</time>
</trkpt>
<trkpt lat="43.02863999" lon="-2.81197001">
<ele>1005.688</ele>
<time>2011-07-11T15:41:20Z</time>
</trkpt>
<trkpt lat="43.02856003" lon="-2.81187002">
<ele>1008.065</ele>
<time>2011-07-11T15:41:28Z</time>
</trkpt>
<trkpt lat="43.02849004" lon="-2.81187002">
<ele>1006.632</ele>
<time>2011-07-11T15:41:33Z</time>
</trkpt>
<trkpt lat="43.02833003" lon="-2.81171998">
<ele>1001.359</ele>
<time>2011-07-11T15:41:46Z</time>
</trkpt>
<trkpt lat="43.02824001" lon="-2.81165997">
<ele>996.056</ele>
<time>2011-07-11T15:41:53Z</time>
</trkpt>
<trkpt lat="43.02810003" lon="-2.81145000">
<ele>992.215</ele>
<time>2011-07-11T15:42:13Z</time>
</trkpt>
<trkpt lat="43.02803004" lon="-2.81139996">
<ele>1010.961</ele>
<time>2011-07-11T15:42:26Z</time>
</trkpt>
<trkpt lat="43.02788998" lon="-2.81137004">
<ele>1016.721</ele>
<time>2011-07-11T15:42:37Z</time>
</trkpt>
<trkpt lat="43.02772997" lon="-2.81128999">
<ele>1008.065</ele>
<time>2011-07-11T15:42:50Z</time>
</trkpt>
<trkpt lat="43.02761002" lon="-2.81119997">
<ele>1006.632</ele>
<time>2011-07-11T15:43:02Z</time>
</trkpt>
<trkpt lat="43.02756996" lon="-2.81118999">
<ele>1004.225</ele>
<time>2011-07-11T15:43:06Z</time>
</trkpt>
<trkpt lat="43.02749000" lon="-2.81118999">
<ele>1002.792</ele>
<time>2011-07-11T15:43:12Z</time>
</trkpt>
<trkpt lat="43.02735002" lon="-2.81104004">
<ele>1006.145</ele>
<time>2011-07-11T15:43:27Z</time>
</trkpt>
<trkpt lat="43.02725002" lon="-2.81093996">
<ele>1010.961</ele>
<time>2011-07-11T15:43:40Z</time>
</trkpt>
<trkpt lat="43.02706000" lon="-2.81056998">
<ele>1018.642</ele>
<time>2011-07-11T15:44:11Z</time>
</trkpt>
<trkpt lat="43.02699999" lon="-2.81045004">
<ele>1017.209</ele>
<time>2011-07-11T15:44:22Z</time>
</trkpt>
<trkpt lat="43.02667997" lon="-2.81058004">
<ele>1014.313</ele>
<time>2011-07-11T15:44:56Z</time>
</trkpt>
<trkpt lat="43.02663999" lon="-2.81076000">
<ele>1026.353</ele>
<time>2011-07-11T15:45:29Z</time>
</trkpt>
<trkpt lat="43.02686999" lon="-2.81069001">
<ele>1027.786</ele>
<time>2011-07-11T15:46:29Z</time>
</trkpt>
<trkpt lat="43.02682003" lon="-2.81063997">
<ele>1049.426</ele>
<time>2011-07-11T15:46:47Z</time>
</trkpt>
<trkpt lat="43.02664996" lon="-2.81049999">
<ele>1036.442</ele>
<time>2011-07-11T15:46:59Z</time>
</trkpt>
<trkpt lat="43.02667997" lon="-2.81068004">
<ele>1019.129</ele>
<time>2011-07-11T15:48:46Z</time>
</trkpt>
<trkpt lat="43.02676999" lon="-2.81076998">
<ele>1037.387</ele>
<time>2011-07-11T15:49:32Z</time>
</trkpt>
<trkpt lat="43.02666002" lon="-2.81070996">
<ele>1028.273</ele>
<time>2011-07-11T15:49:38Z</time>
</trkpt>
<trkpt lat="43.02670998" lon="-2.81066998">
<ele>1016.264</ele>
<time>2011-07-11T15:50:00Z</time>
</trkpt>
<trkpt lat="43.02663001" lon="-2.81070996">
<ele>1018.642</ele>
<time>2011-07-11T15:50:49Z</time>
</trkpt>
<trkpt lat="43.02659003" lon="-2.81053000">
<ele>1010.961</ele>
<time>2011-07-11T15:51:42Z</time>
</trkpt>
<trkpt lat="43.02649003" lon="-2.81045004">
<ele>1008.553</ele>
<time>2011-07-11T15:52:27Z</time>
</trkpt>
<trkpt lat="43.02650001" lon="-2.81060996">
<ele>1020.105</ele>
<time>2011-07-11T15:53:17Z</time>
</trkpt>
<trkpt lat="43.02647998" lon="-2.81059999">
<ele>1017.209</ele>
<time>2011-07-11T15:53:44Z</time>
</trkpt>
<trkpt lat="43.02636003" lon="-2.81042003">
<ele>1014.801</ele>
<time>2011-07-11T15:54:12Z</time>
</trkpt>
<trkpt lat="43.02640001" lon="-2.81059002">
<ele>1022.025</ele>
<time>2011-07-11T15:55:03Z</time>
</trkpt>
<trkpt lat="43.02633002" lon="-2.81060996">
<ele>1025.865</ele>
<time>2011-07-11T15:55:16Z</time>
</trkpt>
<trkpt lat="43.02618996" lon="-2.81085002">
<ele>1027.786</ele>
<time>2011-07-11T15:55:39Z</time>
</trkpt>
<trkpt lat="43.02611000" lon="-2.81095999">
<ele>1025.378</ele>
<time>2011-07-11T15:55:50Z</time>
</trkpt>
<trkpt lat="43.02607002" lon="-2.81109997">
<ele>1030.194</ele>
<time>2011-07-11T15:56:01Z</time>
</trkpt>
<trkpt lat="43.02593004" lon="-2.81119997">
<ele>1026.353</ele>
<time>2011-07-11T15:56:13Z</time>
</trkpt>
<trkpt lat="43.02584002" lon="-2.81122997">
<ele>1022.025</ele>
<time>2011-07-11T15:56:20Z</time>
</trkpt>
<trkpt lat="43.02578000" lon="-2.81134003">
<ele>1022.970</ele>
<time>2011-07-11T15:56:28Z</time>
</trkpt>
<trkpt lat="43.02568998" lon="-2.81138001">
<ele>1024.890</ele>
<time>2011-07-11T15:56:34Z</time>
</trkpt>
<trkpt lat="43.02548002" lon="-2.81106996">
<ele>1029.218</ele>
<time>2011-07-11T15:57:03Z</time>
</trkpt>
<trkpt lat="43.02545001" lon="-2.81066000">
<ele>1030.681</ele>
<time>2011-07-11T15:57:27Z</time>
</trkpt>
<trkpt lat="43.02552997" lon="-2.81004997">
<ele>1028.273</ele>
<time>2011-07-11T15:58:01Z</time>
</trkpt>
<trkpt lat="43.02552997" lon="-2.80967999">
<ele>1029.706</ele>
<time>2011-07-11T15:58:21Z</time>
</trkpt>
<trkpt lat="43.02557004" lon="-2.80934002">
<ele>1030.194</ele>
<time>2011-07-11T15:58:39Z</time>
</trkpt>
<trkpt lat="43.02565000" lon="-2.80896996">
<ele>1031.626</ele>
<time>2011-07-11T15:59:00Z</time>
</trkpt>
<trkpt lat="43.02591998" lon="-2.80796003">
<ele>1043.178</ele>
<time>2011-07-11T16:00:05Z</time>
</trkpt>
<trkpt lat="43.02605996" lon="-2.80761000">
<ele>1048.939</ele>
<time>2011-07-11T16:00:32Z</time>
</trkpt>
<trkpt lat="43.02643002" lon="-2.80698999">
<ele>1064.331</ele>
<time>2011-07-11T16:01:33Z</time>
</trkpt>
<trkpt lat="43.02676002" lon="-2.80669997">
<ele>1071.524</ele>
<time>2011-07-11T16:02:14Z</time>
</trkpt>
<trkpt lat="43.02703997" lon="-2.80655002">
<ele>1076.828</ele>
<time>2011-07-11T16:02:43Z</time>
</trkpt>
<trkpt lat="43.02751003" lon="-2.80642999">
<ele>1087.862</ele>
<time>2011-07-11T16:03:37Z</time>
</trkpt>
<trkpt lat="43.02784002" lon="-2.80629002">
<ele>1096.030</ele>
<time>2011-07-11T16:04:16Z</time>
</trkpt>
<trkpt lat="43.02814999" lon="-2.80606999">
<ele>1105.662</ele>
<time>2011-07-11T16:04:56Z</time>
</trkpt>
<trkpt lat="43.02841997" lon="-2.80580001">
<ele>1113.831</ele>
<time>2011-07-11T16:05:32Z</time>
</trkpt>
<trkpt lat="43.02856003" lon="-2.80570001">
<ele>1116.696</ele>
<time>2011-07-11T16:05:48Z</time>
</trkpt>
<trkpt lat="43.02876002" lon="-2.80557998">
<ele>1118.159</ele>
<time>2011-07-11T16:06:08Z</time>
</trkpt>
<trkpt lat="43.02899002" lon="-2.80550002">
<ele>1120.079</ele>
<time>2011-07-11T16:06:29Z</time>
</trkpt>
<trkpt lat="43.02930996" lon="-2.80537002">
<ele>1127.272</ele>
<time>2011-07-11T16:07:03Z</time>
</trkpt>
<trkpt lat="43.02945999" lon="-2.80521001">
<ele>1132.576</ele>
<time>2011-07-11T16:07:23Z</time>
</trkpt>
<trkpt lat="43.02959997" lon="-2.80511999">
<ele>1136.904</ele>
<time>2011-07-11T16:07:40Z</time>
</trkpt>
<trkpt lat="43.02988999" lon="-2.80505000">
<ele>1145.560</ele>
<time>2011-07-11T16:08:20Z</time>
</trkpt>
<trkpt lat="43.03011999" lon="-2.80491999">
<ele>1155.162</ele>
<time>2011-07-11T16:08:58Z</time>
</trkpt>
<trkpt lat="43.03038997" lon="-2.80468002">
<ele>1171.986</ele>
<time>2011-07-11T16:09:52Z</time>
</trkpt>
<trkpt lat="43.03050002" lon="-2.80458002">
<ele>1174.394</ele>
<time>2011-07-11T16:10:09Z</time>
</trkpt>
<trkpt lat="43.03063002" lon="-2.80454004">
<ele>1178.723</ele>
<time>2011-07-11T16:10:28Z</time>
</trkpt>
<trkpt lat="43.03077000" lon="-2.80454004">
<ele>1181.588</ele>
<time>2011-07-11T16:10:43Z</time>
</trkpt>
<trkpt lat="43.03084997" lon="-2.80439998">
<ele>1185.916</ele>
<time>2011-07-11T16:10:59Z</time>
</trkpt>
<trkpt lat="43.03086002" lon="-2.80429998">
<ele>1188.811</ele>
<time>2011-07-11T16:11:08Z</time>
</trkpt>
<trkpt lat="43.03103998" lon="-2.80406998">
<ele>1189.756</ele>
<time>2011-07-11T16:11:29Z</time>
</trkpt>
<trkpt lat="43.03119002" lon="-2.80387997">
<ele>1196.492</ele>
<time>2011-07-11T16:11:49Z</time>
</trkpt>
<trkpt lat="43.03133997" lon="-2.80369003">
<ele>1197.955</ele>
<time>2011-07-11T16:12:07Z</time>
</trkpt>
<trkpt lat="43.03151004" lon="-2.80346003">
<ele>1204.204</ele>
<time>2011-07-11T16:12:28Z</time>
</trkpt>
<trkpt lat="43.03156997" lon="-2.80321998">
<ele>1207.069</ele>
<time>2011-07-11T16:12:45Z</time>
</trkpt>
<trkpt lat="43.03169000" lon="-2.80294999">
<ele>1207.069</ele>
<time>2011-07-11T16:13:04Z</time>
</trkpt>
<trkpt lat="43.03171003" lon="-2.80261002">
<ele>1210.909</ele>
<time>2011-07-11T16:13:25Z</time>
</trkpt>
<trkpt lat="43.03179000" lon="-2.80226997">
<ele>1219.078</ele>
<time>2011-07-11T16:13:50Z</time>
</trkpt>
<trkpt lat="43.03192997" lon="-2.80206998">
<ele>1223.406</ele>
<time>2011-07-11T16:14:09Z</time>
</trkpt>
<trkpt lat="43.03215997" lon="-2.80183998">
<ele>1225.814</ele>
<time>2011-07-11T16:14:35Z</time>
</trkpt>
<trkpt lat="43.03244999" lon="-2.80150001">
<ele>1237.823</ele>
<time>2011-07-11T16:15:17Z</time>
</trkpt>
<trkpt lat="43.03254998" lon="-2.80131997">
<ele>1243.614</ele>
<time>2011-07-11T16:15:36Z</time>
</trkpt>
<trkpt lat="43.03267001" lon="-2.80104998">
<ele>1248.400</ele>
<time>2011-07-11T16:15:59Z</time>
</trkpt>
<trkpt lat="43.03267999" lon="-2.80070004">
<ele>1252.240</ele>
<time>2011-07-11T16:16:20Z</time>
</trkpt>
<trkpt lat="43.03273003" lon="-2.80029997">
<ele>1255.624</ele>
<time>2011-07-11T16:16:44Z</time>
</trkpt>
<trkpt lat="43.03287000" lon="-2.80005002">
<ele>1257.056</ele>
<time>2011-07-11T16:17:02Z</time>
</trkpt>
<trkpt lat="43.03309003" lon="-2.79972003">
<ele>1262.360</ele>
<time>2011-07-11T16:17:28Z</time>
</trkpt>
<trkpt lat="43.03320000" lon="-2.79946002">
<ele>1263.792</ele>
<time>2011-07-11T16:17:47Z</time>
</trkpt>
<trkpt lat="43.03322003" lon="-2.79907001">
<ele>1268.120</ele>
<time>2011-07-11T16:18:09Z</time>
</trkpt>
<trkpt lat="43.03332003" lon="-2.79871001">
<ele>1273.393</ele>
<time>2011-07-11T16:18:32Z</time>
</trkpt>
<trkpt lat="43.03339002" lon="-2.79835998">
<ele>1278.697</ele>
<time>2011-07-11T16:18:55Z</time>
</trkpt>
<trkpt lat="43.03359001" lon="-2.79745004">
<ele>1286.378</ele>
<time>2011-07-11T16:19:54Z</time>
</trkpt>
<trkpt lat="43.03369998" lon="-2.79664001">
<ele>1291.681</ele>
<time>2011-07-11T16:20:43Z</time>
</trkpt>
<trkpt lat="43.03376997" lon="-2.79629996">
<ele>1294.547</ele>
<time>2011-07-11T16:21:05Z</time>
</trkpt>
<trkpt lat="43.03382998" lon="-2.79598002">
<ele>1299.850</ele>
<time>2011-07-11T16:21:26Z</time>
</trkpt>
<trkpt lat="43.03386997" lon="-2.79533998">
<ele>1310.427</ele>
<time>2011-07-11T16:22:09Z</time>
</trkpt>
<trkpt lat="43.03407004" lon="-2.79447002">
<ele>1326.764</ele>
<time>2011-07-11T16:23:20Z</time>
</trkpt>
<trkpt lat="43.03408002" lon="-2.79399997">
<ele>1333.012</ele>
<time>2011-07-11T16:23:58Z</time>
</trkpt>
<trkpt lat="43.03411002" lon="-2.79369998">
<ele>1337.340</ele>
<time>2011-07-11T16:24:22Z</time>
</trkpt>
<trkpt lat="43.03411002" lon="-2.79342002">
<ele>1341.181</ele>
<time>2011-07-11T16:24:41Z</time>
</trkpt>
<trkpt lat="43.03415998" lon="-2.79310998">
<ele>1345.021</ele>
<time>2011-07-11T16:25:03Z</time>
</trkpt>
<trkpt lat="43.03418001" lon="-2.79287998">
<ele>1349.350</ele>
<time>2011-07-11T16:25:23Z</time>
</trkpt>
<trkpt lat="43.03415998" lon="-2.79238000">
<ele>1360.414</ele>
<time>2011-07-11T16:26:08Z</time>
</trkpt>
<trkpt lat="43.03412000" lon="-2.79164004">
<ele>1370.990</ele>
<time>2011-07-11T16:27:08Z</time>
</trkpt>
<trkpt lat="43.03405998" lon="-2.79136000">
<ele>1376.751</ele>
<time>2011-07-11T16:27:30Z</time>
</trkpt>
<trkpt lat="43.03407004" lon="-2.79110997">
<ele>1380.592</ele>
<time>2011-07-11T16:27:50Z</time>
</trkpt>
<trkpt lat="43.03418001" lon="-2.79090998">
<ele>1383.944</ele>
<time>2011-07-11T16:28:10Z</time>
</trkpt>
<trkpt lat="43.03431999" lon="-2.79054997">
<ele>1392.601</ele>
<time>2011-07-11T16:28:47Z</time>
</trkpt>
<trkpt lat="43.03435997" lon="-2.79038996">
<ele>1396.441</ele>
<time>2011-07-11T16:29:02Z</time>
</trkpt>
<trkpt lat="43.03451998" lon="-2.78936997">
<ele>1413.754</ele>
<time>2011-07-11T16:30:26Z</time>
</trkpt>
<trkpt lat="43.03453004" lon="-2.78890000">
<ele>1418.570</ele>
<time>2011-07-11T16:31:10Z</time>
</trkpt>
<trkpt lat="43.03455996" lon="-2.78890997">
<ele>1418.570</ele>
<time>2011-07-11T16:31:28Z</time>
</trkpt>
<trkpt lat="43.03451998" lon="-2.78785997">
<ele>1428.171</ele>
<time>2011-07-11T16:33:34Z</time>
</trkpt>
<trkpt lat="43.03445997" lon="-2.78627998">
<ele>1450.299</ele>
<time>2011-07-11T16:35:18Z</time>
</trkpt>
<trkpt lat="43.03448997" lon="-2.78558001">
<ele>1457.493</ele>
<time>2011-07-11T16:36:03Z</time>
</trkpt>
<trkpt lat="43.03445997" lon="-2.78519997">
<ele>1461.821</ele>
<time>2011-07-11T16:36:27Z</time>
</trkpt>
<trkpt lat="43.03431001" lon="-2.78404998">
<ele>1474.805</ele>
<time>2011-07-11T16:37:41Z</time>
</trkpt>
<trkpt lat="43.03418001" lon="-2.78339996">
<ele>1481.999</ele>
<time>2011-07-11T16:38:23Z</time>
</trkpt>
<trkpt lat="43.03405001" lon="-2.78291004">
<ele>1484.894</ele>
<time>2011-07-11T16:38:55Z</time>
</trkpt>
<trkpt lat="43.03408999" lon="-2.78279998">
<ele>1485.870</ele>
<time>2011-07-11T16:39:03Z</time>
</trkpt>
<trkpt lat="43.03396996" lon="-2.78210999">
<ele>1487.790</ele>
<time>2011-07-11T16:39:45Z</time>
</trkpt>
<trkpt lat="43.03392998" lon="-2.78164001">
<ele>1489.222</ele>
<time>2011-07-11T16:40:19Z</time>
</trkpt>
<trkpt lat="43.03395001" lon="-2.78153004">
<ele>1489.222</ele>
<time>2011-07-11T16:40:26Z</time>
</trkpt>
<trkpt lat="43.03389997" lon="-2.78138001">
<ele>1489.222</ele>
<time>2011-07-11T16:40:43Z</time>
</trkpt>
<trkpt lat="43.03389000" lon="-2.78134002">
<ele>1489.222</ele>
<time>2011-07-11T16:40:46Z</time>
</trkpt>
<trkpt lat="43.03394004" lon="-2.78128001">
<ele>1489.710</ele>
<time>2011-07-11T16:41:02Z</time>
</trkpt>
<trkpt lat="43.03402000" lon="-2.78125000">
<ele>1489.710</ele>
<time>2011-07-11T16:41:30Z</time>
</trkpt>
<trkpt lat="43.03405001" lon="-2.78128001">
<ele>1490.167</ele>
<time>2011-07-11T16:41:48Z</time>
</trkpt>
<trkpt lat="43.03447003" lon="-2.78191997">
<ele>1480.078</ele>
<time>2011-07-11T16:42:43Z</time>
</trkpt>
<trkpt lat="43.03480002" lon="-2.78243998">
<ele>1474.805</ele>
<time>2011-07-11T16:43:21Z</time>
</trkpt>
<trkpt lat="43.03504997" lon="-2.78281004">
<ele>1466.637</ele>
<time>2011-07-11T16:43:55Z</time>
</trkpt>
<trkpt lat="43.03510998" lon="-2.78295999">
<ele>1463.741</ele>
<time>2011-07-11T16:44:25Z</time>
</trkpt>
<trkpt lat="43.03510998" lon="-2.78295999">
<ele>1461.333</ele>
<time>2011-07-11T16:45:43Z</time>
</trkpt>
<trkpt lat="43.03514997" lon="-2.78295002">
<ele>1461.333</ele>
<time>2011-07-11T16:46:02Z</time>
</trkpt>
<trkpt lat="43.03516002" lon="-2.78298003">
<ele>1463.253</ele>
<time>2011-07-11T16:46:29Z</time>
</trkpt>
<trkpt lat="43.03539002" lon="-2.78322000">
<ele>1458.925</ele>
<time>2011-07-11T16:47:03Z</time>
</trkpt>
<trkpt lat="43.03556998" lon="-2.78354002">
<ele>1454.140</ele>
<time>2011-07-11T16:47:36Z</time>
</trkpt>
<trkpt lat="43.03606996" lon="-2.78426003">
<ele>1436.340</ele>
<time>2011-07-11T16:48:32Z</time>
</trkpt>
<trkpt lat="43.03641002" lon="-2.78463000">
<ele>1421.922</ele>
<time>2011-07-11T16:49:08Z</time>
</trkpt>
<trkpt lat="43.03655997" lon="-2.78483997">
<ele>1416.649</ele>
<time>2011-07-11T16:49:24Z</time>
</trkpt>
<trkpt lat="43.03670003" lon="-2.78492002">
<ele>1410.858</ele>
<time>2011-07-11T16:49:37Z</time>
</trkpt>
<trkpt lat="43.03691000" lon="-2.78499998">
<ele>1405.098</ele>
<time>2011-07-11T16:49:52Z</time>
</trkpt>
<trkpt lat="43.03707998" lon="-2.78511004">
<ele>1398.361</ele>
<time>2011-07-11T16:50:07Z</time>
</trkpt>
<trkpt lat="43.03740000" lon="-2.78525999">
<ele>1383.487</ele>
<time>2011-07-11T16:50:39Z</time>
</trkpt>
<trkpt lat="43.03753998" lon="-2.78529000">
<ele>1378.671</ele>
<time>2011-07-11T16:50:51Z</time>
</trkpt>
<trkpt lat="43.03806997" lon="-2.78558998">
<ele>1359.926</ele>
<time>2011-07-11T16:51:35Z</time>
</trkpt>
<trkpt lat="43.03842997" lon="-2.78574002">
<ele>1348.862</ele>
<time>2011-07-11T16:52:02Z</time>
</trkpt>
<trkpt lat="43.03875997" lon="-2.78597999">
<ele>1339.748</ele>
<time>2011-07-11T16:52:30Z</time>
</trkpt>
<trkpt lat="43.03880003" lon="-2.78604998">
<ele>1336.853</ele>
<time>2011-07-11T16:52:36Z</time>
</trkpt>
<trkpt lat="43.03895996" lon="-2.78620999">
<ele>1331.549</ele>
<time>2011-07-11T16:52:53Z</time>
</trkpt>
<trkpt lat="43.03907001" lon="-2.78624997">
<ele>1327.709</ele>
<time>2011-07-11T16:53:08Z</time>
</trkpt>
<trkpt lat="43.03940001" lon="-2.78660998">
<ele>1316.187</ele>
<time>2011-07-11T16:53:40Z</time>
</trkpt>
<trkpt lat="43.03953001" lon="-2.78670997">
<ele>1312.804</ele>
<time>2011-07-11T16:53:53Z</time>
</trkpt>
<trkpt lat="43.03960998" lon="-2.78679002">
<ele>1310.427</ele>
<time>2011-07-11T16:54:01Z</time>
</trkpt>
<trkpt lat="43.03986001" lon="-2.78685004">
<ele>1302.715</ele>
<time>2011-07-11T16:54:19Z</time>
</trkpt>
<trkpt lat="43.04000996" lon="-2.78680997">
<ele>1300.307</ele>
<time>2011-07-11T16:54:30Z</time>
</trkpt>
<trkpt lat="43.04011004" lon="-2.78682003">
<ele>1297.930</ele>
<time>2011-07-11T16:54:38Z</time>
</trkpt>
<trkpt lat="43.04021004" lon="-2.78676001">
<ele>1294.547</ele>
<time>2011-07-11T16:54:48Z</time>
</trkpt>
<trkpt lat="43.04035001" lon="-2.78680997">
<ele>1289.274</ele>
<time>2011-07-11T16:55:02Z</time>
</trkpt>
<trkpt lat="43.04041003" lon="-2.78689999">
<ele>1286.378</ele>
<time>2011-07-11T16:55:10Z</time>
</trkpt>
<trkpt lat="43.04062000" lon="-2.78700996">
<ele>1279.185</ele>
<time>2011-07-11T16:55:31Z</time>
</trkpt>
<trkpt lat="43.04075000" lon="-2.78705003">
<ele>1276.777</ele>
<time>2011-07-11T16:55:44Z</time>
</trkpt>
<trkpt lat="43.04087003" lon="-2.78716997">
<ele>1271.961</ele>
<time>2011-07-11T16:55:58Z</time>
</trkpt>
<trkpt lat="43.04110003" lon="-2.78726997">
<ele>1266.200</ele>
<time>2011-07-11T16:56:21Z</time>
</trkpt>
<trkpt lat="43.04137001" lon="-2.78738002">
<ele>1261.872</ele>
<time>2011-07-11T16:56:42Z</time>
</trkpt>
<trkpt lat="43.04144000" lon="-2.78748002">
<ele>1259.464</ele>
<time>2011-07-11T16:57:03Z</time>
</trkpt>
<trkpt lat="43.04192003" lon="-2.78778001">
<ele>1245.047</ele>
<time>2011-07-11T16:57:50Z</time>
</trkpt>
<trkpt lat="43.04212002" lon="-2.78797003">
<ele>1235.903</ele>
<time>2011-07-11T16:58:16Z</time>
</trkpt>
<trkpt lat="43.04218004" lon="-2.78801998">
<ele>1232.063</ele>
<time>2011-07-11T16:58:29Z</time>
</trkpt>
<trkpt lat="43.04220996" lon="-2.78801998">
<ele>1225.326</ele>
<time>2011-07-11T16:59:26Z</time>
</trkpt>
<trkpt lat="43.04226997" lon="-2.78808997">
<ele>1222.949</ele>
<time>2011-07-11T16:59:39Z</time>
</trkpt>
<trkpt lat="43.04228003" lon="-2.78817002">
<ele>1222.461</ele>
<time>2011-07-11T16:59:48Z</time>
</trkpt>
<trkpt lat="43.04235002" lon="-2.78830002">
<ele>1220.053</ele>
<time>2011-07-11T17:00:02Z</time>
</trkpt>
<trkpt lat="43.04229998" lon="-2.78854997">
<ele>1216.213</ele>
<time>2011-07-11T17:00:22Z</time>
</trkpt>
<trkpt lat="43.04236997" lon="-2.78872004">
<ele>1208.502</ele>
<time>2011-07-11T17:00:37Z</time>
</trkpt>
<trkpt lat="43.04239998" lon="-2.78900997">
<ele>1198.900</ele>
<time>2011-07-11T17:01:04Z</time>
</trkpt>
<trkpt lat="43.04245002" lon="-2.78908004">
<ele>1196.980</ele>
<time>2011-07-11T17:01:11Z</time>
</trkpt>
<trkpt lat="43.04245999" lon="-2.78919001">
<ele>1195.548</ele>
<time>2011-07-11T17:01:20Z</time>
</trkpt>
<trkpt lat="43.04248002" lon="-2.78935002">
<ele>1190.732</ele>
<time>2011-07-11T17:01:35Z</time>
</trkpt>
<trkpt lat="43.04256996" lon="-2.78945999">
<ele>1184.483</ele>
<time>2011-07-11T17:01:47Z</time>
</trkpt>
<trkpt lat="43.04265001" lon="-2.78956996">
<ele>1183.508</ele>
<time>2011-07-11T17:01:57Z</time>
</trkpt>
<trkpt lat="43.04264003" lon="-2.78966996">
<ele>1180.643</ele>
<time>2011-07-11T17:02:05Z</time>
</trkpt>
<trkpt lat="43.04265998" lon="-2.78975998">
<ele>1177.260</ele>
<time>2011-07-11T17:02:13Z</time>
</trkpt>
<trkpt lat="43.04262000" lon="-2.78985998">
<ele>1177.747</ele>
<time>2011-07-11T17:02:20Z</time>
</trkpt>
<trkpt lat="43.04268002" lon="-2.79010003">
<ele>1166.226</ele>
<time>2011-07-11T17:02:44Z</time>
</trkpt>
<trkpt lat="43.04277004" lon="-2.79014999">
<ele>1161.410</ele>
<time>2011-07-11T17:02:53Z</time>
</trkpt>
<trkpt lat="43.04285998" lon="-2.79031000">
<ele>1158.057</ele>
<time>2011-07-11T17:03:09Z</time>
</trkpt>
<trkpt lat="43.04290004" lon="-2.79034998">
<ele>1155.162</ele>
<time>2011-07-11T17:03:16Z</time>
</trkpt>
<trkpt lat="43.04291002" lon="-2.79040002">
<ele>1151.321</ele>
<time>2011-07-11T17:03:21Z</time>
</trkpt>
<trkpt lat="43.04292996" lon="-2.79051997">
<ele>1146.993</ele>
<time>2011-07-11T17:03:33Z</time>
</trkpt>
<trkpt lat="43.04294002" lon="-2.79069004">
<ele>1141.689</ele>
<time>2011-07-11T17:03:50Z</time>
</trkpt>
<trkpt lat="43.04290004" lon="-2.79082004">
<ele>1139.312</ele>
<time>2011-07-11T17:03:59Z</time>
</trkpt>
<trkpt lat="43.04295997" lon="-2.79096002">
<ele>1135.441</ele>
<time>2011-07-11T17:04:12Z</time>
</trkpt>
<trkpt lat="43.04291002" lon="-2.79123997">
<ele>1129.680</ele>
<time>2011-07-11T17:04:34Z</time>
</trkpt>
<trkpt lat="43.04295000" lon="-2.79132999">
<ele>1127.760</ele>
<time>2011-07-11T17:04:41Z</time>
</trkpt>
<trkpt lat="43.04297003" lon="-2.79149998">
<ele>1120.567</ele>
<time>2011-07-11T17:04:56Z</time>
</trkpt>
<trkpt lat="43.04294002" lon="-2.79152999">
<ele>1118.646</ele>
<time>2011-07-11T17:05:00Z</time>
</trkpt>
<trkpt lat="43.04290004" lon="-2.79181003">
<ele>1111.423</ele>
<time>2011-07-11T17:05:26Z</time>
</trkpt>
<trkpt lat="43.04292996" lon="-2.79194003">
<ele>1113.343</ele>
<time>2011-07-11T17:05:51Z</time>
</trkpt>
<trkpt lat="43.04298000" lon="-2.79207003">
<ele>1108.070</ele>
<time>2011-07-11T17:06:04Z</time>
</trkpt>
<trkpt lat="43.04301999" lon="-2.79215000">
<ele>1101.822</ele>
<time>2011-07-11T17:06:16Z</time>
</trkpt>
<trkpt lat="43.04308997" lon="-2.79231998">
<ele>1106.119</ele>
<time>2011-07-11T17:06:29Z</time>
</trkpt>
<trkpt lat="43.04318000" lon="-2.79244001">
<ele>1106.607</ele>
<time>2011-07-11T17:06:41Z</time>
</trkpt>
<trkpt lat="43.04328997" lon="-2.79258996">
<ele>1098.438</ele>
<time>2011-07-11T17:06:54Z</time>
</trkpt>
<trkpt lat="43.04334998" lon="-2.79270999">
<ele>1091.245</ele>
<time>2011-07-11T17:07:11Z</time>
</trkpt>
<trkpt lat="43.04347998" lon="-2.79283999">
<ele>1089.782</ele>
<time>2011-07-11T17:07:35Z</time>
</trkpt>
<trkpt lat="43.04361996" lon="-2.79310000">
<ele>1080.668</ele>
<time>2011-07-11T17:07:53Z</time>
</trkpt>
<trkpt lat="43.04389003" lon="-2.79359998">
<ele>1070.092</ele>
<time>2011-07-11T17:08:24Z</time>
</trkpt>
<trkpt lat="43.04399002" lon="-2.79382001">
<ele>1061.436</ele>
<time>2011-07-11T17:08:38Z</time>
</trkpt>
<trkpt lat="43.04419999" lon="-2.79405001">
<ele>1062.380</ele>
<time>2011-07-11T17:08:55Z</time>
</trkpt>
<trkpt lat="43.04436000" lon="-2.79422997">
<ele>1056.620</ele>
<time>2011-07-11T17:09:11Z</time>
</trkpt>
<trkpt lat="43.04439998" lon="-2.79432996">
<ele>1054.212</ele>
<time>2011-07-11T17:09:17Z</time>
</trkpt>
<trkpt lat="43.04466996" lon="-2.79440003">
<ele>1058.540</ele>
<time>2011-07-11T17:09:33Z</time>
</trkpt>
<trkpt lat="43.04482997" lon="-2.79461000">
<ele>1054.699</ele>
<time>2011-07-11T17:09:48Z</time>
</trkpt>
<trkpt lat="43.04489996" lon="-2.79476004">
<ele>1052.292</ele>
<time>2011-07-11T17:09:58Z</time>
</trkpt>
<trkpt lat="43.04494003" lon="-2.79487998">
<ele>1050.371</ele>
<time>2011-07-11T17:10:05Z</time>
</trkpt>
<trkpt lat="43.04498001" lon="-2.79510001">
<ele>1052.292</ele>
<time>2011-07-11T17:10:18Z</time>
</trkpt>
<trkpt lat="43.04497004" lon="-2.79524996">
<ele>1053.267</ele>
<time>2011-07-11T17:10:29Z</time>
</trkpt>
<trkpt lat="43.04505000" lon="-2.79563997">
<ele>1047.963</ele>
<time>2011-07-11T17:10:54Z</time>
</trkpt>
<trkpt lat="43.04517003" lon="-2.79602000">
<ele>1038.850</ele>
<time>2011-07-11T17:11:15Z</time>
</trkpt>
<trkpt lat="43.04530003" lon="-2.79627004">
<ele>1030.681</ele>
<time>2011-07-11T17:11:30Z</time>
</trkpt>
<trkpt lat="43.04537002" lon="-2.79654002">
<ele>1023.457</ele>
<time>2011-07-11T17:11:48Z</time>
</trkpt>
<trkpt lat="43.04538997" lon="-2.79668997">
<ele>1016.721</ele>
<time>2011-07-11T17:11:59Z</time>
</trkpt>
<trkpt lat="43.04544001" lon="-2.79678997">
<ele>1010.473</ele>
<time>2011-07-11T17:12:06Z</time>
</trkpt>
<trkpt lat="43.04548997" lon="-2.79681997">
<ele>1006.145</ele>
<time>2011-07-11T17:12:13Z</time>
</trkpt>
<trkpt lat="43.04564000" lon="-2.79665996">
<ele>1009.040</ele>
<time>2011-07-11T17:12:30Z</time>
</trkpt>
<trkpt lat="43.04579004" lon="-2.79635000">
<ele>1008.065</ele>
<time>2011-07-11T17:12:49Z</time>
</trkpt>
<trkpt lat="43.04603001" lon="-2.79596996">
<ele>1011.448</ele>
<time>2011-07-11T17:13:17Z</time>
</trkpt>
<trkpt lat="43.04623998" lon="-2.79575002">
<ele>1010.473</ele>
<time>2011-07-11T17:13:34Z</time>
</trkpt>
<trkpt lat="43.04649001" lon="-2.79566000">
<ele>1010.473</ele>
<time>2011-07-11T17:13:53Z</time>
</trkpt>
<trkpt lat="43.04672998" lon="-2.79575002">
<ele>1010.016</ele>
<time>2011-07-11T17:14:09Z</time>
</trkpt>
<trkpt lat="43.04688999" lon="-2.79591003">
<ele>1006.145</ele>
<time>2011-07-11T17:14:23Z</time>
</trkpt>
<trkpt lat="43.04708999" lon="-2.79599000">
<ele>998.464</ele>
<time>2011-07-11T17:14:37Z</time>
</trkpt>
<trkpt lat="43.04714003" lon="-2.79602998">
<ele>997.031</ele>
<time>2011-07-11T17:14:41Z</time>
</trkpt>
<trkpt lat="43.04740003" lon="-2.79617004">
<ele>998.464</ele>
<time>2011-07-11T17:15:00Z</time>
</trkpt>
<trkpt lat="43.04763003" lon="-2.79635997">
<ele>1002.792</ele>
<time>2011-07-11T17:15:21Z</time>
</trkpt>
<trkpt lat="43.04768996" lon="-2.79661998">
<ele>1006.145</ele>
<time>2011-07-11T17:15:37Z</time>
</trkpt>
<trkpt lat="43.04783002" lon="-2.79691997">
<ele>1006.145</ele>
<time>2011-07-11T17:15:58Z</time>
</trkpt>
<trkpt lat="43.04790999" lon="-2.79720001">
<ele>1011.936</ele>
<time>2011-07-11T17:16:19Z</time>
</trkpt>
<trkpt lat="43.04787998" lon="-2.79747996">
<ele>1020.562</ele>
<time>2011-07-11T17:16:40Z</time>
</trkpt>
<trkpt lat="43.04791996" lon="-2.79763998">
<ele>1023.457</ele>
<time>2011-07-11T17:16:52Z</time>
</trkpt>
<trkpt lat="43.04819003" lon="-2.79838001">
<ele>1020.562</ele>
<time>2011-07-11T17:17:36Z</time>
</trkpt>
<trkpt lat="43.04837996" lon="-2.79874002">
<ele>1022.513</ele>
<time>2011-07-11T17:18:00Z</time>
</trkpt>
<trkpt lat="43.04882999" lon="-2.79917998">
<ele>1027.786</ele>
<time>2011-07-11T17:18:43Z</time>
</trkpt>
<trkpt lat="43.04899997" lon="-2.79956002">
<ele>1028.761</ele>
<time>2011-07-11T17:19:08Z</time>
</trkpt>
<trkpt lat="43.04912997" lon="-2.79996000">
<ele>1035.467</ele>
<time>2011-07-11T17:19:34Z</time>
</trkpt>
<trkpt lat="43.04912000" lon="-2.80035001">
<ele>1036.442</ele>
<time>2011-07-11T17:19:58Z</time>
</trkpt>
<trkpt lat="43.04894004" lon="-2.80045001">
<ele>1039.795</ele>
<time>2011-07-11T17:20:15Z</time>
</trkpt>
<trkpt lat="43.04885002" lon="-2.80068001">
<ele>1045.098</ele>
<time>2011-07-11T17:20:33Z</time>
</trkpt>
<trkpt lat="43.04895001" lon="-2.80094999">
<ele>1047.506</ele>
<time>2011-07-11T17:20:51Z</time>
</trkpt>
<trkpt lat="43.04938001" lon="-2.80139004">
<ele>1050.859</ele>
<time>2011-07-11T17:21:37Z</time>
</trkpt>
<trkpt lat="43.04954999" lon="-2.80163999">
<ele>1056.620</ele>
<time>2011-07-11T17:22:00Z</time>
</trkpt>
<trkpt lat="43.04971000" lon="-2.80190997">
<ele>1061.436</ele>
<time>2011-07-11T17:22:23Z</time>
</trkpt>
<trkpt lat="43.04977999" lon="-2.80210996">
<ele>1059.028</ele>
<time>2011-07-11T17:22:39Z</time>
</trkpt>
<trkpt lat="43.04994998" lon="-2.80232001">
<ele>1072.500</ele>
<time>2011-07-11T17:22:55Z</time>
</trkpt>
<trkpt lat="43.04997998" lon="-2.80236997">
<ele>1072.500</ele>
<time>2011-07-11T17:23:00Z</time>
</trkpt>
<trkpt lat="43.05004000" lon="-2.80265001">
<ele>1075.365</ele>
<time>2011-07-11T17:23:21Z</time>
</trkpt>
<trkpt lat="43.05010999" lon="-2.80307002">
<ele>1083.076</ele>
<time>2011-07-11T17:23:51Z</time>
</trkpt>
<trkpt lat="43.05010999" lon="-2.80333003">
<ele>1084.997</ele>
<time>2011-07-11T17:24:09Z</time>
</trkpt>
<trkpt lat="43.05013999" lon="-2.80369003">
<ele>1084.997</ele>
<time>2011-07-11T17:24:29Z</time>
</trkpt>
<trkpt lat="43.05014997" lon="-2.80403000">
<ele>1087.862</ele>
<time>2011-07-11T17:24:51Z</time>
</trkpt>
<trkpt lat="43.04997998" lon="-2.80487004">
<ele>1097.951</ele>
<time>2011-07-11T17:25:53Z</time>
</trkpt>
<trkpt lat="43.05003002" lon="-2.80517003">
<ele>1100.846</ele>
<time>2011-07-11T17:26:15Z</time>
</trkpt>
<trkpt lat="43.05043998" lon="-2.80548996">
<ele>1105.174</ele>
<time>2011-07-11T17:26:56Z</time>
</trkpt>
<trkpt lat="43.05099000" lon="-2.80574997">
<ele>1115.751</ele>
<time>2011-07-11T17:27:44Z</time>
</trkpt>
<trkpt lat="43.05115999" lon="-2.80603001">
<ele>1119.591</ele>
<time>2011-07-11T17:28:07Z</time>
</trkpt>
<trkpt lat="43.05132000" lon="-2.80633000">
<ele>1123.432</ele>
<time>2011-07-11T17:28:31Z</time>
</trkpt>
<trkpt lat="43.05141002" lon="-2.80662999">
<ele>1129.193</ele>
<time>2011-07-11T17:28:52Z</time>
</trkpt>
<trkpt lat="43.05155997" lon="-2.80728000">
<ele>1134.496</ele>
<time>2011-07-11T17:29:37Z</time>
</trkpt>
<trkpt lat="43.05168997" lon="-2.80760002">
<ele>1136.904</ele>
<time>2011-07-11T17:29:59Z</time>
</trkpt>
<trkpt lat="43.05171001" lon="-2.80796003">
<ele>1140.257</ele>
<time>2011-07-11T17:30:21Z</time>
</trkpt>
<trkpt lat="43.05160004" lon="-2.80827996">
<ele>1144.585</ele>
<time>2011-07-11T17:30:43Z</time>
</trkpt>
<trkpt lat="43.05158000" lon="-2.80866997">
<ele>1146.505</ele>
<time>2011-07-11T17:31:05Z</time>
</trkpt>
<trkpt lat="43.05148001" lon="-2.80888002">
<ele>1147.938</ele>
<time>2011-07-11T17:31:21Z</time>
</trkpt>
<trkpt lat="43.05138999" lon="-2.80918001">
<ele>1149.888</ele>
<time>2011-07-11T17:31:42Z</time>
</trkpt>
<trkpt lat="43.05135000" lon="-2.80951001">
<ele>1152.754</ele>
<time>2011-07-11T17:32:04Z</time>
</trkpt>
<trkpt lat="43.05122000" lon="-2.80967999">
<ele>1156.137</ele>
<time>2011-07-11T17:32:20Z</time>
</trkpt>
<trkpt lat="43.05102998" lon="-2.80987001">
<ele>1158.057</ele>
<time>2011-07-11T17:32:39Z</time>
</trkpt>
<trkpt lat="43.05076000" lon="-2.80987998">
<ele>1163.818</ele>
<time>2011-07-11T17:33:01Z</time>
</trkpt>
<trkpt lat="43.05053000" lon="-2.80993002">
<ele>1164.763</ele>
<time>2011-07-11T17:33:20Z</time>
</trkpt>
<trkpt lat="43.05011996" lon="-2.81023999">
<ele>1173.907</ele>
<time>2011-07-11T17:34:02Z</time>
</trkpt>
<trkpt lat="43.04999004" lon="-2.81053998">
<ele>1177.747</ele>
<time>2011-07-11T17:34:26Z</time>
</trkpt>
<trkpt lat="43.04996003" lon="-2.81069001">
<ele>1179.180</ele>
<time>2011-07-11T17:34:37Z</time>
</trkpt>
<trkpt lat="43.04984998" lon="-2.81102001">
<ele>1183.508</ele>
<time>2011-07-11T17:35:00Z</time>
</trkpt>
<trkpt lat="43.04981000" lon="-2.81134003">
<ele>1185.428</ele>
<time>2011-07-11T17:35:21Z</time>
</trkpt>
<trkpt lat="43.04999004" lon="-2.81186004">
<ele>1190.732</ele>
<time>2011-07-11T17:35:57Z</time>
</trkpt>
<trkpt lat="43.05009004" lon="-2.81227000">
<ele>1196.005</ele>
<time>2011-07-11T17:36:22Z</time>
</trkpt>
<trkpt lat="43.05007998" lon="-2.81259002">
<ele>1199.388</ele>
<time>2011-07-11T17:36:41Z</time>
</trkpt>
<trkpt lat="43.05019003" lon="-2.81283000">
<ele>1200.333</ele>
<time>2011-07-11T17:36:59Z</time>
</trkpt>
<trkpt lat="43.05026002" lon="-2.81292999">
<ele>1199.876</ele>
<time>2011-07-11T17:37:10Z</time>
</trkpt>
<trkpt lat="43.05039003" lon="-2.81318002">
<ele>1196.980</ele>
<time>2011-07-11T17:37:28Z</time>
</trkpt>
<trkpt lat="43.05043998" lon="-2.81335001">
<ele>1194.084</ele>
<time>2011-07-11T17:37:42Z</time>
</trkpt>
<trkpt lat="43.05056001" lon="-2.81365000">
<ele>1186.404</ele>
<time>2011-07-11T17:38:02Z</time>
</trkpt>
<trkpt lat="43.05073000" lon="-2.81416004">
<ele>1174.394</ele>
<time>2011-07-11T17:38:37Z</time>
</trkpt>
<trkpt lat="43.05083997" lon="-2.81433002">
<ele>1171.499</ele>
<time>2011-07-11T17:38:52Z</time>
</trkpt>
<trkpt lat="43.05096997" lon="-2.81446002">
<ele>1167.171</ele>
<time>2011-07-11T17:39:05Z</time>
</trkpt>
<trkpt lat="43.05103996" lon="-2.81462003">
<ele>1163.330</ele>
<time>2011-07-11T17:39:27Z</time>
</trkpt>
<trkpt lat="43.05118999" lon="-2.81483000">
<ele>1159.490</ele>
<time>2011-07-11T17:39:44Z</time>
</trkpt>
<trkpt lat="43.05139996" lon="-2.81506000">
<ele>1156.594</ele>
<time>2011-07-11T17:40:03Z</time>
</trkpt>
<trkpt lat="43.05145000" lon="-2.81535001">
<ele>1151.809</ele>
<time>2011-07-11T17:40:20Z</time>
</trkpt>
<trkpt lat="43.05151999" lon="-2.81633003">
<ele>1136.416</ele>
<time>2011-07-11T17:41:13Z</time>
</trkpt>
<trkpt lat="43.05157003" lon="-2.81667997">
<ele>1128.735</ele>
<time>2011-07-11T17:41:32Z</time>
</trkpt>
<trkpt lat="43.05171001" lon="-2.81722002">
<ele>1115.751</ele>
<time>2011-07-11T17:42:04Z</time>
</trkpt>
<trkpt lat="43.05184999" lon="-2.81758999">
<ele>1108.070</ele>
<time>2011-07-11T17:42:28Z</time>
</trkpt>
<trkpt lat="43.05224000" lon="-2.81814002">
<ele>1093.622</ele>
<time>2011-07-11T17:43:10Z</time>
</trkpt>
<trkpt lat="43.05219004" lon="-2.81836004">
<ele>1088.349</ele>
<time>2011-07-11T17:43:24Z</time>
</trkpt>
<trkpt lat="43.05207001" lon="-2.81847001">
<ele>1085.454</ele>
<time>2011-07-11T17:43:36Z</time>
</trkpt>
<trkpt lat="43.05207998" lon="-2.81860999">
<ele>1081.613</ele>
<time>2011-07-11T17:43:48Z</time>
</trkpt>
<trkpt lat="43.05203003" lon="-2.81867000">
<ele>1081.126</ele>
<time>2011-07-11T17:45:49Z</time>
</trkpt>
<trkpt lat="43.05198996" lon="-2.81882004">
<ele>1077.773</ele>
<time>2011-07-11T17:46:06Z</time>
</trkpt>
<trkpt lat="43.05183004" lon="-2.81883001">
<ele>1073.932</ele>
<time>2011-07-11T17:46:17Z</time>
</trkpt>
<trkpt lat="43.05155000" lon="-2.81900000">
<ele>1065.764</ele>
<time>2011-07-11T17:46:37Z</time>
</trkpt>
<trkpt lat="43.05115999" lon="-2.81929001">
<ele>1065.276</ele>
<time>2011-07-11T17:47:10Z</time>
</trkpt>
<trkpt lat="43.05102998" lon="-2.81929001">
<ele>1063.356</ele>
<time>2011-07-11T17:47:23Z</time>
</trkpt>
<trkpt lat="43.05076998" lon="-2.81936000">
<ele>1058.083</ele>
<time>2011-07-11T17:47:41Z</time>
</trkpt>
<trkpt lat="43.05059002" lon="-2.81938003">
<ele>1054.699</ele>
<time>2011-07-11T17:47:57Z</time>
</trkpt>
<trkpt lat="43.05036999" lon="-2.81951004">
<ele>1052.779</ele>
<time>2011-07-11T17:48:14Z</time>
</trkpt>
<trkpt lat="43.05023002" lon="-2.81961003">
<ele>1049.426</ele>
<time>2011-07-11T17:48:26Z</time>
</trkpt>
<trkpt lat="43.04986004" lon="-2.82005000">
<ele>1043.178</ele>
<time>2011-07-11T17:49:03Z</time>
</trkpt>
<trkpt lat="43.04971998" lon="-2.82028997">
<ele>1040.770</ele>
<time>2011-07-11T17:49:21Z</time>
</trkpt>
<trkpt lat="43.04968997" lon="-2.82064000">
<ele>1035.954</ele>
<time>2011-07-11T17:49:43Z</time>
</trkpt>
<trkpt lat="43.04968997" lon="-2.82103001">
<ele>1034.522</ele>
<time>2011-07-11T17:50:19Z</time>
</trkpt>
<trkpt lat="43.04976004" lon="-2.82133000">
<ele>1033.546</ele>
<time>2011-07-11T17:50:40Z</time>
</trkpt>
<trkpt lat="43.04976004" lon="-2.82136001">
<ele>1028.761</ele>
<time>2011-07-11T17:51:11Z</time>
</trkpt>
<trkpt lat="43.04971998" lon="-2.82143997">
<ele>1030.194</ele>
<time>2011-07-11T17:51:31Z</time>
</trkpt>
<trkpt lat="43.04963004" lon="-2.82198999">
<ele>1031.626</ele>
<time>2011-07-11T17:51:45Z</time>
</trkpt>
<trkpt lat="43.04948998" lon="-2.82209996">
<ele>1032.114</ele>
<time>2011-07-11T17:51:51Z</time>
</trkpt>
<trkpt lat="43.04935997" lon="-2.82215998">
<ele>1025.865</ele>
<time>2011-07-11T17:51:57Z</time>
</trkpt>
<trkpt lat="43.04947003" lon="-2.82260003">
<ele>1024.433</ele>
<time>2011-07-11T17:52:08Z</time>
</trkpt>
<trkpt lat="43.04973003" lon="-2.82261997">
<ele>1029.218</ele>
<time>2011-07-11T17:52:17Z</time>
</trkpt>
<trkpt lat="43.05004000" lon="-2.82263003">
<ele>1031.626</ele>
<time>2011-07-11T17:52:28Z</time>
</trkpt>
<trkpt lat="43.05027000" lon="-2.82278996">
<ele>1031.138</ele>
<time>2011-07-11T17:52:37Z</time>
</trkpt>
<trkpt lat="43.05095002" lon="-2.82290999">
<ele>1033.546</ele>
<time>2011-07-11T17:52:58Z</time>
</trkpt>
<trkpt lat="43.05128999" lon="-2.82303002">
<ele>1027.298</ele>
<time>2011-07-11T17:53:10Z</time>
</trkpt>
<trkpt lat="43.05200002" lon="-2.82326002">
<ele>1016.721</ele>
<time>2011-07-11T17:53:24Z</time>
</trkpt>
<trkpt lat="43.05224997" lon="-2.82339002">
<ele>1008.553</ele>
<time>2011-07-11T17:53:29Z</time>
</trkpt>
<trkpt lat="43.05253001" lon="-2.82340997">
<ele>998.464</ele>
<time>2011-07-11T17:53:35Z</time>
</trkpt>
<trkpt lat="43.05276998" lon="-2.82330000">
<ele>996.056</ele>
<time>2011-07-11T17:53:40Z</time>
</trkpt>
<trkpt lat="43.05308003" lon="-2.82356001">
<ele>986.942</ele>
<time>2011-07-11T17:53:48Z</time>
</trkpt>
<trkpt lat="43.05311004" lon="-2.82363997">
<ele>988.375</ele>
<time>2011-07-11T17:53:49Z</time>
</trkpt>
<trkpt lat="43.05332000" lon="-2.82406996">
<ele>982.127</ele>
<time>2011-07-11T17:53:59Z</time>
</trkpt>
<trkpt lat="43.05362997" lon="-2.82435997">
<ele>973.958</ele>
<time>2011-07-11T17:54:11Z</time>
</trkpt>
<trkpt lat="43.05401998" lon="-2.82493003">
<ele>967.710</ele>
<time>2011-07-11T17:54:27Z</time>
</trkpt>
<trkpt lat="43.05416004" lon="-2.82510001">
<ele>968.654</ele>
<time>2011-07-11T17:54:32Z</time>
</trkpt>
<trkpt lat="43.05456002" lon="-2.82484998">
<ele>971.550</ele>
<time>2011-07-11T17:54:45Z</time>
</trkpt>
<trkpt lat="43.05495003" lon="-2.82487001">
<ele>971.550</ele>
<time>2011-07-11T17:54:58Z</time>
</trkpt>
<trkpt lat="43.05521004" lon="-2.82500002">
<ele>965.302</ele>
<time>2011-07-11T17:55:08Z</time>
</trkpt>
<trkpt lat="43.05533996" lon="-2.82513002">
<ele>963.869</ele>
<time>2011-07-11T17:55:12Z</time>
</trkpt>
<trkpt lat="43.05580004" lon="-2.82572002">
<ele>958.078</ele>
<time>2011-07-11T17:55:27Z</time>
</trkpt>
<trkpt lat="43.05601998" lon="-2.82599998">
<ele>951.829</ele>
<time>2011-07-11T17:55:34Z</time>
</trkpt>
<trkpt lat="43.05643003" lon="-2.82628002">
<ele>941.253</ele>
<time>2011-07-11T17:55:46Z</time>
</trkpt>
<trkpt lat="43.05661996" lon="-2.82671001">
<ele>932.627</ele>
<time>2011-07-11T17:56:00Z</time>
</trkpt>
<trkpt lat="43.05673999" lon="-2.82710002">
<ele>927.324</ele>
<time>2011-07-11T17:56:14Z</time>
</trkpt>
<trkpt lat="43.05686999" lon="-2.82762003">
<ele>924.916</ele>
<time>2011-07-11T17:56:30Z</time>
</trkpt>
<trkpt lat="43.05706001" lon="-2.82816997">
<ele>919.155</ele>
<time>2011-07-11T17:56:47Z</time>
</trkpt>
<trkpt lat="43.05732002" lon="-2.82825999">
<ele>919.643</ele>
<time>2011-07-11T17:56:56Z</time>
</trkpt>
<trkpt lat="43.05755999" lon="-2.82875997">
<ele>913.882</ele>
<time>2011-07-11T17:57:09Z</time>
</trkpt>
<trkpt lat="43.05768999" lon="-2.82894001">
<ele>910.011</ele>
<time>2011-07-11T17:57:13Z</time>
</trkpt>
<trkpt lat="43.05795997" lon="-2.82920999">
<ele>900.410</ele>
<time>2011-07-11T17:57:20Z</time>
</trkpt>
<trkpt lat="43.05856003" lon="-2.82999001">
<ele>877.336</ele>
<time>2011-07-11T17:57:36Z</time>
</trkpt>
<trkpt lat="43.05896999" lon="-2.83054003">
<ele>867.735</ele>
<time>2011-07-11T17:57:52Z</time>
</trkpt>
<trkpt lat="43.05902003" lon="-2.83088998">
<ele>864.840</ele>
<time>2011-07-11T17:57:58Z</time>
</trkpt>
<trkpt lat="43.05928004" lon="-2.83147998">
<ele>854.751</ele>
<time>2011-07-11T17:58:09Z</time>
</trkpt>
<trkpt lat="43.05942002" lon="-2.83170998">
<ele>851.855</ele>
<time>2011-07-11T17:58:13Z</time>
</trkpt>
<trkpt lat="43.05965999" lon="-2.83228003">
<ele>839.846</ele>
<time>2011-07-11T17:58:22Z</time>
</trkpt>
<trkpt lat="43.05972998" lon="-2.83252001">
<ele>835.518</ele>
<time>2011-07-11T17:58:26Z</time>
</trkpt>
<trkpt lat="43.05974004" lon="-2.83289996">
<ele>830.245</ele>
<time>2011-07-11T17:58:31Z</time>
</trkpt>
<trkpt lat="43.05968002" lon="-2.83317002">
<ele>826.861</ele>
<time>2011-07-11T17:58:35Z</time>
</trkpt>
<trkpt lat="43.05962001" lon="-2.83335996">
<ele>824.454</ele>
<time>2011-07-11T17:58:39Z</time>
</trkpt>
<trkpt lat="43.05962998" lon="-2.83354998">
<ele>823.509</ele>
<time>2011-07-11T17:58:42Z</time>
</trkpt>
<trkpt lat="43.05978002" lon="-2.83397997">
<ele>821.588</ele>
<time>2011-07-11T17:58:49Z</time>
</trkpt>
<trkpt lat="43.06002997" lon="-2.83469000">
<ele>815.340</ele>
<time>2011-07-11T17:59:03Z</time>
</trkpt>
<trkpt lat="43.06008001" lon="-2.83510004">
<ele>811.957</ele>
<time>2011-07-11T17:59:09Z</time>
</trkpt>
<trkpt lat="43.06030003" lon="-2.83528000">
<ele>810.036</ele>
<time>2011-07-11T17:59:18Z</time>
</trkpt>
<trkpt lat="43.06030003" lon="-2.83525997">
<ele>807.659</ele>
<time>2011-07-11T17:59:33Z</time>
</trkpt>
<trkpt lat="43.06030003" lon="-2.83528000">
<ele>861.487</ele>
<time>2011-07-12T16:00:06Z</time>
</trkpt>
<trkpt lat="43.06028000" lon="-2.83580999">
<ele>813.907</ele>
<time>2011-02-07T14:40:00Z</time>
</trkpt>
<trkpt lat="43.06034002" lon="-2.83602004">
<ele>814.365</ele>
<time>2011-02-07T14:39:38Z</time>
</trkpt>
<trkpt lat="43.06043004" lon="-2.83625004">
<ele>820.156</ele>
<time>2011-02-07T14:39:22Z</time>
</trkpt>
<trkpt lat="43.06076003" lon="-2.83682001">
<ele>816.285</ele>
<time>2011-02-07T14:38:47Z</time>
</trkpt>
<trkpt lat="43.06066004" lon="-2.83745997">
<ele>822.076</ele>
<time>2011-02-07T14:37:57Z</time>
</trkpt>
<trkpt lat="43.06017003" lon="-2.83872999">
<ele>833.110</ele>
<time>2011-02-07T14:35:41Z</time>
</trkpt>
<trkpt lat="43.05988002" lon="-2.83978997">
<ele>833.110</ele>
<time>2011-02-07T14:34:49Z</time>
</trkpt>
<trkpt lat="43.05974004" lon="-2.84007998">
<ele>835.518</ele>
<time>2011-02-07T14:34:34Z</time>
</trkpt>
<trkpt lat="43.05959000" lon="-2.84030001">
<ele>833.110</ele>
<time>2011-02-07T14:34:19Z</time>
</trkpt>
<trkpt lat="43.05936998" lon="-2.84043998">
<ele>837.926</ele>
<time>2011-02-07T14:34:04Z</time>
</trkpt>
<trkpt lat="43.05873999" lon="-2.84109000">
<ele>843.686</ele>
<time>2011-02-07T14:33:13Z</time>
</trkpt>
<trkpt lat="43.05860999" lon="-2.84198997">
<ele>842.254</ele>
<time>2011-02-07T14:32:28Z</time>
</trkpt>
<trkpt lat="43.05867000" lon="-2.84256002">
<ele>837.926</ele>
<time>2011-02-07T14:31:56Z</time>
</trkpt>
<trkpt lat="43.05838997" lon="-2.84335001">
<ele>839.846</ele>
<time>2011-02-07T14:31:15Z</time>
</trkpt>
<trkpt lat="43.05840002" lon="-2.84355001">
<ele>839.846</ele>
<time>2011-02-07T14:31:00Z</time>
</trkpt>
<trkpt lat="43.05837002" lon="-2.84358001">
<ele>842.254</ele>
<time>2011-02-07T14:30:40Z</time>
</trkpt>
<trkpt lat="43.05838997" lon="-2.84367003">
<ele>842.254</ele>
<time>2011-02-07T14:30:23Z</time>
</trkpt>
<trkpt lat="43.05831998" lon="-2.84382996">
<ele>845.149</ele>
<time>2011-02-07T14:30:12Z</time>
</trkpt>
<trkpt lat="43.05828997" lon="-2.84436003">
<ele>846.094</ele>
<time>2011-02-07T14:29:45Z</time>
</trkpt>
<trkpt lat="43.05814999" lon="-2.84480000">
<ele>855.238</ele>
<time>2011-02-07T14:29:20Z</time>
</trkpt>
<trkpt lat="43.05820003" lon="-2.84493000">
<ele>851.398</ele>
<time>2011-02-07T14:28:29Z</time>
</trkpt>
<trkpt lat="43.05811998" lon="-2.84535999">
<ele>851.398</ele>
<time>2011-02-07T14:28:08Z</time>
</trkpt>
<trkpt lat="43.05812996" lon="-2.84588998">
<ele>860.024</ele>
<time>2011-02-07T14:27:40Z</time>
</trkpt>
<trkpt lat="43.05804002" lon="-2.84621000">
<ele>870.143</ele>
<time>2011-02-07T14:27:24Z</time>
</trkpt>
<trkpt lat="43.05792997" lon="-2.84670001">
<ele>865.815</ele>
<time>2011-02-07T14:26:56Z</time>
</trkpt>
<trkpt lat="43.05805997" lon="-2.84692003">
<ele>868.223</ele>
<time>2011-02-07T14:26:38Z</time>
</trkpt>
<trkpt lat="43.05827002" lon="-2.84723997">
<ele>863.895</ele>
<time>2011-02-07T14:26:08Z</time>
</trkpt>
<trkpt lat="43.05833003" lon="-2.84730996">
<ele>858.103</ele>
<time>2011-02-07T14:25:56Z</time>
</trkpt>
<trkpt lat="43.05854998" lon="-2.84746997">
<ele>854.263</ele>
<time>2011-02-07T14:25:42Z</time>
</trkpt>
<trkpt lat="43.05850002" lon="-2.84749000">
<ele>858.591</ele>
<time>2011-02-07T14:25:18Z</time>
</trkpt>
<trkpt lat="43.05846004" lon="-2.84758002">
<ele>865.327</ele>
<time>2011-02-07T14:24:58Z</time>
</trkpt>
<trkpt lat="43.05847001" lon="-2.84782000">
<ele>869.655</ele>
<time>2011-02-07T14:24:46Z</time>
</trkpt>
<trkpt lat="43.05857001" lon="-2.84801002">
<ele>869.168</ele>
<time>2011-02-07T14:24:35Z</time>
</trkpt>
<trkpt lat="43.05857998" lon="-2.84831998">
<ele>870.143</ele>
<time>2011-02-07T14:24:15Z</time>
</trkpt>
<trkpt lat="43.05864997" lon="-2.84858996">
<ele>871.576</ele>
<time>2011-02-07T14:24:02Z</time>
</trkpt>
<trkpt lat="43.05876003" lon="-2.84874000">
<ele>876.391</ele>
<time>2011-02-07T14:23:53Z</time>
</trkpt>
<trkpt lat="43.05889003" lon="-2.84952999">
<ele>896.569</ele>
<time>2011-02-07T14:23:05Z</time>
</trkpt>
<trkpt lat="43.05910997" lon="-2.84962999">
<ele>908.578</ele>
<time>2011-02-07T14:22:42Z</time>
</trkpt>
<trkpt lat="43.05929001" lon="-2.84982000">
<ele>915.802</ele>
<time>2011-02-07T14:22:25Z</time>
</trkpt>
<trkpt lat="43.05925003" lon="-2.84988999">
<ele>918.667</ele>
<time>2011-02-07T14:22:18Z</time>
</trkpt>
<trkpt lat="43.05917996" lon="-2.84992000">
<ele>918.667</ele>
<time>2011-02-07T14:21:28Z</time>
</trkpt>
<trkpt lat="43.05913998" lon="-2.85005998">
<ele>923.971</ele>
<time>2011-02-07T14:21:11Z</time>
</trkpt>
<trkpt lat="43.05916999" lon="-2.85064001">
<ele>936.955</ele>
<time>2011-02-07T14:20:23Z</time>
</trkpt>
<trkpt lat="43.05956997" lon="-2.85097000">
<ele>942.716</ele>
<time>2011-02-07T14:19:44Z</time>
</trkpt>
<trkpt lat="43.05968002" lon="-2.85106002">
<ele>937.412</ele>
<time>2011-02-07T14:19:33Z</time>
</trkpt>
<trkpt lat="43.05982000" lon="-2.85103999">
<ele>943.661</ele>
<time>2011-02-07T14:19:14Z</time>
</trkpt>
<trkpt lat="43.05992000" lon="-2.85110001">
<ele>943.204</ele>
<time>2011-02-07T14:19:04Z</time>
</trkpt>
<trkpt lat="43.06028998" lon="-2.85146001">
<ele>940.308</ele>
<time>2011-02-07T14:18:29Z</time>
</trkpt>
<trkpt lat="43.06054998" lon="-2.85199000">
<ele>936.955</ele>
<time>2011-02-07T14:18:00Z</time>
</trkpt>
<trkpt lat="43.06053003" lon="-2.85222997">
<ele>942.228</ele>
<time>2011-02-07T14:17:48Z</time>
</trkpt>
<trkpt lat="43.06057001" lon="-2.85232997">
<ele>947.989</ele>
<time>2011-02-07T14:17:40Z</time>
</trkpt>
<trkpt lat="43.06067999" lon="-2.85237003">
<ele>951.829</ele>
<time>2011-02-07T14:17:34Z</time>
</trkpt>
<trkpt lat="43.06084997" lon="-2.85251001">
<ele>949.452</ele>
<time>2011-02-07T14:16:56Z</time>
</trkpt>
<trkpt lat="43.06091996" lon="-2.85270003">
<ele>952.317</ele>
<time>2011-02-07T14:16:45Z</time>
</trkpt>
<trkpt lat="43.06103999" lon="-2.85273003">
<ele>956.645</ele>
<time>2011-02-07T14:16:34Z</time>
</trkpt>
<trkpt lat="43.06106002" lon="-2.85284000">
<ele>958.078</ele>
<time>2011-02-07T14:16:27Z</time>
</trkpt>
<trkpt lat="43.06116002" lon="-2.85294000">
<ele>958.566</ele>
<time>2011-02-07T14:16:19Z</time>
</trkpt>
<trkpt lat="43.06117997" lon="-2.85313999">
<ele>957.621</ele>
<time>2011-02-07T14:16:06Z</time>
</trkpt>
<trkpt lat="43.06150996" lon="-2.85402001">
<ele>976.823</ele>
<time>2011-02-07T14:15:14Z</time>
</trkpt>
<trkpt lat="43.06162999" lon="-2.85419997">
<ele>978.286</ele>
<time>2011-02-07T14:15:03Z</time>
</trkpt>
<trkpt lat="43.06182998" lon="-2.85441002">
<ele>986.455</ele>
<time>2011-02-07T14:14:45Z</time>
</trkpt>
<trkpt lat="43.06228001" lon="-2.85491000">
<ele>990.783</ele>
<time>2011-02-07T14:14:10Z</time>
</trkpt>
<trkpt lat="43.06254001" lon="-2.85531996">
<ele>995.111</ele>
<time>2011-02-07T14:13:41Z</time>
</trkpt>
<trkpt lat="43.06264001" lon="-2.85573000">
<ele>1001.359</ele>
<time>2011-02-07T14:13:18Z</time>
</trkpt>
<trkpt lat="43.06267002" lon="-2.85621003">
<ele>1009.528</ele>
<time>2011-02-07T14:12:52Z</time>
</trkpt>
<trkpt lat="43.06263003" lon="-2.85635001">
<ele>1011.936</ele>
<time>2011-02-07T14:12:45Z</time>
</trkpt>
<trkpt lat="43.06261998" lon="-2.85672996">
<ele>1008.065</ele>
<time>2011-02-07T14:12:28Z</time>
</trkpt>
<trkpt lat="43.06264998" lon="-2.85683004">
<ele>1008.065</ele>
<time>2011-02-07T14:12:20Z</time>
</trkpt>
<trkpt lat="43.06260003" lon="-2.85703003">
<ele>1017.697</ele>
<time>2011-02-07T14:12:06Z</time>
</trkpt>
<trkpt lat="43.06264998" lon="-2.85720002">
<ele>1019.617</ele>
<time>2011-02-07T14:10:59Z</time>
</trkpt>
<trkpt lat="43.06297998" lon="-2.85770000">
<ele>1022.970</ele>
<time>2011-02-07T14:10:15Z</time>
</trkpt>
<trkpt lat="43.06309003" lon="-2.85780997">
<ele>1026.810</ele>
<time>2011-02-07T14:10:01Z</time>
</trkpt>
<trkpt lat="43.06337996" lon="-2.85795003">
<ele>1027.786</ele>
<time>2011-02-07T14:08:20Z</time>
</trkpt>
<trkpt lat="43.06359999" lon="-2.85818003">
<ele>1029.706</ele>
<time>2011-02-07T14:07:27Z</time>
</trkpt>
<trkpt lat="43.06391004" lon="-2.85839997">
<ele>1030.681</ele>
<time>2011-02-07T14:07:08Z</time>
</trkpt>
<trkpt lat="43.06491000" lon="-2.85884002">
<ele>1030.681</ele>
<time>2011-02-07T14:06:23Z</time>
</trkpt>
<trkpt lat="43.06537000" lon="-2.85920002">
<ele>1028.273</ele>
<time>2011-02-07T14:06:02Z</time>
</trkpt>
<trkpt lat="43.06569999" lon="-2.85979003">
<ele>1024.433</ele>
<time>2011-02-07T14:05:40Z</time>
</trkpt>
<trkpt lat="43.06655997" lon="-2.86184996">
<ele>1000.872</ele>
<time>2011-02-07T14:04:27Z</time>
</trkpt>
<trkpt lat="43.06684001" lon="-2.86225003">
<ele>998.952</ele>
<time>2011-02-07T14:04:10Z</time>
</trkpt>
<trkpt lat="43.06776999" lon="-2.86268002">
<ele>994.623</ele>
<time>2011-02-07T14:03:30Z</time>
</trkpt>
<trkpt lat="43.06786001" lon="-2.86274004">
<ele>992.703</ele>
<time>2011-02-07T14:03:16Z</time>
</trkpt>
<trkpt lat="43.06867003" lon="-2.86302997">
<ele>1009.040</ele>
<time>2011-02-07T14:02:21Z</time>
</trkpt>
<trkpt lat="43.06868998" lon="-2.86310004">
<ele>1009.528</ele>
<time>2011-02-07T14:01:20Z</time>
</trkpt>
<trkpt lat="43.06867003" lon="-2.86308001">
<ele>1006.632</ele>
<time>2011-02-07T14:00:11Z</time>
</trkpt>
<trkpt lat="43.06871999" lon="-2.86315997">
<ele>1006.632</ele>
<time>2011-02-07T13:59:51Z</time>
</trkpt>
<trkpt lat="43.06898997" lon="-2.86344999">
<ele>998.952</ele>
<time>2011-02-07T13:59:16Z</time>
</trkpt>
<trkpt lat="43.06970000" lon="-2.86403999">
<ele>980.206</ele>
<time>2011-02-07T13:58:04Z</time>
</trkpt>
<trkpt lat="43.07000997" lon="-2.86436001">
<ele>972.525</ele>
<time>2011-02-07T13:57:27Z</time>
</trkpt>
<trkpt lat="43.07130002" lon="-2.86489997">
<ele>934.547</ele>
<time>2011-02-07T13:55:25Z</time>
</trkpt>
<trkpt lat="43.07148996" lon="-2.86492998">
<ele>929.244</ele>
<time>2011-02-07T13:55:09Z</time>
</trkpt>
<trkpt lat="43.07207996" lon="-2.86512000">
<ele>917.722</ele>
<time>2011-02-07T13:54:25Z</time>
</trkpt>
<trkpt lat="43.07284003" lon="-2.86563003">
<ele>909.066</ele>
<time>2011-02-07T13:53:02Z</time>
</trkpt>
<trkpt lat="43.07301999" lon="-2.86597000">
<ele>904.250</ele>
<time>2011-02-07T13:52:27Z</time>
</trkpt>
<trkpt lat="43.07324999" lon="-2.86617997">
<ele>898.977</ele>
<time>2011-02-07T13:52:06Z</time>
</trkpt>
<trkpt lat="43.07356004" lon="-2.86617000">
<ele>893.674</ele>
<time>2011-02-07T13:51:44Z</time>
</trkpt>
<trkpt lat="43.07384997" lon="-2.86622004">
<ele>888.401</ele>
<time>2011-02-07T13:51:22Z</time>
</trkpt>
<trkpt lat="43.07507004" lon="-2.86695999">
<ele>865.815</ele>
<time>2011-02-07T13:49:47Z</time>
</trkpt>
<trkpt lat="43.07577998" lon="-2.86722997">
<ele>857.159</ele>
<time>2011-02-07T13:48:59Z</time>
</trkpt>
<trkpt lat="43.07660996" lon="-2.86761998">
<ele>852.343</ele>
<time>2011-02-07T13:48:01Z</time>
</trkpt>
<trkpt lat="43.07679998" lon="-2.86777999">
<ele>852.830</ele>
<time>2011-02-07T13:47:48Z</time>
</trkpt>
<trkpt lat="43.07768997" lon="-2.86833999">
<ele>858.591</ele>
<time>2011-02-07T13:46:47Z</time>
</trkpt>
<trkpt lat="43.07771000" lon="-2.86840000">
<ele>855.696</ele>
<time>2011-02-07T13:45:38Z</time>
</trkpt>
<trkpt lat="43.07814997" lon="-2.86906997">
<ele>851.855</ele>
<time>2011-02-07T13:44:57Z</time>
</trkpt>
<trkpt lat="43.07834996" lon="-2.86928999">
<ele>852.343</ele>
<time>2011-02-07T13:44:16Z</time>
</trkpt>
<trkpt lat="43.07881004" lon="-2.86985996">
<ele>839.358</ele>
<time>2011-02-07T13:43:09Z</time>
</trkpt>
<trkpt lat="43.07928002" lon="-2.87046002">
<ele>835.518</ele>
<time>2011-02-07T13:42:30Z</time>
</trkpt>
<trkpt lat="43.07991997" lon="-2.87105002">
<ele>828.782</ele>
<time>2011-02-07T13:41:42Z</time>
</trkpt>
<trkpt lat="43.08032004" lon="-2.87168001">
<ele>825.429</ele>
<time>2011-02-07T13:41:05Z</time>
</trkpt>
<trkpt lat="43.08075003" lon="-2.87220002">
<ele>824.454</ele>
<time>2011-02-07T13:40:30Z</time>
</trkpt>
<trkpt lat="43.08115002" lon="-2.87283998">
<ele>817.748</ele>
<time>2011-02-07T13:39:51Z</time>
</trkpt>
<trkpt lat="43.08131003" lon="-2.87316998">
<ele>815.340</ele>
<time>2011-02-07T13:39:33Z</time>
</trkpt>
<trkpt lat="43.08139997" lon="-2.87359997">
<ele>810.524</ele>
<time>2011-02-07T13:39:13Z</time>
</trkpt>
<trkpt lat="43.08191000" lon="-2.87467000">
<ele>803.331</ele>
<time>2011-02-07T13:37:50Z</time>
</trkpt>
<trkpt lat="43.08213003" lon="-2.87545002">
<ele>795.162</ele>
<time>2011-02-07T13:36:52Z</time>
</trkpt>
<trkpt lat="43.08276999" lon="-2.87637002">
<ele>787.451</ele>
<time>2011-02-07T13:35:39Z</time>
</trkpt>
<trkpt lat="43.08302002" lon="-2.87742999">
<ele>772.089</ele>
<time>2011-02-07T13:34:40Z</time>
</trkpt>
<trkpt lat="43.08318003" lon="-2.87774004">
<ele>766.785</ele>
<time>2011-02-07T13:34:20Z</time>
</trkpt>
<trkpt lat="43.08322999" lon="-2.87807004">
<ele>761.970</ele>
<time>2011-02-07T13:34:01Z</time>
</trkpt>
<trkpt lat="43.08321004" lon="-2.87822996">
<ele>758.617</ele>
<time>2011-02-07T13:33:51Z</time>
</trkpt>
<trkpt lat="43.08342000" lon="-2.87948004">
<ele>737.951</ele>
<time>2011-02-07T13:32:39Z</time>
</trkpt>
<trkpt lat="43.08334004" lon="-2.88307001">
<ele>677.388</ele>
<time>2011-02-07T13:28:24Z</time>
</trkpt>
<trkpt lat="43.08339000" lon="-2.88396000">
<ele>666.811</ele>
<time>2011-02-07T13:27:33Z</time>
</trkpt>
<trkpt lat="43.08345999" lon="-2.88425001">
<ele>661.538</ele>
<time>2011-02-07T13:27:16Z</time>
</trkpt>
<trkpt lat="43.08339997" lon="-2.88428999">
<ele>661.538</ele>
<time>2011-02-07T13:24:51Z</time>
</trkpt>
<trkpt lat="43.08369996" lon="-2.88474999">
<ele>652.394</ele>
<time>2011-02-07T13:24:05Z</time>
</trkpt>
<trkpt lat="43.08391999" lon="-2.88481001">
<ele>648.553</ele>
<time>2011-02-07T13:23:45Z</time>
</trkpt>
<trkpt lat="43.08403004" lon="-2.88491998">
<ele>646.633</ele>
<time>2011-02-07T13:23:30Z</time>
</trkpt>
<trkpt lat="43.08404001" lon="-2.88507999">
<ele>644.713</ele>
<time>2011-02-07T13:23:20Z</time>
</trkpt>
<trkpt lat="43.08407002" lon="-2.88507001">
<ele>640.842</ele>
<time>2011-02-07T13:22:54Z</time>
</trkpt>
<trkpt lat="43.08403004" lon="-2.88510002">
<ele>639.409</ele>
<time>2011-02-07T13:22:40Z</time>
</trkpt>
<trkpt lat="43.08401998" lon="-2.88510002">
<ele>643.250</ele>
<time>2011-02-07T13:22:24Z</time>
</trkpt>
<trkpt lat="43.08400003" lon="-2.88507001">
<ele>639.897</ele>
<time>2011-02-07T13:21:45Z</time>
</trkpt>
<trkpt lat="43.08403004" lon="-2.88514998">
<ele>634.136</ele>
<time>2011-02-07T13:21:11Z</time>
</trkpt>
<trkpt lat="43.08400003" lon="-2.88511997">
<ele>642.793</ele>
<time>2011-02-07T13:20:07Z</time>
</trkpt>
<trkpt lat="43.08473001" lon="-2.88395002">
<ele>624.048</ele>
<time>2011-02-07T13:19:20Z</time>
</trkpt>
<trkpt lat="43.08496001" lon="-2.88373997">
<ele>617.799</ele>
<time>2011-02-07T13:19:11Z</time>
</trkpt>
<trkpt lat="43.08526000" lon="-2.88389001">
<ele>612.983</ele>
<time>2011-02-07T13:19:01Z</time>
</trkpt>
<trkpt lat="43.08601001" lon="-2.88274999">
<ele>599.023</ele>
<time>2011-02-07T13:18:27Z</time>
</trkpt>
<trkpt lat="43.08628997" lon="-2.88251999">
<ele>595.183</ele>
<time>2011-02-07T13:18:14Z</time>
</trkpt>
<trkpt lat="43.08657998" lon="-2.88235998">
<ele>591.830</ele>
<time>2011-02-07T13:18:01Z</time>
</trkpt>
<trkpt lat="43.08699002" lon="-2.88208002">
<ele>577.413</ele>
<time>2011-02-07T13:17:47Z</time>
</trkpt>
<trkpt lat="43.08726998" lon="-2.88182002">
<ele>574.518</ele>
<time>2011-02-07T13:17:35Z</time>
</trkpt>
<trkpt lat="43.08761003" lon="-2.88149999">
<ele>565.404</ele>
<time>2011-02-07T13:17:20Z</time>
</trkpt>
<trkpt lat="43.08788002" lon="-2.88117997">
<ele>560.588</ele>
<time>2011-02-07T13:17:07Z</time>
</trkpt>
<trkpt lat="43.08821001" lon="-2.88086004">
<ele>549.036</ele>
<time>2011-02-07T13:16:54Z</time>
</trkpt>
<trkpt lat="43.08843004" lon="-2.88061998">
<ele>549.524</ele>
<time>2011-02-07T13:16:45Z</time>
</trkpt>
<trkpt lat="43.08870999" lon="-2.88054002">
<ele>549.524</ele>
<time>2011-02-07T13:16:36Z</time>
</trkpt>
<trkpt lat="43.08886003" lon="-2.88061998">
<ele>548.091</ele>
<time>2011-02-07T13:16:33Z</time>
</trkpt>
<trkpt lat="43.08904996" lon="-2.88107000">
<ele>543.276</ele>
<time>2011-02-07T13:16:25Z</time>
</trkpt>
<trkpt lat="43.08877001" lon="-2.88224003">
<ele>530.291</ele>
<time>2011-02-07T13:16:09Z</time>
</trkpt>
<trkpt lat="43.08876003" lon="-2.88255997">
<ele>524.043</ele>
<time>2011-02-07T13:16:02Z</time>
</trkpt>
<trkpt lat="43.08919002" lon="-2.88261001">
<ele>512.034</ele>
<time>2011-02-07T13:15:45Z</time>
</trkpt>
<trkpt lat="43.08981003" lon="-2.88277002">
<ele>495.209</ele>
<time>2011-02-07T13:15:23Z</time>
</trkpt>
<trkpt lat="43.09035997" lon="-2.88277999">
<ele>488.472</ele>
<time>2011-02-07T13:15:03Z</time>
</trkpt>
<trkpt lat="43.09061000" lon="-2.88297001">
<ele>487.528</ele>
<time>2011-02-07T13:14:54Z</time>
</trkpt>
<trkpt lat="43.09107000" lon="-2.88330998">
<ele>475.031</ele>
<time>2011-02-07T13:14:33Z</time>
</trkpt>
<trkpt lat="43.09124996" lon="-2.88379001">
<ele>469.270</ele>
<time>2011-02-07T13:14:21Z</time>
</trkpt>
<trkpt lat="43.09135004" lon="-2.88426996">
<ele>455.310</ele>
<time>2011-02-07T13:14:09Z</time>
</trkpt>
<trkpt lat="43.09163000" lon="-2.88435998">
<ele>446.684</ele>
<time>2011-02-07T13:13:57Z</time>
</trkpt>
<trkpt lat="43.09198002" lon="-2.88422998">
<ele>439.461</ele>
<time>2011-02-07T13:13:44Z</time>
</trkpt>
<trkpt lat="43.09225000" lon="-2.88421003">
<ele>438.028</ele>
<time>2011-02-07T13:13:34Z</time>
</trkpt>
<trkpt lat="43.09248000" lon="-2.88445998">
<ele>431.780</ele>
<time>2011-02-07T13:13:21Z</time>
</trkpt>
<trkpt lat="43.09316003" lon="-2.88494001">
<ele>426.964</ele>
<time>2011-02-07T13:12:55Z</time>
</trkpt>
<trkpt lat="43.09382002" lon="-2.88635002">
<ele>407.243</ele>
<time>2011-02-07T13:12:17Z</time>
</trkpt>
<trkpt lat="43.09503003" lon="-2.88783001">
<ele>401.970</ele>
<time>2011-02-07T13:11:22Z</time>
</trkpt>
<trkpt lat="43.09550000" lon="-2.88828003">
<ele>398.617</ele>
<time>2011-02-07T13:11:01Z</time>
</trkpt>
<trkpt lat="43.09577996" lon="-2.88862000">
<ele>396.667</ele>
<time>2011-02-07T13:10:47Z</time>
</trkpt>
<trkpt lat="43.09589999" lon="-2.88911001">
<ele>392.369</ele>
<time>2011-02-07T13:10:35Z</time>
</trkpt>
<trkpt lat="43.09598004" lon="-2.88973999">
<ele>373.624</ele>
<time>2011-02-07T13:10:17Z</time>
</trkpt>
<trkpt lat="43.09612001" lon="-2.89082000">
<ele>359.664</ele>
<time>2011-02-07T13:09:49Z</time>
</trkpt>
<trkpt lat="43.09619000" lon="-2.89186003">
<ele>345.735</ele>
<time>2011-02-07T13:09:23Z</time>
</trkpt>
<trkpt lat="43.09615002" lon="-2.89243000">
<ele>339.974</ele>
<time>2011-02-07T13:09:03Z</time>
</trkpt>
<trkpt lat="43.09624004" lon="-2.89269000">
<ele>331.318</ele>
<time>2011-02-07T13:08:55Z</time>
</trkpt>
<trkpt lat="43.09642998" lon="-2.89394000">
<ele>307.757</ele>
<time>2011-02-07T13:08:44Z</time>
</trkpt>
<trkpt lat="43.09655998" lon="-2.89446998">
<ele>298.613</ele>
<time>2011-02-07T13:08:39Z</time>
</trkpt>
<trkpt lat="43.09744000" lon="-2.89596003">
<ele>278.922</ele>
<time>2011-02-07T13:08:24Z</time>
</trkpt>
<trkpt lat="43.09851003" lon="-2.89750004">
<ele>252.496</ele>
<time>2011-02-07T13:08:08Z</time>
</trkpt>
<trkpt lat="43.09871002" lon="-2.89807001">
<ele>247.193</ele>
<time>2011-02-07T13:08:03Z</time>
</trkpt>
<trkpt lat="43.09877004" lon="-2.89895003">
<ele>236.129</ele>
<time>2011-02-07T13:07:55Z</time>
</trkpt>
<trkpt lat="43.09901001" lon="-2.89952000">
<ele>228.448</ele>
<time>2011-02-07T13:07:49Z</time>
</trkpt>
<trkpt lat="43.09946003" lon="-2.90010002">
<ele>223.175</ele>
<time>2011-02-07T13:07:41Z</time>
</trkpt>
<trkpt lat="43.09954000" lon="-2.90098004">
<ele>219.304</ele>
<time>2011-02-07T13:07:32Z</time>
</trkpt>
<trkpt lat="43.09940999" lon="-2.90145999">
<ele>218.359</ele>
<time>2011-02-07T13:07:27Z</time>
</trkpt>
<trkpt lat="43.09960001" lon="-2.90277997">
<ele>208.758</ele>
<time>2011-02-07T13:07:14Z</time>
</trkpt>
<trkpt lat="43.09993998" lon="-2.90329001">
<ele>199.614</ele>
<time>2011-02-07T13:07:07Z</time>
</trkpt>
<trkpt lat="43.10023000" lon="-2.90342001">
<ele>194.798</ele>
<time>2011-02-07T13:07:03Z</time>
</trkpt>
<trkpt lat="43.10091002" lon="-2.90362998">
<ele>185.196</ele>
<time>2011-02-07T13:06:51Z</time>
</trkpt>
<trkpt lat="43.10133004" lon="-2.90359000">
<ele>182.789</ele>
<time>2011-02-07T12:11:28Z</time>
</trkpt>
<trkpt lat="43.10183999" lon="-2.90377004">
<ele>178.460</ele>
<time>2011-02-07T12:11:20Z</time>
</trkpt>
<trkpt lat="43.10202003" lon="-2.90405997">
<ele>177.028</ele>
<time>2011-02-07T12:11:15Z</time>
</trkpt>
<trkpt lat="43.10200000" lon="-2.90458996">
<ele>173.645</ele>
<time>2011-02-07T12:11:09Z</time>
</trkpt>
<trkpt lat="43.10253996" lon="-2.90493001">
<ele>173.645</ele>
<time>2011-02-07T12:10:57Z</time>
</trkpt>
<trkpt lat="43.10343004" lon="-2.90579997">
<ele>166.451</ele>
<time>2011-02-07T12:10:47Z</time>
</trkpt>
<trkpt lat="43.10380999" lon="-2.90598999">
<ele>164.988</ele>
<time>2011-02-07T12:10:43Z</time>
</trkpt>
<trkpt lat="43.10498999" lon="-2.90588002">
<ele>164.043</ele>
<time>2011-02-07T12:10:32Z</time>
</trkpt>
<trkpt lat="43.10512000" lon="-2.90638997">
<ele>160.203</ele>
<time>2011-02-07T12:10:25Z</time>
</trkpt>
<trkpt lat="43.10508002" lon="-2.90647002">
<ele>159.715</ele>
<time>2011-02-07T12:10:24Z</time>
</trkpt>
<trkpt lat="43.10541001" lon="-2.90670999">
<ele>163.556</ele>
<time>2011-02-07T12:10:16Z</time>
</trkpt>
<trkpt lat="43.10563004" lon="-2.90674000">
<ele>162.611</ele>
<time>2011-02-07T12:10:11Z</time>
</trkpt>
<trkpt lat="43.10584000" lon="-2.90710000">
<ele>162.123</ele>
<time>2011-02-07T12:10:07Z</time>
</trkpt>
<trkpt lat="43.10640000" lon="-2.90907998">
<ele>164.043</ele>
<time>2011-02-07T12:09:54Z</time>
</trkpt>
<trkpt lat="43.10676000" lon="-2.91018999">
<ele>167.884</ele>
<time>2011-02-07T12:09:45Z</time>
</trkpt>
<trkpt lat="43.10692001" lon="-2.91110002">
<ele>167.884</ele>
<time>2011-02-07T12:07:55Z</time>
</trkpt>
</trkseg>
</trk>
<trk>
<name>Martxa_Laburra</name>
<desc>Martxa_Laburra</desc>
<extensions>
<time xmlns="http://www.topografix.com/GPX/gpx_modified/0/1">2012-09-20T06:39:59.921Z</time>
<label xmlns="http://www.topografix.com/GPX/gpx_overlay/0/3">
<label_text>Martxa_Laburra</label_text>
</label>
</extensions>
<trkseg>
<trkpt lat="43.06028000" lon="-2.83580999">
<ele>813.907</ele>
<time>2011-02-07T14:40:00Z</time>
</trkpt>
<trkpt lat="43.06034002" lon="-2.83602004">
<ele>814.365</ele>
<time>2011-02-07T14:39:38Z</time>
</trkpt>
<trkpt lat="43.06043004" lon="-2.83625004">
<ele>820.156</ele>
<time>2011-02-07T14:39:22Z</time>
</trkpt>
<trkpt lat="43.06076003" lon="-2.83682001">
<ele>816.285</ele>
<time>2011-02-07T14:38:47Z</time>
</trkpt>
<trkpt lat="43.06066004" lon="-2.83745997">
<ele>822.076</ele>
<time>2011-02-07T14:37:57Z</time>
</trkpt>
<trkpt lat="43.06017003" lon="-2.83872999">
<ele>833.110</ele>
<time>2011-02-07T14:35:41Z</time>
</trkpt>
<trkpt lat="43.05988002" lon="-2.83978997">
<ele>833.110</ele>
<time>2011-02-07T14:34:49Z</time>
</trkpt>
<trkpt lat="43.05974004" lon="-2.84007998">
<ele>835.518</ele>
<time>2011-02-07T14:34:34Z</time>
</trkpt>
<trkpt lat="43.05959000" lon="-2.84030001">
<ele>833.110</ele>
<time>2011-02-07T14:34:19Z</time>
</trkpt>
<trkpt lat="43.05936998" lon="-2.84043998">
<ele>837.926</ele>
<time>2011-02-07T14:34:04Z</time>
</trkpt>
<trkpt lat="43.05873999" lon="-2.84109000">
<ele>843.686</ele>
<time>2011-02-07T14:33:13Z</time>
</trkpt>
<trkpt lat="43.05860999" lon="-2.84198997">
<ele>842.254</ele>
<time>2011-02-07T14:32:28Z</time>
</trkpt>
<trkpt lat="43.05867000" lon="-2.84256002">
<ele>837.926</ele>
<time>2011-02-07T14:31:56Z</time>
</trkpt>
<trkpt lat="43.05838997" lon="-2.84335001">
<ele>839.846</ele>
<time>2011-02-07T14:31:15Z</time>
</trkpt>
<trkpt lat="43.05840002" lon="-2.84355001">
<ele>839.846</ele>
<time>2011-02-07T14:31:00Z</time>
</trkpt>
<trkpt lat="43.05837002" lon="-2.84358001">
<ele>842.254</ele>
<time>2011-02-07T14:30:40Z</time>
</trkpt>
<trkpt lat="43.05838997" lon="-2.84367003">
<ele>842.254</ele>
<time>2011-02-07T14:30:23Z</time>
</trkpt>
<trkpt lat="43.05831998" lon="-2.84382996">
<ele>845.149</ele>
<time>2011-02-07T14:30:12Z</time>
</trkpt>
<trkpt lat="43.05828997" lon="-2.84436003">
<ele>846.094</ele>
<time>2011-02-07T14:29:45Z</time>
</trkpt>
<trkpt lat="43.05814999" lon="-2.84480000">
<ele>855.238</ele>
<time>2011-02-07T14:29:20Z</time>
</trkpt>
<trkpt lat="43.05820003" lon="-2.84493000">
<ele>851.398</ele>
<time>2011-02-07T14:28:29Z</time>
</trkpt>
<trkpt lat="43.05811998" lon="-2.84535999">
<ele>851.398</ele>
<time>2011-02-07T14:28:08Z</time>
</trkpt>
<trkpt lat="43.05812996" lon="-2.84588998">
<ele>860.024</ele>
<time>2011-02-07T14:27:40Z</time>
</trkpt>
<trkpt lat="43.05804002" lon="-2.84621000">
<ele>870.143</ele>
<time>2011-02-07T14:27:24Z</time>
</trkpt>
<trkpt lat="43.05792997" lon="-2.84670001">
<ele>865.815</ele>
<time>2011-02-07T14:26:56Z</time>
</trkpt>
<trkpt lat="43.05805997" lon="-2.84692003">
<ele>868.223</ele>
<time>2011-02-07T14:26:38Z</time>
</trkpt>
<trkpt lat="43.05827002" lon="-2.84723997">
<ele>863.895</ele>
<time>2011-02-07T14:26:08Z</time>
</trkpt>
<trkpt lat="43.05833003" lon="-2.84730996">
<ele>858.103</ele>
<time>2011-02-07T14:25:56Z</time>
</trkpt>
<trkpt lat="43.05854998" lon="-2.84746997">
<ele>854.263</ele>
<time>2011-02-07T14:25:42Z</time>
</trkpt>
<trkpt lat="43.05850002" lon="-2.84749000">
<ele>858.591</ele>
<time>2011-02-07T14:25:18Z</time>
</trkpt>
<trkpt lat="43.05846004" lon="-2.84758002">
<ele>865.327</ele>
<time>2011-02-07T14:24:58Z</time>
</trkpt>
<trkpt lat="43.05847001" lon="-2.84782000">
<ele>869.655</ele>
<time>2011-02-07T14:24:46Z</time>
</trkpt>
<trkpt lat="43.05857001" lon="-2.84801002">
<ele>869.168</ele>
<time>2011-02-07T14:24:35Z</time>
</trkpt>
<trkpt lat="43.05857998" lon="-2.84831998">
<ele>870.143</ele>
<time>2011-02-07T14:24:15Z</time>
</trkpt>
<trkpt lat="43.05864997" lon="-2.84858996">
<ele>871.576</ele>
<time>2011-02-07T14:24:02Z</time>
</trkpt>
<trkpt lat="43.05876003" lon="-2.84874000">
<ele>876.391</ele>
<time>2011-02-07T14:23:53Z</time>
</trkpt>
<trkpt lat="43.05889003" lon="-2.84952999">
<ele>896.569</ele>
<time>2011-02-07T14:23:05Z</time>
</trkpt>
<trkpt lat="43.05910997" lon="-2.84962999">
<ele>908.578</ele>
<time>2011-02-07T14:22:42Z</time>
</trkpt>
<trkpt lat="43.05929001" lon="-2.84982000">
<ele>915.802</ele>
<time>2011-02-07T14:22:25Z</time>
</trkpt>
<trkpt lat="43.05925003" lon="-2.84988999">
<ele>918.667</ele>
<time>2011-02-07T14:22:18Z</time>
</trkpt>
<trkpt lat="43.05917996" lon="-2.84992000">
<ele>918.667</ele>
<time>2011-02-07T14:21:28Z</time>
</trkpt>
<trkpt lat="43.05913998" lon="-2.85005998">
<ele>923.971</ele>
<time>2011-02-07T14:21:11Z</time>
</trkpt>
<trkpt lat="43.05916999" lon="-2.85064001">
<ele>936.955</ele>
<time>2011-02-07T14:20:23Z</time>
</trkpt>
<trkpt lat="43.05956997" lon="-2.85097000">
<ele>942.716</ele>
<time>2011-02-07T14:19:44Z</time>
</trkpt>
<trkpt lat="43.05968002" lon="-2.85106002">
<ele>937.412</ele>
<time>2011-02-07T14:19:33Z</time>
</trkpt>
<trkpt lat="43.05982000" lon="-2.85103999">
<ele>943.661</ele>
<time>2011-02-07T14:19:14Z</time>
</trkpt>
<trkpt lat="43.05992000" lon="-2.85110001">
<ele>943.204</ele>
<time>2011-02-07T14:19:04Z</time>
</trkpt>
<trkpt lat="43.06028998" lon="-2.85146001">
<ele>940.308</ele>
<time>2011-02-07T14:18:29Z</time>
</trkpt>
<trkpt lat="43.06054998" lon="-2.85199000">
<ele>936.955</ele>
<time>2011-02-07T14:18:00Z</time>
</trkpt>
<trkpt lat="43.06053003" lon="-2.85222997">
<ele>942.228</ele>
<time>2011-02-07T14:17:48Z</time>
</trkpt>
<trkpt lat="43.06057001" lon="-2.85232997">
<ele>947.989</ele>
<time>2011-02-07T14:17:40Z</time>
</trkpt>
<trkpt lat="43.06067999" lon="-2.85237003">
<ele>951.829</ele>
<time>2011-02-07T14:17:34Z</time>
</trkpt>
<trkpt lat="43.06084997" lon="-2.85251001">
<ele>949.452</ele>
<time>2011-02-07T14:16:56Z</time>
</trkpt>
<trkpt lat="43.06091996" lon="-2.85270003">
<ele>952.317</ele>
<time>2011-02-07T14:16:45Z</time>
</trkpt>
<trkpt lat="43.06103999" lon="-2.85273003">
<ele>956.645</ele>
<time>2011-02-07T14:16:34Z</time>
</trkpt>
<trkpt lat="43.06106002" lon="-2.85284000">
<ele>958.078</ele>
<time>2011-02-07T14:16:27Z</time>
</trkpt>
<trkpt lat="43.06116002" lon="-2.85294000">
<ele>958.566</ele>
<time>2011-02-07T14:16:19Z</time>
</trkpt>
<trkpt lat="43.06117997" lon="-2.85313999">
<ele>957.621</ele>
<time>2011-02-07T14:16:06Z</time>
</trkpt>
<trkpt lat="43.06150996" lon="-2.85402001">
<ele>976.823</ele>
<time>2011-02-07T14:15:14Z</time>
</trkpt>
<trkpt lat="43.06162999" lon="-2.85419997">
<ele>978.286</ele>
<time>2011-02-07T14:15:03Z</time>
</trkpt>
<trkpt lat="43.06182998" lon="-2.85441002">
<ele>986.455</ele>
<time>2011-02-07T14:14:45Z</time>
</trkpt>
<trkpt lat="43.06228001" lon="-2.85491000">
<ele>990.783</ele>
<time>2011-02-07T14:14:10Z</time>
</trkpt>
<trkpt lat="43.06254001" lon="-2.85531996">
<ele>995.111</ele>
<time>2011-02-07T14:13:41Z</time>
</trkpt>
<trkpt lat="43.06264001" lon="-2.85573000">
<ele>1001.359</ele>
<time>2011-02-07T14:13:18Z</time>
</trkpt>
<trkpt lat="43.06267002" lon="-2.85621003">
<ele>1009.528</ele>
<time>2011-02-07T14:12:52Z</time>
</trkpt>
<trkpt lat="43.06263003" lon="-2.85635001">
<ele>1011.936</ele>
<time>2011-02-07T14:12:45Z</time>
</trkpt>
<trkpt lat="43.06261998" lon="-2.85672996">
<ele>1008.065</ele>
<time>2011-02-07T14:12:28Z</time>
</trkpt>
<trkpt lat="43.06264998" lon="-2.85683004">
<ele>1008.065</ele>
<time>2011-02-07T14:12:20Z</time>
</trkpt>
<trkpt lat="43.06260003" lon="-2.85703003">
<ele>1017.697</ele>
<time>2011-02-07T14:12:06Z</time>
</trkpt>
<trkpt lat="43.06264998" lon="-2.85720002">
<ele>1019.617</ele>
<time>2011-02-07T14:10:59Z</time>
</trkpt>
<trkpt lat="43.06297998" lon="-2.85770000">
<ele>1022.970</ele>
<time>2011-02-07T14:10:15Z</time>
</trkpt>
<trkpt lat="43.06309003" lon="-2.85780997">
<ele>1026.810</ele>
<time>2011-02-07T14:10:01Z</time>
</trkpt>
<trkpt lat="43.06337996" lon="-2.85795003">
<ele>1027.786</ele>
<time>2011-02-07T14:08:20Z</time>
</trkpt>
<trkpt lat="43.06359999" lon="-2.85818003">
<ele>1029.706</ele>
<time>2011-02-07T14:07:27Z</time>
</trkpt>
<trkpt lat="43.06391004" lon="-2.85839997">
<ele>1030.681</ele>
<time>2011-02-07T14:07:08Z</time>
</trkpt>
<trkpt lat="43.06491000" lon="-2.85884002">
<ele>1030.681</ele>
<time>2011-02-07T14:06:23Z</time>
</trkpt>
<trkpt lat="43.06537000" lon="-2.85920002">
<ele>1028.273</ele>
<time>2011-02-07T14:06:02Z</time>
</trkpt>
<trkpt lat="43.06569999" lon="-2.85979003">
<ele>1024.433</ele>
<time>2011-02-07T14:05:40Z</time>
</trkpt>
<trkpt lat="43.06655997" lon="-2.86184996">
<ele>1000.872</ele>
<time>2011-02-07T14:04:27Z</time>
</trkpt>
<trkpt lat="43.06684001" lon="-2.86225003">
<ele>998.952</ele>
<time>2011-02-07T14:04:10Z</time>
</trkpt>
<trkpt lat="43.06776999" lon="-2.86268002">
<ele>994.623</ele>
<time>2011-02-07T14:03:30Z</time>
</trkpt>
<trkpt lat="43.06786001" lon="-2.86274004">
<ele>992.703</ele>
<time>2011-02-07T14:03:16Z</time>
</trkpt>
<trkpt lat="43.06867003" lon="-2.86302997">
<ele>1009.040</ele>
<time>2011-02-07T14:02:21Z</time>
</trkpt>
<trkpt lat="43.06868998" lon="-2.86310004">
<ele>1009.528</ele>
<time>2011-02-07T14:01:20Z</time>
</trkpt>
<trkpt lat="43.06867003" lon="-2.86308001">
<ele>1006.632</ele>
<time>2011-02-07T14:00:11Z</time>
</trkpt>
<trkpt lat="43.06871999" lon="-2.86315997">
<ele>1006.632</ele>
<time>2011-02-07T13:59:51Z</time>
</trkpt>
<trkpt lat="43.06898997" lon="-2.86344999">
<ele>998.952</ele>
<time>2011-02-07T13:59:16Z</time>
</trkpt>
<trkpt lat="43.06970000" lon="-2.86403999">
<ele>980.206</ele>
<time>2011-02-07T13:58:04Z</time>
</trkpt>
<trkpt lat="43.07000997" lon="-2.86436001">
<ele>972.525</ele>
<time>2011-02-07T13:57:27Z</time>
</trkpt>
<trkpt lat="43.07130002" lon="-2.86489997">
<ele>934.547</ele>
<time>2011-02-07T13:55:25Z</time>
</trkpt>
<trkpt lat="43.07148996" lon="-2.86492998">
<ele>929.244</ele>
<time>2011-02-07T13:55:09Z</time>
</trkpt>
<trkpt lat="43.07207996" lon="-2.86512000">
<ele>917.722</ele>
<time>2011-02-07T13:54:25Z</time>
</trkpt>
<trkpt lat="43.07284003" lon="-2.86563003">
<ele>909.066</ele>
<time>2011-02-07T13:53:02Z</time>
</trkpt>
<trkpt lat="43.07301999" lon="-2.86597000">
<ele>904.250</ele>
<time>2011-02-07T13:52:27Z</time>
</trkpt>
<trkpt lat="43.07324999" lon="-2.86617997">
<ele>898.977</ele>
<time>2011-02-07T13:52:06Z</time>
</trkpt>
<trkpt lat="43.07356004" lon="-2.86617000">
<ele>893.674</ele>
<time>2011-02-07T13:51:44Z</time>
</trkpt>
<trkpt lat="43.07384997" lon="-2.86622004">
<ele>888.401</ele>
<time>2011-02-07T13:51:22Z</time>
</trkpt>
<trkpt lat="43.07507004" lon="-2.86695999">
<ele>865.815</ele>
<time>2011-02-07T13:49:47Z</time>
</trkpt>
<trkpt lat="43.07577998" lon="-2.86722997">
<ele>857.159</ele>
<time>2011-02-07T13:48:59Z</time>
</trkpt>
<trkpt lat="43.07660996" lon="-2.86761998">
<ele>852.343</ele>
<time>2011-02-07T13:48:01Z</time>
</trkpt>
<trkpt lat="43.07679998" lon="-2.86777999">
<ele>852.830</ele>
<time>2011-02-07T13:47:48Z</time>
</trkpt>
<trkpt lat="43.07768997" lon="-2.86833999">
<ele>858.591</ele>
<time>2011-02-07T13:46:47Z</time>
</trkpt>
<trkpt lat="43.07771000" lon="-2.86840000">
<ele>855.696</ele>
<time>2011-02-07T13:45:38Z</time>
</trkpt>
<trkpt lat="43.07814997" lon="-2.86906997">
<ele>851.855</ele>
<time>2011-02-07T13:44:57Z</time>
</trkpt>
<trkpt lat="43.07834996" lon="-2.86928999">
<ele>852.343</ele>
<time>2011-02-07T13:44:16Z</time>
</trkpt>
<trkpt lat="43.07881004" lon="-2.86985996">
<ele>839.358</ele>
<time>2011-02-07T13:43:09Z</time>
</trkpt>
<trkpt lat="43.07928002" lon="-2.87046002">
<ele>835.518</ele>
<time>2011-02-07T13:42:30Z</time>
</trkpt>
<trkpt lat="43.07991997" lon="-2.87105002">
<ele>828.782</ele>
<time>2011-02-07T13:41:42Z</time>
</trkpt>
<trkpt lat="43.08032004" lon="-2.87168001">
<ele>825.429</ele>
<time>2011-02-07T13:41:05Z</time>
</trkpt>
<trkpt lat="43.08075003" lon="-2.87220002">
<ele>824.454</ele>
<time>2011-02-07T13:40:30Z</time>
</trkpt>
<trkpt lat="43.08115002" lon="-2.87283998">
<ele>817.748</ele>
<time>2011-02-07T13:39:51Z</time>
</trkpt>
<trkpt lat="43.08131003" lon="-2.87316998">
<ele>815.340</ele>
<time>2011-02-07T13:39:33Z</time>
</trkpt>
<trkpt lat="43.08139997" lon="-2.87359997">
<ele>810.524</ele>
<time>2011-02-07T13:39:13Z</time>
</trkpt>
<trkpt lat="43.08191000" lon="-2.87467000">
<ele>803.331</ele>
<time>2011-02-07T13:37:50Z</time>
</trkpt>
<trkpt lat="43.08213003" lon="-2.87545002">
<ele>795.162</ele>
<time>2011-02-07T13:36:52Z</time>
</trkpt>
<trkpt lat="43.08276999" lon="-2.87637002">
<ele>787.451</ele>
<time>2011-02-07T13:35:39Z</time>
</trkpt>
<trkpt lat="43.08302002" lon="-2.87742999">
<ele>772.089</ele>
<time>2011-02-07T13:34:40Z</time>
</trkpt>
<trkpt lat="43.08318003" lon="-2.87774004">
<ele>766.785</ele>
<time>2011-02-07T13:34:20Z</time>
</trkpt>
<trkpt lat="43.08322999" lon="-2.87807004">
<ele>761.970</ele>
<time>2011-02-07T13:34:01Z</time>
</trkpt>
<trkpt lat="43.08321004" lon="-2.87822996">
<ele>758.617</ele>
<time>2011-02-07T13:33:51Z</time>
</trkpt>
<trkpt lat="43.08342000" lon="-2.87948004">
<ele>737.951</ele>
<time>2011-02-07T13:32:39Z</time>
</trkpt>
<trkpt lat="43.08334004" lon="-2.88307001">
<ele>677.388</ele>
<time>2011-02-07T13:28:24Z</time>
</trkpt>
<trkpt lat="43.08339000" lon="-2.88396000">
<ele>666.811</ele>
<time>2011-02-07T13:27:33Z</time>
</trkpt>
<trkpt lat="43.08345999" lon="-2.88425001">
<ele>661.538</ele>
<time>2011-02-07T13:27:16Z</time>
</trkpt>
<trkpt lat="43.08339997" lon="-2.88428999">
<ele>661.538</ele>
<time>2011-02-07T13:24:51Z</time>
</trkpt>
<trkpt lat="43.08369996" lon="-2.88474999">
<ele>652.394</ele>
<time>2011-02-07T13:24:05Z</time>
</trkpt>
<trkpt lat="43.08391999" lon="-2.88481001">
<ele>648.553</ele>
<time>2011-02-07T13:23:45Z</time>
</trkpt>
<trkpt lat="43.08403004" lon="-2.88491998">
<ele>646.633</ele>
<time>2011-02-07T13:23:30Z</time>
</trkpt>
<trkpt lat="43.08404001" lon="-2.88507999">
<ele>644.713</ele>
<time>2011-02-07T13:23:20Z</time>
</trkpt>
<trkpt lat="43.08407002" lon="-2.88507001">
<ele>640.842</ele>
<time>2011-02-07T13:22:54Z</time>
</trkpt>
<trkpt lat="43.08403004" lon="-2.88510002">
<ele>639.409</ele>
<time>2011-02-07T13:22:40Z</time>
</trkpt>
<trkpt lat="43.08401998" lon="-2.88510002">
<ele>643.250</ele>
<time>2011-02-07T13:22:24Z</time>
</trkpt>
<trkpt lat="43.08400003" lon="-2.88507001">
<ele>639.897</ele>
<time>2011-02-07T13:21:45Z</time>
</trkpt>
<trkpt lat="43.08403004" lon="-2.88514998">
<ele>634.136</ele>
<time>2011-02-07T13:21:11Z</time>
</trkpt>
<trkpt lat="43.08400003" lon="-2.88511997">
<ele>642.793</ele>
<time>2011-02-07T13:20:07Z</time>
</trkpt>
<trkpt lat="43.08473001" lon="-2.88395002">
<ele>624.048</ele>
<time>2011-02-07T13:19:20Z</time>
</trkpt>
<trkpt lat="43.08496001" lon="-2.88373997">
<ele>617.799</ele>
<time>2011-02-07T13:19:11Z</time>
</trkpt>
<trkpt lat="43.08526000" lon="-2.88389001">
<ele>612.983</ele>
<time>2011-02-07T13:19:01Z</time>
</trkpt>
<trkpt lat="43.08601001" lon="-2.88274999">
<ele>599.023</ele>
<time>2011-02-07T13:18:27Z</time>
</trkpt>
<trkpt lat="43.08628997" lon="-2.88251999">
<ele>595.183</ele>
<time>2011-02-07T13:18:14Z</time>
</trkpt>
<trkpt lat="43.08657998" lon="-2.88235998">
<ele>591.830</ele>
<time>2011-02-07T13:18:01Z</time>
</trkpt>
<trkpt lat="43.08699002" lon="-2.88208002">
<ele>577.413</ele>
<time>2011-02-07T13:17:47Z</time>
</trkpt>
<trkpt lat="43.08726998" lon="-2.88182002">
<ele>574.518</ele>
<time>2011-02-07T13:17:35Z</time>
</trkpt>
<trkpt lat="43.08761003" lon="-2.88149999">
<ele>565.404</ele>
<time>2011-02-07T13:17:20Z</time>
</trkpt>
<trkpt lat="43.08788002" lon="-2.88117997">
<ele>560.588</ele>
<time>2011-02-07T13:17:07Z</time>
</trkpt>
<trkpt lat="43.08821001" lon="-2.88086004">
<ele>549.036</ele>
<time>2011-02-07T13:16:54Z</time>
</trkpt>
<trkpt lat="43.08843004" lon="-2.88061998">
<ele>549.524</ele>
<time>2011-02-07T13:16:45Z</time>
</trkpt>
<trkpt lat="43.08870999" lon="-2.88054002">
<ele>549.524</ele>
<time>2011-02-07T13:16:36Z</time>
</trkpt>
<trkpt lat="43.08886003" lon="-2.88061998">
<ele>548.091</ele>
<time>2011-02-07T13:16:33Z</time>
</trkpt>
<trkpt lat="43.08904996" lon="-2.88107000">
<ele>543.276</ele>
<time>2011-02-07T13:16:25Z</time>
</trkpt>
<trkpt lat="43.08877001" lon="-2.88224003">
<ele>530.291</ele>
<time>2011-02-07T13:16:09Z</time>
</trkpt>
<trkpt lat="43.08876003" lon="-2.88255997">
<ele>524.043</ele>
<time>2011-02-07T13:16:02Z</time>
</trkpt>
<trkpt lat="43.08919002" lon="-2.88261001">
<ele>512.034</ele>
<time>2011-02-07T13:15:45Z</time>
</trkpt>
<trkpt lat="43.08981003" lon="-2.88277002">
<ele>495.209</ele>
<time>2011-02-07T13:15:23Z</time>
</trkpt>
<trkpt lat="43.09035997" lon="-2.88277999">
<ele>488.472</ele>
<time>2011-02-07T13:15:03Z</time>
</trkpt>
<trkpt lat="43.09061000" lon="-2.88297001">
<ele>487.528</ele>
<time>2011-02-07T13:14:54Z</time>
</trkpt>
<trkpt lat="43.09107000" lon="-2.88330998">
<ele>475.031</ele>
<time>2011-02-07T13:14:33Z</time>
</trkpt>
<trkpt lat="43.09124996" lon="-2.88379001">
<ele>469.270</ele>
<time>2011-02-07T13:14:21Z</time>
</trkpt>
<trkpt lat="43.09135004" lon="-2.88426996">
<ele>455.310</ele>
<time>2011-02-07T13:14:09Z</time>
</trkpt>
<trkpt lat="43.09163000" lon="-2.88435998">
<ele>446.684</ele>
<time>2011-02-07T13:13:57Z</time>
</trkpt>
<trkpt lat="43.09198002" lon="-2.88422998">
<ele>439.461</ele>
<time>2011-02-07T13:13:44Z</time>
</trkpt>
<trkpt lat="43.09225000" lon="-2.88421003">
<ele>438.028</ele>
<time>2011-02-07T13:13:34Z</time>
</trkpt>
<trkpt lat="43.09248000" lon="-2.88445998">
<ele>431.780</ele>
<time>2011-02-07T13:13:21Z</time>
</trkpt>
<trkpt lat="43.09316003" lon="-2.88494001">
<ele>426.964</ele>
<time>2011-02-07T13:12:55Z</time>
</trkpt>
<trkpt lat="43.09382002" lon="-2.88635002">
<ele>407.243</ele>
<time>2011-02-07T13:12:17Z</time>
</trkpt>
<trkpt lat="43.09503003" lon="-2.88783001">
<ele>401.970</ele>
<time>2011-02-07T13:11:22Z</time>
</trkpt>
<trkpt lat="43.09550000" lon="-2.88828003">
<ele>398.617</ele>
<time>2011-02-07T13:11:01Z</time>
</trkpt>
<trkpt lat="43.09577996" lon="-2.88862000">
<ele>396.667</ele>
<time>2011-02-07T13:10:47Z</time>
</trkpt>
<trkpt lat="43.09589999" lon="-2.88911001">
<ele>392.369</ele>
<time>2011-02-07T13:10:35Z</time>
</trkpt>
<trkpt lat="43.09598004" lon="-2.88973999">
<ele>373.624</ele>
<time>2011-02-07T13:10:17Z</time>
</trkpt>
<trkpt lat="43.09612001" lon="-2.89082000">
<ele>359.664</ele>
<time>2011-02-07T13:09:49Z</time>
</trkpt>
<trkpt lat="43.09619000" lon="-2.89186003">
<ele>345.735</ele>
<time>2011-02-07T13:09:23Z</time>
</trkpt>
<trkpt lat="43.09615002" lon="-2.89243000">
<ele>339.974</ele>
<time>2011-02-07T13:09:03Z</time>
</trkpt>
<trkpt lat="43.09624004" lon="-2.89269000">
<ele>331.318</ele>
<time>2011-02-07T13:08:55Z</time>
</trkpt>
<trkpt lat="43.09642998" lon="-2.89394000">
<ele>307.757</ele>
<time>2011-02-07T13:08:44Z</time>
</trkpt>
<trkpt lat="43.09655998" lon="-2.89446998">
<ele>298.613</ele>
<time>2011-02-07T13:08:39Z</time>
</trkpt>
<trkpt lat="43.09744000" lon="-2.89596003">
<ele>278.922</ele>
<time>2011-02-07T13:08:24Z</time>
</trkpt>
<trkpt lat="43.09851003" lon="-2.89750004">
<ele>252.496</ele>
<time>2011-02-07T13:08:08Z</time>
</trkpt>
<trkpt lat="43.09871002" lon="-2.89807001">
<ele>247.193</ele>
<time>2011-02-07T13:08:03Z</time>
</trkpt>
<trkpt lat="43.09877004" lon="-2.89895003">
<ele>236.129</ele>
<time>2011-02-07T13:07:55Z</time>
</trkpt>
<trkpt lat="43.09901001" lon="-2.89952000">
<ele>228.448</ele>
<time>2011-02-07T13:07:49Z</time>
</trkpt>
<trkpt lat="43.09946003" lon="-2.90010002">
<ele>223.175</ele>
<time>2011-02-07T13:07:41Z</time>
</trkpt>
<trkpt lat="43.09954000" lon="-2.90098004">
<ele>219.304</ele>
<time>2011-02-07T13:07:32Z</time>
</trkpt>
<trkpt lat="43.09940999" lon="-2.90145999">
<ele>218.359</ele>
<time>2011-02-07T13:07:27Z</time>
</trkpt>
<trkpt lat="43.09960001" lon="-2.90277997">
<ele>208.758</ele>
<time>2011-02-07T13:07:14Z</time>
</trkpt>
<trkpt lat="43.09993998" lon="-2.90329001">
<ele>199.614</ele>
<time>2011-02-07T13:07:07Z</time>
</trkpt>
<trkpt lat="43.10023000" lon="-2.90342001">
<ele>194.798</ele>
<time>2011-02-07T13:07:03Z</time>
</trkpt>
<trkpt lat="43.10091002" lon="-2.90362998">
<ele>185.196</ele>
<time>2011-02-07T13:06:51Z</time>
</trkpt>
<trkpt lat="43.10133004" lon="-2.90359000">
<ele>182.789</ele>
<time>2011-02-07T12:11:28Z</time>
</trkpt>
<trkpt lat="43.10183999" lon="-2.90377004">
<ele>178.460</ele>
<time>2011-02-07T12:11:20Z</time>
</trkpt>
<trkpt lat="43.10202003" lon="-2.90405997">
<ele>177.028</ele>
<time>2011-02-07T12:11:15Z</time>
</trkpt>
<trkpt lat="43.10200000" lon="-2.90458996">
<ele>173.645</ele>
<time>2011-02-07T12:11:09Z</time>
</trkpt>
<trkpt lat="43.10253996" lon="-2.90493001">
<ele>173.645</ele>
<time>2011-02-07T12:10:57Z</time>
</trkpt>
<trkpt lat="43.10343004" lon="-2.90579997">
<ele>166.451</ele>
<time>2011-02-07T12:10:47Z</time>
</trkpt>
<trkpt lat="43.10380999" lon="-2.90598999">
<ele>164.988</ele>
<time>2011-02-07T12:10:43Z</time>
</trkpt>
<trkpt lat="43.10498999" lon="-2.90588002">
<ele>164.043</ele>
<time>2011-02-07T12:10:32Z</time>
</trkpt>
<trkpt lat="43.10512000" lon="-2.90638997">
<ele>160.203</ele>
<time>2011-02-07T12:10:25Z</time>
</trkpt>
<trkpt lat="43.10508002" lon="-2.90647002">
<ele>159.715</ele>
<time>2011-02-07T12:10:24Z</time>
</trkpt>
<trkpt lat="43.10541001" lon="-2.90670999">
<ele>163.556</ele>
<time>2011-02-07T12:10:16Z</time>
</trkpt>
<trkpt lat="43.10563004" lon="-2.90674000">
<ele>162.611</ele>
<time>2011-02-07T12:10:11Z</time>
</trkpt>
<trkpt lat="43.10584000" lon="-2.90710000">
<ele>162.123</ele>
<time>2011-02-07T12:10:07Z</time>
</trkpt>
<trkpt lat="43.10640000" lon="-2.90907998">
<ele>164.043</ele>
<time>2011-02-07T12:09:54Z</time>
</trkpt>
<trkpt lat="43.10676000" lon="-2.91018999">
<ele>167.884</ele>
<time>2011-02-07T12:09:45Z</time>
</trkpt>
<trkpt lat="43.10692001" lon="-2.91110002">
<ele>167.884</ele>
<time>2011-02-07T12:07:55Z</time>
</trkpt>
<trkpt lat="43.10672002" lon="-2.90988003">
<ele>168.372</ele>
<time>2011-02-07T17:56:08Z</time>
</trkpt>
<trkpt lat="43.10656998" lon="-2.90943000">
<ele>168.859</ele>
<time>2011-02-07T17:56:00Z</time>
</trkpt>
<trkpt lat="43.10640000" lon="-2.90848997">
<ele>161.148</ele>
<time>2011-02-07T17:55:42Z</time>
</trkpt>
<trkpt lat="43.10630000" lon="-2.90831999">
<ele>161.635</ele>
<time>2011-02-07T17:55:03Z</time>
</trkpt>
<trkpt lat="43.10590002" lon="-2.90706002">
<ele>161.635</ele>
<time>2011-02-07T17:54:52Z</time>
</trkpt>
<trkpt lat="43.10538000" lon="-2.90618998">
<ele>161.148</ele>
<time>2011-02-07T17:54:41Z</time>
</trkpt>
<trkpt lat="43.10527003" lon="-2.90589997">
<ele>161.148</ele>
<time>2011-02-07T17:54:37Z</time>
</trkpt>
<trkpt lat="43.10518001" lon="-2.90585001">
<ele>160.203</ele>
<time>2011-02-07T17:54:33Z</time>
</trkpt>
<trkpt lat="43.10436001" lon="-2.90597004">
<ele>160.691</ele>
<time>2011-02-07T17:54:24Z</time>
</trkpt>
<trkpt lat="43.10353003" lon="-2.90581003">
<ele>162.611</ele>
<time>2011-02-07T17:54:17Z</time>
</trkpt>
<trkpt lat="43.10239001" lon="-2.90480998">
<ele>167.396</ele>
<time>2011-02-07T17:54:03Z</time>
</trkpt>
<trkpt lat="43.10210000" lon="-2.90447999">
<ele>174.132</ele>
<time>2011-02-07T17:53:57Z</time>
</trkpt>
<trkpt lat="43.10210000" lon="-2.90428997">
<ele>176.052</ele>
<time>2011-02-07T17:53:55Z</time>
</trkpt>
<trkpt lat="43.10192004" lon="-2.90382997">
<ele>178.460</ele>
<time>2011-02-07T17:53:48Z</time>
</trkpt>
<trkpt lat="43.10164997" lon="-2.90369997">
<ele>178.948</ele>
<time>2011-02-07T17:53:44Z</time>
</trkpt>
<trkpt lat="43.10118000" lon="-2.90359997">
<ele>182.301</ele>
<time>2011-02-07T17:53:38Z</time>
</trkpt>
<trkpt lat="43.10088001" lon="-2.90359997">
<ele>185.196</ele>
<time>2011-02-07T17:53:34Z</time>
</trkpt>
<trkpt lat="43.10006998" lon="-2.90333997">
<ele>199.614</ele>
<time>2011-02-07T17:53:24Z</time>
</trkpt>
<trkpt lat="43.09964997" lon="-2.90286999">
<ele>208.758</ele>
<time>2011-02-07T17:53:17Z</time>
</trkpt>
<trkpt lat="43.09941997" lon="-2.90167004">
<ele>212.598</ele>
<time>2011-02-07T17:53:06Z</time>
</trkpt>
<trkpt lat="43.09963999" lon="-2.90086001">
<ele>212.598</ele>
<time>2011-02-07T17:52:53Z</time>
</trkpt>
<trkpt lat="43.09938996" lon="-2.90001998">
<ele>220.279</ele>
<time>2011-02-07T17:52:44Z</time>
</trkpt>
<trkpt lat="43.09901001" lon="-2.89952997">
<ele>228.448</ele>
<time>2011-02-07T17:52:38Z</time>
</trkpt>
<trkpt lat="43.09884002" lon="-2.89913996">
<ele>234.208</ele>
<time>2011-02-07T17:52:34Z</time>
</trkpt>
<trkpt lat="43.09875000" lon="-2.89873998">
<ele>237.104</ele>
<time>2011-02-07T17:52:30Z</time>
</trkpt>
<trkpt lat="43.09871002" lon="-2.89797999">
<ele>243.840</ele>
<time>2011-02-07T17:52:23Z</time>
</trkpt>
<trkpt lat="43.09865001" lon="-2.89775996">
<ele>246.248</ele>
<time>2011-02-07T17:52:21Z</time>
</trkpt>
<trkpt lat="43.09803000" lon="-2.89659999">
<ele>265.938</ele>
<time>2011-02-07T17:52:09Z</time>
</trkpt>
<trkpt lat="43.09731997" lon="-2.89584001">
<ele>283.738</ele>
<time>2011-02-07T17:51:59Z</time>
</trkpt>
<trkpt lat="43.09698997" lon="-2.89525998">
<ele>290.444</ele>
<time>2011-02-07T17:51:53Z</time>
</trkpt>
<trkpt lat="43.09665000" lon="-2.89476997">
<ele>297.180</ele>
<time>2011-02-07T17:51:48Z</time>
</trkpt>
<trkpt lat="43.09644003" lon="-2.89430000">
<ele>305.836</ele>
<time>2011-02-07T17:51:43Z</time>
</trkpt>
<trkpt lat="43.09624004" lon="-2.89275999">
<ele>325.557</ele>
<time>2011-02-07T17:51:27Z</time>
</trkpt>
<trkpt lat="43.09622001" lon="-2.89259001">
<ele>332.750</ele>
<time>2011-02-07T17:50:57Z</time>
</trkpt>
<trkpt lat="43.09619998" lon="-2.89239001">
<ele>335.158</ele>
<time>2011-02-07T17:50:33Z</time>
</trkpt>
<trkpt lat="43.09624004" lon="-2.89227996">
<ele>326.014</ele>
<time>2011-02-07T17:50:16Z</time>
</trkpt>
<trkpt lat="43.09618003" lon="-2.89151997">
<ele>339.974</ele>
<time>2011-02-07T17:49:51Z</time>
</trkpt>
<trkpt lat="43.09602999" lon="-2.89005004">
<ele>353.903</ele>
<time>2011-02-07T17:49:11Z</time>
</trkpt>
<trkpt lat="43.09589999" lon="-2.88904002">
<ele>380.329</ele>
<time>2011-02-07T17:48:41Z</time>
</trkpt>
<trkpt lat="43.09577996" lon="-2.88851003">
<ele>384.658</ele>
<time>2011-02-07T17:48:26Z</time>
</trkpt>
<trkpt lat="43.09567996" lon="-2.88843996">
<ele>377.922</ele>
<time>2011-02-07T17:48:05Z</time>
</trkpt>
<trkpt lat="43.09524997" lon="-2.88799002">
<ele>392.826</ele>
<time>2011-02-07T17:47:45Z</time>
</trkpt>
<trkpt lat="43.09396000" lon="-2.88652997">
<ele>400.538</ele>
<time>2011-02-07T17:46:58Z</time>
</trkpt>
<trkpt lat="43.09347996" lon="-2.88557997">
<ele>407.731</ele>
<time>2011-02-07T17:46:39Z</time>
</trkpt>
<trkpt lat="43.09311996" lon="-2.88484999">
<ele>424.556</ele>
<time>2011-02-07T17:46:20Z</time>
</trkpt>
<trkpt lat="43.09281997" lon="-2.88460004">
<ele>429.859</ele>
<time>2011-02-07T17:46:11Z</time>
</trkpt>
<trkpt lat="43.09261001" lon="-2.88451999">
<ele>429.372</ele>
<time>2011-02-07T17:46:02Z</time>
</trkpt>
<trkpt lat="43.09214003" lon="-2.88412001">
<ele>432.237</ele>
<time>2011-02-07T17:45:40Z</time>
</trkpt>
<trkpt lat="43.09172002" lon="-2.88434003">
<ele>440.436</ele>
<time>2011-02-07T17:45:22Z</time>
</trkpt>
<trkpt lat="43.09137996" lon="-2.88432000">
<ele>453.390</ele>
<time>2011-02-07T17:45:09Z</time>
</trkpt>
<trkpt lat="43.09120000" lon="-2.88359002">
<ele>460.126</ele>
<time>2011-02-07T17:44:49Z</time>
</trkpt>
<trkpt lat="43.09100001" lon="-2.88321996">
<ele>466.374</ele>
<time>2011-02-07T17:44:37Z</time>
</trkpt>
<trkpt lat="43.09044002" lon="-2.88281000">
<ele>482.712</ele>
<time>2011-02-07T17:44:10Z</time>
</trkpt>
<trkpt lat="43.08979997" lon="-2.88271001">
<ele>488.960</ele>
<time>2011-02-07T17:43:47Z</time>
</trkpt>
<trkpt lat="43.08952002" lon="-2.88264002">
<ele>495.696</ele>
<time>2011-02-07T17:43:37Z</time>
</trkpt>
<trkpt lat="43.08890998" lon="-2.88255000">
<ele>512.034</ele>
<time>2011-02-07T17:43:13Z</time>
</trkpt>
<trkpt lat="43.08867001" lon="-2.88257003">
<ele>523.098</ele>
<time>2011-02-07T17:43:03Z</time>
</trkpt>
<trkpt lat="43.08874000" lon="-2.88209997">
<ele>519.745</ele>
<time>2011-02-07T17:42:55Z</time>
</trkpt>
<trkpt lat="43.08893002" lon="-2.88155003">
<ele>519.257</ele>
<time>2011-02-07T17:42:48Z</time>
</trkpt>
<trkpt lat="43.08904996" lon="-2.88117997">
<ele>526.451</ele>
<time>2011-02-07T17:42:43Z</time>
</trkpt>
<trkpt lat="43.08886003" lon="-2.88061998">
<ele>539.923</ele>
<time>2011-02-07T17:42:34Z</time>
</trkpt>
<trkpt lat="43.08868996" lon="-2.88054002">
<ele>542.331</ele>
<time>2011-02-07T17:42:31Z</time>
</trkpt>
<trkpt lat="43.08851997" lon="-2.88054002">
<ele>546.171</ele>
<time>2011-02-07T17:42:27Z</time>
</trkpt>
<trkpt lat="43.08838000" lon="-2.88064001">
<ele>550.499</ele>
<time>2011-02-07T17:42:22Z</time>
</trkpt>
<trkpt lat="43.08751004" lon="-2.88156998">
<ele>572.597</ele>
<time>2011-02-07T17:41:51Z</time>
</trkpt>
<trkpt lat="43.08716998" lon="-2.88188003">
<ele>577.901</ele>
<time>2011-02-07T17:41:39Z</time>
</trkpt>
<trkpt lat="43.08657001" lon="-2.88232997">
<ele>590.855</ele>
<time>2011-02-07T17:41:17Z</time>
</trkpt>
<trkpt lat="43.08610003" lon="-2.88257003">
<ele>598.079</ele>
<time>2011-02-07T17:40:58Z</time>
</trkpt>
<trkpt lat="43.08581002" lon="-2.88303003">
<ele>608.167</ele>
<time>2011-02-07T17:40:46Z</time>
</trkpt>
<trkpt lat="43.08539998" lon="-2.88375003">
<ele>612.008</ele>
<time>2011-02-07T17:40:31Z</time>
</trkpt>
<trkpt lat="43.08506001" lon="-2.88373000">
<ele>617.799</ele>
<time>2011-02-07T17:40:22Z</time>
</trkpt>
<trkpt lat="43.08479003" lon="-2.88383000">
<ele>624.048</ele>
<time>2011-02-07T17:40:15Z</time>
</trkpt>
<trkpt lat="43.08443002" lon="-2.88438999">
<ele>635.081</ele>
<time>2011-02-07T17:40:01Z</time>
</trkpt>
<trkpt lat="43.08403004" lon="-2.88507999">
<ele>640.385</ele>
<time>2011-02-07T17:39:18Z</time>
</trkpt>
<trkpt lat="43.08380004" lon="-2.88490003">
<ele>651.419</ele>
<time>2011-02-07T17:38:46Z</time>
</trkpt>
<trkpt lat="43.08348999" lon="-2.88447004">
<ele>659.130</ele>
<time>2011-02-07T17:38:15Z</time>
</trkpt>
<trkpt lat="43.08332998" lon="-2.88415002">
<ele>668.731</ele>
<time>2011-02-07T17:37:54Z</time>
</trkpt>
<trkpt lat="43.08339000" lon="-2.88298996">
<ele>684.124</ele>
<time>2011-02-07T17:37:13Z</time>
</trkpt>
<trkpt lat="43.08339000" lon="-2.88206996">
<ele>690.372</ele>
<time>2011-02-07T17:36:50Z</time>
</trkpt>
<trkpt lat="43.08345001" lon="-2.88107000">
<ele>705.734</ele>
<time>2011-02-07T17:36:25Z</time>
</trkpt>
<trkpt lat="43.08339997" lon="-2.87945003">
<ele>735.056</ele>
<time>2011-02-07T17:35:42Z</time>
</trkpt>
<trkpt lat="43.08331003" lon="-2.87827003">
<ele>759.592</ele>
<time>2011-02-07T17:35:13Z</time>
</trkpt>
<trkpt lat="43.08316997" lon="-2.87766997">
<ele>770.626</ele>
<time>2011-02-07T17:34:58Z</time>
</trkpt>
<trkpt lat="43.08267997" lon="-2.87617003">
<ele>790.834</ele>
<time>2011-02-07T17:34:16Z</time>
</trkpt>
<trkpt lat="43.08216004" lon="-2.87542999">
<ele>795.619</ele>
<time>2011-02-07T17:33:51Z</time>
</trkpt>
<trkpt lat="43.08184002" lon="-2.87441997">
<ele>807.659</ele>
<time>2011-02-07T17:33:23Z</time>
</trkpt>
<trkpt lat="43.08161002" lon="-2.87395997">
<ele>811.500</ele>
<time>2011-02-07T17:33:09Z</time>
</trkpt>
<trkpt lat="43.08121003" lon="-2.87289002">
<ele>820.156</ele>
<time>2011-02-07T17:32:39Z</time>
</trkpt>
<trkpt lat="43.08063998" lon="-2.87198000">
<ele>832.653</ele>
<time>2011-02-07T17:32:09Z</time>
</trkpt>
<trkpt lat="43.08037997" lon="-2.87168998">
<ele>834.085</ele>
<time>2011-02-07T17:31:58Z</time>
</trkpt>
<trkpt lat="43.08007998" lon="-2.87122001">
<ele>838.413</ele>
<time>2011-02-07T17:31:43Z</time>
</trkpt>
<trkpt lat="43.07974001" lon="-2.87082002">
<ele>841.278</ele>
<time>2011-02-07T17:31:29Z</time>
</trkpt>
<trkpt lat="43.07935000" lon="-2.87047000">
<ele>845.149</ele>
<time>2011-02-07T17:31:13Z</time>
</trkpt>
<trkpt lat="43.07899000" lon="-2.87000002">
<ele>847.070</ele>
<time>2011-02-07T17:30:56Z</time>
</trkpt>
<trkpt lat="43.07836999" lon="-2.86928002">
<ele>859.566</ele>
<time>2011-02-07T17:30:27Z</time>
</trkpt>
<trkpt lat="43.07777002" lon="-2.86850000">
<ele>866.272</ele>
<time>2011-02-07T17:29:57Z</time>
</trkpt>
<trkpt lat="43.07715998" lon="-2.86797001">
<ele>863.895</ele>
<time>2011-02-07T17:29:30Z</time>
</trkpt>
<trkpt lat="43.07645003" lon="-2.86751999">
<ele>863.407</ele>
<time>2011-02-07T17:29:04Z</time>
</trkpt>
<trkpt lat="43.07528998" lon="-2.86695002">
<ele>873.008</ele>
<time>2011-02-07T17:28:27Z</time>
</trkpt>
<trkpt lat="43.07406999" lon="-2.86622004">
<ele>889.833</ele>
<time>2011-02-07T17:27:47Z</time>
</trkpt>
<trkpt lat="43.07338997" lon="-2.86603999">
<ele>900.410</ele>
<time>2011-02-07T17:27:25Z</time>
</trkpt>
<trkpt lat="43.07307003" lon="-2.86581997">
<ele>909.554</ele>
<time>2011-02-07T17:27:13Z</time>
</trkpt>
<trkpt lat="43.07272998" lon="-2.86551998">
<ele>915.802</ele>
<time>2011-02-07T17:27:00Z</time>
</trkpt>
<trkpt lat="43.07236000" lon="-2.86530004">
<ele>919.643</ele>
<time>2011-02-07T17:26:47Z</time>
</trkpt>
<trkpt lat="43.07200997" lon="-2.86519996">
<ele>922.050</ele>
<time>2011-02-07T17:26:35Z</time>
</trkpt>
<trkpt lat="43.07150002" lon="-2.86508999">
<ele>933.572</ele>
<time>2011-02-07T17:26:16Z</time>
</trkpt>
<trkpt lat="43.07058002" lon="-2.86456998">
<ele>959.541</ele>
<time>2011-02-07T17:25:36Z</time>
</trkpt>
<trkpt lat="43.06867003" lon="-2.86305998">
<ele>1010.473</ele>
<time>2011-02-07T17:24:03Z</time>
</trkpt>
<trkpt lat="43.06848999" lon="-2.86294003">
<ele>1008.065</ele>
<time>2011-02-07T17:23:50Z</time>
</trkpt>
<trkpt lat="43.06813996" lon="-2.86282000">
<ele>995.568</ele>
<time>2011-02-07T17:23:32Z</time>
</trkpt>
<trkpt lat="43.06786998" lon="-2.86265002">
<ele>990.295</ele>
<time>2011-02-07T17:23:11Z</time>
</trkpt>
<trkpt lat="43.06785003" lon="-2.86269000">
<ele>990.295</ele>
<time>2011-02-07T17:22:53Z</time>
</trkpt>
<trkpt lat="43.06691000" lon="-2.86230996">
<ele>987.887</ele>
<time>2011-02-07T17:22:10Z</time>
</trkpt>
<trkpt lat="43.06649996" lon="-2.86167998">
<ele>994.136</ele>
<time>2011-02-07T17:21:51Z</time>
</trkpt>
<trkpt lat="43.06635998" lon="-2.86141000">
<ele>1001.359</ele>
<time>2011-02-07T17:21:16Z</time>
</trkpt>
<trkpt lat="43.06556001" lon="-2.85950001">
<ele>1019.617</ele>
<time>2011-02-07T17:20:06Z</time>
</trkpt>
<trkpt lat="43.06513002" lon="-2.85900003">
<ele>1022.970</ele>
<time>2011-02-07T17:19:51Z</time>
</trkpt>
<trkpt lat="43.06477999" lon="-2.85875998">
<ele>1023.457</ele>
<time>2011-02-07T17:19:39Z</time>
</trkpt>
<trkpt lat="43.06418999" lon="-2.85854003">
<ele>1024.433</ele>
<time>2011-02-07T17:19:23Z</time>
</trkpt>
<trkpt lat="43.06359001" lon="-2.85810996">
<ele>1024.890</ele>
<time>2011-02-07T17:19:06Z</time>
</trkpt>
<trkpt lat="43.06307000" lon="-2.85789999">
<ele>1022.513</ele>
<time>2011-02-07T17:18:53Z</time>
</trkpt>
<trkpt lat="43.06287998" lon="-2.85800996">
<ele>1023.457</ele>
<time>2011-02-07T17:18:48Z</time>
</trkpt>
<trkpt lat="43.06258997" lon="-2.85852998">
<ele>1026.353</ele>
<time>2011-02-07T17:18:35Z</time>
</trkpt>
<trkpt lat="43.06224003" lon="-2.85970998">
<ele>1036.442</ele>
<time>2011-02-07T17:18:05Z</time>
</trkpt>
<trkpt lat="43.06224003" lon="-2.86026997">
<ele>1043.178</ele>
<time>2011-02-07T17:17:50Z</time>
</trkpt>
<trkpt lat="43.06208999" lon="-2.86055001">
<ele>1044.123</ele>
<time>2011-02-07T17:17:39Z</time>
</trkpt>
<trkpt lat="43.06181003" lon="-2.86064004">
<ele>1044.123</ele>
<time>2011-02-07T17:17:26Z</time>
</trkpt>
<trkpt lat="43.06155003" lon="-2.86058002">
<ele>1043.635</ele>
<time>2011-02-07T17:17:13Z</time>
</trkpt>
<trkpt lat="43.06061000" lon="-2.86003998">
<ele>1043.635</ele>
<time>2011-02-07T17:16:32Z</time>
</trkpt>
<trkpt lat="43.06034999" lon="-2.85979003">
<ele>1045.586</ele>
<time>2011-02-07T17:16:19Z</time>
</trkpt>
<trkpt lat="43.06005000" lon="-2.85930002">
<ele>1045.586</ele>
<time>2011-02-07T17:16:02Z</time>
</trkpt>
<trkpt lat="43.05959000" lon="-2.85803000">
<ele>1049.884</ele>
<time>2011-02-07T17:15:29Z</time>
</trkpt>
<trkpt lat="43.05844001" lon="-2.85596997">
<ele>1048.451</ele>
<time>2011-02-07T17:14:11Z</time>
</trkpt>
<trkpt lat="43.05820003" lon="-2.85546999">
<ele>1045.586</ele>
<time>2011-02-07T17:13:52Z</time>
</trkpt>
<trkpt lat="43.05808000" lon="-2.85507001">
<ele>1043.178</ele>
<time>2011-02-07T17:13:19Z</time>
</trkpt>
<trkpt lat="43.05808000" lon="-2.85503003">
<ele>1038.850</ele>
<time>2011-02-07T17:12:05Z</time>
</trkpt>
<trkpt lat="43.05787004" lon="-2.85471001">
<ele>1037.387</ele>
<time>2011-02-07T17:09:26Z</time>
</trkpt>
<trkpt lat="43.05775001" lon="-2.85448998">
<ele>1041.258</ele>
<time>2011-02-07T17:08:16Z</time>
</trkpt>
<trkpt lat="43.05769997" lon="-2.85427004">
<ele>1048.939</ele>
<time>2011-02-07T17:07:49Z</time>
</trkpt>
<trkpt lat="43.05755999" lon="-2.85391004">
<ele>1052.292</ele>
<time>2011-02-07T17:07:24Z</time>
</trkpt>
<trkpt lat="43.05713000" lon="-2.85323001">
<ele>1062.868</ele>
<time>2011-02-07T17:06:37Z</time>
</trkpt>
<trkpt lat="43.05680000" lon="-2.85304000">
<ele>1070.580</ele>
<time>2011-02-07T17:06:09Z</time>
</trkpt>
<trkpt lat="43.05657998" lon="-2.85281997">
<ele>1079.205</ele>
<time>2011-02-07T17:05:51Z</time>
</trkpt>
<trkpt lat="43.05647001" lon="-2.85283003">
<ele>1084.021</ele>
<time>2011-02-07T17:05:43Z</time>
</trkpt>
<trkpt lat="43.05643003" lon="-2.85277002">
<ele>1085.941</ele>
<time>2011-02-07T17:05:39Z</time>
</trkpt>
<trkpt lat="43.05617999" lon="-2.85277002">
<ele>1096.518</ele>
<time>2011-02-07T17:05:22Z</time>
</trkpt>
<trkpt lat="43.05588998" lon="-2.85241001">
<ele>1108.070</ele>
<time>2011-02-07T17:04:59Z</time>
</trkpt>
<trkpt lat="43.05548002" lon="-2.85169001">
<ele>1128.735</ele>
<time>2011-02-07T17:04:33Z</time>
</trkpt>
<trkpt lat="43.05535999" lon="-2.85126999">
<ele>1133.064</ele>
<time>2011-02-07T17:03:51Z</time>
</trkpt>
<trkpt lat="43.05489999" lon="-2.85035997">
<ele>1149.888</ele>
<time>2011-02-07T17:03:02Z</time>
</trkpt>
<trkpt lat="43.05457000" lon="-2.84938004">
<ele>1155.162</ele>
<time>2011-02-07T17:02:13Z</time>
</trkpt>
<trkpt lat="43.05378000" lon="-2.84764004">
<ele>1175.339</ele>
<time>2011-02-07T17:00:26Z</time>
</trkpt>
<trkpt lat="43.05352000" lon="-2.84696999">
<ele>1184.971</ele>
<time>2011-02-07T16:59:54Z</time>
</trkpt>
<trkpt lat="43.05338999" lon="-2.84676002">
<ele>1191.219</ele>
<time>2011-02-07T16:59:35Z</time>
</trkpt>
<trkpt lat="43.05315999" lon="-2.84567004">
<ele>1205.149</ele>
<time>2011-02-07T16:58:29Z</time>
</trkpt>
<trkpt lat="43.05305002" lon="-2.84535002">
<ele>1209.965</ele>
<time>2011-02-07T16:58:12Z</time>
</trkpt>
<trkpt lat="43.05256999" lon="-2.84433003">
<ele>1217.646</ele>
<time>2011-02-07T16:57:17Z</time>
</trkpt>
<trkpt lat="43.05196004" lon="-2.84321004">
<ele>1219.566</ele>
<time>2011-02-07T16:56:13Z</time>
</trkpt>
<trkpt lat="43.05168000" lon="-2.84214000">
<ele>1222.949</ele>
<time>2011-02-07T16:55:17Z</time>
</trkpt>
<trkpt lat="43.05171001" lon="-2.84160004">
<ele>1231.118</ele>
<time>2011-02-07T16:54:49Z</time>
</trkpt>
<trkpt lat="43.05155000" lon="-2.84086998">
<ele>1231.575</ele>
<time>2011-02-07T16:54:01Z</time>
</trkpt>
<trkpt lat="43.05158000" lon="-2.84086998">
<ele>1234.958</ele>
<time>2011-02-07T16:53:44Z</time>
</trkpt>
<trkpt lat="43.05134003" lon="-2.84010999">
<ele>1241.207</ele>
<time>2011-02-07T16:51:09Z</time>
</trkpt>
<trkpt lat="43.05119997" lon="-2.83991997">
<ele>1240.719</ele>
<time>2011-02-07T16:50:41Z</time>
</trkpt>
<trkpt lat="43.05122000" lon="-2.83899000">
<ele>1230.142</ele>
<time>2011-02-07T16:49:50Z</time>
</trkpt>
<trkpt lat="43.05135998" lon="-2.83816002">
<ele>1214.750</ele>
<time>2011-02-07T16:48:44Z</time>
</trkpt>
<trkpt lat="43.05138001" lon="-2.83750003">
<ele>1207.557</ele>
<time>2011-02-07T16:48:01Z</time>
</trkpt>
<trkpt lat="43.05147003" lon="-2.83715998">
<ele>1202.253</ele>
<time>2011-02-07T16:47:36Z</time>
</trkpt>
<trkpt lat="43.05164002" lon="-2.83698999">
<ele>1198.413</ele>
<time>2011-02-07T16:47:16Z</time>
</trkpt>
<trkpt lat="43.05171998" lon="-2.83682001">
<ele>1196.005</ele>
<time>2011-02-07T16:47:03Z</time>
</trkpt>
<trkpt lat="43.05187999" lon="-2.83607000">
<ele>1179.180</ele>
<time>2011-02-07T16:45:43Z</time>
</trkpt>
<trkpt lat="43.05174001" lon="-2.83514002">
<ele>1161.410</ele>
<time>2011-02-07T16:44:33Z</time>
</trkpt>
<trkpt lat="43.05210002" lon="-2.83428004">
<ele>1132.088</ele>
<time>2011-02-07T16:42:45Z</time>
</trkpt>
<trkpt lat="43.05221996" lon="-2.83377998">
<ele>1114.318</ele>
<time>2011-02-07T16:41:54Z</time>
</trkpt>
<trkpt lat="43.05233999" lon="-2.83369004">
<ele>1110.447</ele>
<time>2011-02-07T16:41:38Z</time>
</trkpt>
<trkpt lat="43.05246002" lon="-2.83295000">
<ele>1088.349</ele>
<time>2011-02-07T16:40:18Z</time>
</trkpt>
<trkpt lat="43.05286000" lon="-2.83177997">
<ele>1055.187</ele>
<time>2011-02-07T16:38:18Z</time>
</trkpt>
<trkpt lat="43.05290996" lon="-2.83147001">
<ele>1048.451</ele>
<time>2011-02-07T16:37:55Z</time>
</trkpt>
<trkpt lat="43.05308003" lon="-2.83131000">
<ele>1042.690</ele>
<time>2011-02-07T16:37:21Z</time>
</trkpt>
<trkpt lat="43.05306997" lon="-2.83131000">
<ele>1039.795</ele>
<time>2011-02-07T16:34:19Z</time>
</trkpt>
<trkpt lat="43.05322998" lon="-2.83115996">
<ele>1042.690</ele>
<time>2011-02-07T16:33:19Z</time>
</trkpt>
<trkpt lat="43.05355998" lon="-2.83054003">
<ele>1038.850</ele>
<time>2011-02-07T16:32:43Z</time>
</trkpt>
<trkpt lat="43.05348001" lon="-2.83021004">
<ele>1040.282</ele>
<time>2011-02-07T16:32:33Z</time>
</trkpt>
<trkpt lat="43.05339997" lon="-2.83015002">
<ele>1042.203</ele>
<time>2011-02-07T16:32:28Z</time>
</trkpt>
<trkpt lat="43.05334004" lon="-2.82985004">
<ele>1045.586</ele>
<time>2011-02-07T16:31:58Z</time>
</trkpt>
<trkpt lat="43.05325999" lon="-2.82900003">
<ele>1053.267</ele>
<time>2011-02-07T16:31:22Z</time>
</trkpt>
<trkpt lat="43.05263001" lon="-2.82802002">
<ele>1064.788</ele>
<time>2011-02-07T16:30:23Z</time>
</trkpt>
<trkpt lat="43.05243001" lon="-2.82757997">
<ele>1067.684</ele>
<time>2011-02-07T16:30:00Z</time>
</trkpt>
<trkpt lat="43.05220999" lon="-2.82720999">
<ele>1068.172</ele>
<time>2011-02-07T16:29:38Z</time>
</trkpt>
<trkpt lat="43.05196004" lon="-2.82612998">
<ele>1072.012</ele>
<time>2011-02-07T16:28:48Z</time>
</trkpt>
<trkpt lat="43.05171998" lon="-2.82540997">
<ele>1073.445</ele>
<time>2011-02-07T16:28:12Z</time>
</trkpt>
<trkpt lat="43.05131002" lon="-2.82447003">
<ele>1064.331</ele>
<time>2011-02-07T16:27:16Z</time>
</trkpt>
<trkpt lat="43.05069001" lon="-2.82356001">
<ele>1046.043</ele>
<time>2011-02-07T16:26:07Z</time>
</trkpt>
<trkpt lat="43.05060997" lon="-2.82336999">
<ele>1042.203</ele>
<time>2011-02-07T16:25:52Z</time>
</trkpt>
<trkpt lat="43.05060997" lon="-2.82313001">
<ele>1035.009</ele>
<time>2011-02-07T16:25:19Z</time>
</trkpt>
<trkpt lat="43.05068004" lon="-2.82290999">
<ele>1029.706</ele>
<time>2011-02-07T16:24:54Z</time>
</trkpt>
<trkpt lat="43.05063997" lon="-2.82284000">
<ele>1025.378</ele>
<time>2011-02-07T16:24:22Z</time>
</trkpt>
<trkpt lat="43.05063997" lon="-2.82291996">
<ele>1031.626</ele>
<time>2011-02-07T16:23:56Z</time>
</trkpt>
<trkpt lat="43.05095002" lon="-2.82290999">
<ele>1033.546</ele>
<time>2011-07-11T17:52:58Z</time>
</trkpt>
<trkpt lat="43.05128999" lon="-2.82303002">
<ele>1027.298</ele>
<time>2011-07-11T17:53:10Z</time>
</trkpt>
<trkpt lat="43.05200002" lon="-2.82326002">
<ele>1016.721</ele>
<time>2011-07-11T17:53:24Z</time>
</trkpt>
<trkpt lat="43.05224997" lon="-2.82339002">
<ele>1008.553</ele>
<time>2011-07-11T17:53:29Z</time>
</trkpt>
<trkpt lat="43.05253001" lon="-2.82340997">
<ele>998.464</ele>
<time>2011-07-11T17:53:35Z</time>
</trkpt>
<trkpt lat="43.05276998" lon="-2.82330000">
<ele>996.056</ele>
<time>2011-07-11T17:53:40Z</time>
</trkpt>
<trkpt lat="43.05308003" lon="-2.82356001">
<ele>986.942</ele>
<time>2011-07-11T17:53:48Z</time>
</trkpt>
<trkpt lat="43.05311004" lon="-2.82363997">
<ele>988.375</ele>
<time>2011-07-11T17:53:49Z</time>
</trkpt>
<trkpt lat="43.05332000" lon="-2.82406996">
<ele>982.127</ele>
<time>2011-07-11T17:53:59Z</time>
</trkpt>
<trkpt lat="43.05362997" lon="-2.82435997">
<ele>973.958</ele>
<time>2011-07-11T17:54:11Z</time>
</trkpt>
<trkpt lat="43.05401998" lon="-2.82493003">
<ele>967.710</ele>
<time>2011-07-11T17:54:27Z</time>
</trkpt>
<trkpt lat="43.05416004" lon="-2.82510001">
<ele>968.654</ele>
<time>2011-07-11T17:54:32Z</time>
</trkpt>
<trkpt lat="43.05456002" lon="-2.82484998">
<ele>971.550</ele>
<time>2011-07-11T17:54:45Z</time>
</trkpt>
<trkpt lat="43.05495003" lon="-2.82487001">
<ele>971.550</ele>
<time>2011-07-11T17:54:58Z</time>
</trkpt>
<trkpt lat="43.05521004" lon="-2.82500002">
<ele>965.302</ele>
<time>2011-07-11T17:55:08Z</time>
</trkpt>
<trkpt lat="43.05533996" lon="-2.82513002">
<ele>963.869</ele>
<time>2011-07-11T17:55:12Z</time>
</trkpt>
<trkpt lat="43.05580004" lon="-2.82572002">
<ele>958.078</ele>
<time>2011-07-11T17:55:27Z</time>
</trkpt>
<trkpt lat="43.05601998" lon="-2.82599998">
<ele>951.829</ele>
<time>2011-07-11T17:55:34Z</time>
</trkpt>
<trkpt lat="43.05643003" lon="-2.82628002">
<ele>941.253</ele>
<time>2011-07-11T17:55:46Z</time>
</trkpt>
<trkpt lat="43.05661996" lon="-2.82671001">
<ele>932.627</ele>
<time>2011-07-11T17:56:00Z</time>
</trkpt>
<trkpt lat="43.05673999" lon="-2.82710002">
<ele>927.324</ele>
<time>2011-07-11T17:56:14Z</time>
</trkpt>
<trkpt lat="43.05686999" lon="-2.82762003">
<ele>924.916</ele>
<time>2011-07-11T17:56:30Z</time>
</trkpt>
<trkpt lat="43.05706001" lon="-2.82816997">
<ele>919.155</ele>
<time>2011-07-11T17:56:47Z</time>
</trkpt>
<trkpt lat="43.05732002" lon="-2.82825999">
<ele>919.643</ele>
<time>2011-07-11T17:56:56Z</time>
</trkpt>
<trkpt lat="43.05755999" lon="-2.82875997">
<ele>913.882</ele>
<time>2011-07-11T17:57:09Z</time>
</trkpt>
<trkpt lat="43.05768999" lon="-2.82894001">
<ele>910.011</ele>
<time>2011-07-11T17:57:13Z</time>
</trkpt>
<trkpt lat="43.05795997" lon="-2.82920999">
<ele>900.410</ele>
<time>2011-07-11T17:57:20Z</time>
</trkpt>
<trkpt lat="43.05856003" lon="-2.82999001">
<ele>877.336</ele>
<time>2011-07-11T17:57:36Z</time>
</trkpt>
<trkpt lat="43.05896999" lon="-2.83054003">
<ele>867.735</ele>
<time>2011-07-11T17:57:52Z</time>
</trkpt>
<trkpt lat="43.05902003" lon="-2.83088998">
<ele>864.840</ele>
<time>2011-07-11T17:57:58Z</time>
</trkpt>
<trkpt lat="43.05928004" lon="-2.83147998">
<ele>854.751</ele>
<time>2011-07-11T17:58:09Z</time>
</trkpt>
<trkpt lat="43.05942002" lon="-2.83170998">
<ele>851.855</ele>
<time>2011-07-11T17:58:13Z</time>
</trkpt>
<trkpt lat="43.05965999" lon="-2.83228003">
<ele>839.846</ele>
<time>2011-07-11T17:58:22Z</time>
</trkpt>
<trkpt lat="43.05972998" lon="-2.83252001">
<ele>835.518</ele>
<time>2011-07-11T17:58:26Z</time>
</trkpt>
<trkpt lat="43.05974004" lon="-2.83289996">
<ele>830.245</ele>
<time>2011-07-11T17:58:31Z</time>
</trkpt>
<trkpt lat="43.05968002" lon="-2.83317002">
<ele>826.861</ele>
<time>2011-07-11T17:58:35Z</time>
</trkpt>
<trkpt lat="43.05962001" lon="-2.83335996">
<ele>824.454</ele>
<time>2011-07-11T17:58:39Z</time>
</trkpt>
<trkpt lat="43.05962998" lon="-2.83354998">
<ele>823.509</ele>
<time>2011-07-11T17:58:42Z</time>
</trkpt>
<trkpt lat="43.05978002" lon="-2.83397997">
<ele>821.588</ele>
<time>2011-07-11T17:58:49Z</time>
</trkpt>
<trkpt lat="43.06002997" lon="-2.83469000">
<ele>815.340</ele>
<time>2011-07-11T17:59:03Z</time>
</trkpt>
<trkpt lat="43.06008001" lon="-2.83510004">
<ele>811.957</ele>
<time>2011-07-11T17:59:09Z</time>
</trkpt>
<trkpt lat="43.06030003" lon="-2.83528000">
<ele>810.036</ele>
<time>2011-07-11T17:59:18Z</time>
</trkpt>
<trkpt lat="43.06030003" lon="-2.83525997">
<ele>807.659</ele>
<time>2011-07-11T17:59:33Z</time>
</trkpt>
<trkpt lat="43.06030003" lon="-2.83528000">
<ele>861.487</ele>
<time>2011-07-12T16:00:06Z</time>
</trkpt>
</trkseg>
</trk>
<trk>
<name>Martxa_Ertaina</name>
<desc>Martxa_Ertaina</desc>
<extensions>
<time xmlns="http://www.topografix.com/GPX/gpx_modified/0/1">2012-09-20T06:40:30.656Z</time>
<label xmlns="http://www.topografix.com/GPX/gpx_overlay/0/3">
<label_text>Martxa_Ertaina</label_text>
</label>
</extensions>
<trkseg>
<trkpt lat="43.10705001" lon="-2.91150000">
<ele>161.148</ele>
<time>2011-02-07T12:09:26Z</time>
</trkpt>
<trkpt lat="43.10676000" lon="-2.91018999">
<ele>167.884</ele>
<time>2011-02-07T12:09:45Z</time>
</trkpt>
<trkpt lat="43.10640000" lon="-2.90907998">
<ele>164.043</ele>
<time>2011-02-07T12:09:54Z</time>
</trkpt>
<trkpt lat="43.10584000" lon="-2.90710000">
<ele>162.123</ele>
<time>2011-02-07T12:10:07Z</time>
</trkpt>
<trkpt lat="43.10563004" lon="-2.90674000">
<ele>162.611</ele>
<time>2011-02-07T12:10:11Z</time>
</trkpt>
<trkpt lat="43.10541001" lon="-2.90670999">
<ele>163.556</ele>
<time>2011-02-07T12:10:16Z</time>
</trkpt>
<trkpt lat="43.10508002" lon="-2.90647002">
<ele>159.715</ele>
<time>2011-02-07T12:10:24Z</time>
</trkpt>
<trkpt lat="43.10512000" lon="-2.90638997">
<ele>160.203</ele>
<time>2011-02-07T12:10:25Z</time>
</trkpt>
<trkpt lat="43.10471004" lon="-2.90586996">
<ele>209.215</ele>
<time>2011-08-03T14:39:35Z</time>
</trkpt>
<trkpt lat="43.10417997" lon="-2.90599996">
<ele>176.052</ele>
<time>2011-08-03T14:39:51Z</time>
</trkpt>
<trkpt lat="43.10367999" lon="-2.90592997">
<ele>176.052</ele>
<time>2011-08-03T14:40:02Z</time>
</trkpt>
<trkpt lat="43.10341001" lon="-2.90568002">
<ele>176.540</ele>
<time>2011-08-03T14:40:11Z</time>
</trkpt>
<trkpt lat="43.10331001" lon="-2.90542999">
<ele>179.436</ele>
<time>2011-08-03T14:40:19Z</time>
</trkpt>
<trkpt lat="43.10242002" lon="-2.90480001">
<ele>180.868</ele>
<time>2011-08-03T14:40:44Z</time>
</trkpt>
<trkpt lat="43.10210997" lon="-2.90464997">
<ele>187.117</ele>
<time>2011-08-03T14:40:54Z</time>
</trkpt>
<trkpt lat="43.10203998" lon="-2.90385000">
<ele>190.957</ele>
<time>2011-08-03T14:41:19Z</time>
</trkpt>
<trkpt lat="43.10176003" lon="-2.90371003">
<ele>191.933</ele>
<time>2011-08-03T14:41:29Z</time>
</trkpt>
<trkpt lat="43.10124001" lon="-2.90355002">
<ele>199.614</ele>
<time>2011-08-03T14:41:42Z</time>
</trkpt>
<trkpt lat="43.10124001" lon="-2.90355002">
<ele>190.470</ele>
<time>2011-08-03T14:43:41Z</time>
</trkpt>
<trkpt lat="43.10066996" lon="-2.90369997">
<ele>191.445</ele>
<time>2011-08-03T14:45:31Z</time>
</trkpt>
<trkpt lat="43.10000997" lon="-2.90362000">
<ele>193.853</ele>
<time>2011-08-03T14:45:47Z</time>
</trkpt>
<trkpt lat="43.09969003" lon="-2.90378002">
<ele>196.718</ele>
<time>2011-08-03T14:45:58Z</time>
</trkpt>
<trkpt lat="43.09954000" lon="-2.90433004">
<ele>198.181</ele>
<time>2011-08-03T14:46:11Z</time>
</trkpt>
<trkpt lat="43.09882997" lon="-2.90588002">
<ele>215.463</ele>
<time>2011-08-03T14:47:07Z</time>
</trkpt>
<trkpt lat="43.09845001" lon="-2.90638997">
<ele>218.359</ele>
<time>2011-08-03T14:47:26Z</time>
</trkpt>
<trkpt lat="43.09822999" lon="-2.90679004">
<ele>217.871</ele>
<time>2011-08-03T14:47:35Z</time>
</trkpt>
<trkpt lat="43.09819998" lon="-2.90691996">
<ele>217.871</ele>
<time>2011-08-03T14:47:37Z</time>
</trkpt>
<trkpt lat="43.09799999" lon="-2.90704996">
<ele>219.791</ele>
<time>2011-08-03T14:47:45Z</time>
</trkpt>
<trkpt lat="43.09759003" lon="-2.90681996">
<ele>230.856</ele>
<time>2011-08-03T14:48:04Z</time>
</trkpt>
<trkpt lat="43.09714998" lon="-2.90674000">
<ele>231.800</ele>
<time>2011-08-03T14:48:23Z</time>
</trkpt>
<trkpt lat="43.09681999" lon="-2.90673003">
<ele>235.671</ele>
<time>2011-08-03T14:48:39Z</time>
</trkpt>
<trkpt lat="43.09625999" lon="-2.90657999">
<ele>240.457</ele>
<time>2011-08-03T14:49:09Z</time>
</trkpt>
<trkpt lat="43.09599998" lon="-2.90644999">
<ele>244.785</ele>
<time>2011-08-03T14:49:27Z</time>
</trkpt>
<trkpt lat="43.09577996" lon="-2.90620004">
<ele>251.033</ele>
<time>2011-08-03T14:49:46Z</time>
</trkpt>
<trkpt lat="43.09560997" lon="-2.90592997">
<ele>254.874</ele>
<time>2011-08-03T14:50:03Z</time>
</trkpt>
<trkpt lat="43.09550998" lon="-2.90556000">
<ele>261.610</ele>
<time>2011-08-03T14:50:23Z</time>
</trkpt>
<trkpt lat="43.09542004" lon="-2.90530996">
<ele>263.530</ele>
<time>2011-08-03T14:50:37Z</time>
</trkpt>
<trkpt lat="43.09537000" lon="-2.90535003">
<ele>264.018</ele>
<time>2011-08-03T14:50:41Z</time>
</trkpt>
<trkpt lat="43.09517001" lon="-2.90569997">
<ele>268.346</ele>
<time>2011-08-03T14:51:01Z</time>
</trkpt>
<trkpt lat="43.09516003" lon="-2.90581003">
<ele>271.699</ele>
<time>2011-08-03T14:51:07Z</time>
</trkpt>
<trkpt lat="43.09497002" lon="-2.90651000">
<ele>276.515</ele>
<time>2011-08-03T14:51:39Z</time>
</trkpt>
<trkpt lat="43.09484001" lon="-2.90687000">
<ele>282.275</ele>
<time>2011-08-03T14:51:57Z</time>
</trkpt>
<trkpt lat="43.09474999" lon="-2.90670002">
<ele>291.907</ele>
<time>2011-08-03T14:52:10Z</time>
</trkpt>
<trkpt lat="43.09455000" lon="-2.90608001">
<ele>302.484</ele>
<time>2011-08-03T14:52:43Z</time>
</trkpt>
<trkpt lat="43.09455997" lon="-2.90591002">
<ele>309.189</ele>
<time>2011-08-03T14:52:52Z</time>
</trkpt>
<trkpt lat="43.09460004" lon="-2.90579997">
<ele>317.358</ele>
<time>2011-08-03T14:52:57Z</time>
</trkpt>
<trkpt lat="43.09449996" lon="-2.90549001">
<ele>322.661</ele>
<time>2011-08-03T14:53:10Z</time>
</trkpt>
<trkpt lat="43.09441002" lon="-2.90532002">
<ele>320.253</ele>
<time>2011-08-03T14:53:19Z</time>
</trkpt>
<trkpt lat="43.09434003" lon="-2.90515004">
<ele>321.686</ele>
<time>2011-08-03T14:53:27Z</time>
</trkpt>
<trkpt lat="43.09426996" lon="-2.90483002">
<ele>326.989</ele>
<time>2011-08-03T14:53:42Z</time>
</trkpt>
<trkpt lat="43.09419997" lon="-2.90460999">
<ele>327.477</ele>
<time>2011-08-03T14:53:54Z</time>
</trkpt>
<trkpt lat="43.09409000" lon="-2.90441000">
<ele>326.014</ele>
<time>2011-08-03T14:54:06Z</time>
</trkpt>
<trkpt lat="43.09396997" lon="-2.90418997">
<ele>330.342</ele>
<time>2011-08-03T14:54:18Z</time>
</trkpt>
<trkpt lat="43.09360997" lon="-2.90374003">
<ele>327.477</ele>
<time>2011-08-03T14:54:45Z</time>
</trkpt>
<trkpt lat="43.09339003" lon="-2.90342001">
<ele>329.855</ele>
<time>2011-08-03T14:55:00Z</time>
</trkpt>
<trkpt lat="43.09319003" lon="-2.90307996">
<ele>340.919</ele>
<time>2011-08-03T14:55:15Z</time>
</trkpt>
<trkpt lat="43.09304000" lon="-2.90274996">
<ele>336.103</ele>
<time>2011-08-03T14:55:34Z</time>
</trkpt>
<trkpt lat="43.09300002" lon="-2.90260999">
<ele>339.974</ele>
<time>2011-08-03T14:55:43Z</time>
</trkpt>
<trkpt lat="43.09281000" lon="-2.90238996">
<ele>338.511</ele>
<time>2011-08-03T14:55:58Z</time>
</trkpt>
<trkpt lat="43.09252996" lon="-2.90188001">
<ele>345.247</ele>
<time>2011-08-03T14:56:29Z</time>
</trkpt>
<trkpt lat="43.09240004" lon="-2.90167004">
<ele>351.008</ele>
<time>2011-08-03T14:56:43Z</time>
</trkpt>
<trkpt lat="43.09215001" lon="-2.90145999">
<ele>351.008</ele>
<time>2011-08-03T14:56:59Z</time>
</trkpt>
<trkpt lat="43.09189000" lon="-2.90129000">
<ele>351.495</ele>
<time>2011-08-03T14:57:17Z</time>
</trkpt>
<trkpt lat="43.09169998" lon="-2.90126997">
<ele>359.664</ele>
<time>2011-08-03T14:57:33Z</time>
</trkpt>
<trkpt lat="43.09153997" lon="-2.90122001">
<ele>361.584</ele>
<time>2011-08-03T14:57:46Z</time>
</trkpt>
<trkpt lat="43.09137996" lon="-2.90077996">
<ele>374.569</ele>
<time>2011-08-03T14:58:06Z</time>
</trkpt>
<trkpt lat="43.09130997" lon="-2.90030002">
<ele>378.409</ele>
<time>2011-08-03T14:58:26Z</time>
</trkpt>
<trkpt lat="43.09117997" lon="-2.89993004">
<ele>377.464</ele>
<time>2011-08-03T14:58:44Z</time>
</trkpt>
<trkpt lat="43.09100999" lon="-2.89959996">
<ele>380.329</ele>
<time>2011-08-03T14:59:02Z</time>
</trkpt>
<trkpt lat="43.09074000" lon="-2.89899001">
<ele>393.802</ele>
<time>2011-08-03T14:59:36Z</time>
</trkpt>
<trkpt lat="43.09057002" lon="-2.89859002">
<ele>398.617</ele>
<time>2011-08-03T14:59:54Z</time>
</trkpt>
<trkpt lat="43.09041998" lon="-2.89808996">
<ele>401.483</ele>
<time>2011-08-03T15:00:15Z</time>
</trkpt>
<trkpt lat="43.09017004" lon="-2.89715001">
<ele>415.900</ele>
<time>2011-08-03T15:01:01Z</time>
</trkpt>
<trkpt lat="43.08995001" lon="-2.89669001">
<ele>419.740</ele>
<time>2011-08-03T15:01:23Z</time>
</trkpt>
<trkpt lat="43.08969000" lon="-2.89627000">
<ele>420.228</ele>
<time>2011-08-03T15:01:39Z</time>
</trkpt>
<trkpt lat="43.08946998" lon="-2.89577002">
<ele>424.068</ele>
<time>2011-08-03T15:01:57Z</time>
</trkpt>
<trkpt lat="43.08929002" lon="-2.89550004">
<ele>426.964</ele>
<time>2011-08-03T15:02:10Z</time>
</trkpt>
<trkpt lat="43.08910000" lon="-2.89528999">
<ele>424.068</ele>
<time>2011-08-03T15:02:26Z</time>
</trkpt>
<trkpt lat="43.08912003" lon="-2.89489998">
<ele>431.780</ele>
<time>2011-08-03T15:02:41Z</time>
</trkpt>
<trkpt lat="43.08909003" lon="-2.89453000">
<ele>434.188</ele>
<time>2011-08-03T15:02:54Z</time>
</trkpt>
<trkpt lat="43.08933000" lon="-2.89376004">
<ele>427.452</ele>
<time>2011-08-03T15:03:12Z</time>
</trkpt>
<trkpt lat="43.08940996" lon="-2.89328998">
<ele>423.611</ele>
<time>2011-08-03T15:03:18Z</time>
</trkpt>
<trkpt lat="43.08962999" lon="-2.89255003">
<ele>420.715</ele>
<time>2011-08-03T15:03:30Z</time>
</trkpt>
<trkpt lat="43.08976997" lon="-2.89197000">
<ele>423.611</ele>
<time>2011-08-03T15:03:48Z</time>
</trkpt>
<trkpt lat="43.08984004" lon="-2.89145996">
<ele>429.372</ele>
<time>2011-08-03T15:04:09Z</time>
</trkpt>
<trkpt lat="43.08975999" lon="-2.89098999">
<ele>437.540</ele>
<time>2011-08-03T15:04:29Z</time>
</trkpt>
<trkpt lat="43.08963996" lon="-2.89075001">
<ele>438.028</ele>
<time>2011-08-03T15:04:40Z</time>
</trkpt>
<trkpt lat="43.08956997" lon="-2.89053996">
<ele>443.301</ele>
<time>2011-08-03T15:04:50Z</time>
</trkpt>
<trkpt lat="43.08939999" lon="-2.89028004">
<ele>444.276</ele>
<time>2011-08-03T15:05:04Z</time>
</trkpt>
<trkpt lat="43.08896002" lon="-2.88971996">
<ele>447.629</ele>
<time>2011-08-03T15:05:35Z</time>
</trkpt>
<trkpt lat="43.08876003" lon="-2.88954000">
<ele>447.629</ele>
<time>2011-08-03T15:05:48Z</time>
</trkpt>
<trkpt lat="43.08856004" lon="-2.88934998">
<ele>452.933</ele>
<time>2011-08-03T15:06:03Z</time>
</trkpt>
<trkpt lat="43.08834999" lon="-2.88911001">
<ele>459.181</ele>
<time>2011-08-03T15:06:20Z</time>
</trkpt>
<trkpt lat="43.08834999" lon="-2.88907003">
<ele>463.022</ele>
<time>2011-08-03T15:06:23Z</time>
</trkpt>
<trkpt lat="43.08834999" lon="-2.88868002">
<ele>474.055</ele>
<time>2011-08-03T15:06:36Z</time>
</trkpt>
<trkpt lat="43.08837002" lon="-2.88829998">
<ele>477.926</ele>
<time>2011-08-03T15:06:46Z</time>
</trkpt>
<trkpt lat="43.08864998" lon="-2.88803997">
<ele>475.518</ele>
<time>2011-08-03T15:07:04Z</time>
</trkpt>
<trkpt lat="43.08877998" lon="-2.88764996">
<ele>474.055</ele>
<time>2011-08-03T15:07:20Z</time>
</trkpt>
<trkpt lat="43.08880001" lon="-2.88731997">
<ele>477.439</ele>
<time>2011-08-03T15:07:33Z</time>
</trkpt>
<trkpt lat="43.08861997" lon="-2.88655998">
<ele>481.279</ele>
<time>2011-08-03T15:08:08Z</time>
</trkpt>
<trkpt lat="43.08861000" lon="-2.88622001">
<ele>485.120</ele>
<time>2011-08-03T15:08:23Z</time>
</trkpt>
<trkpt lat="43.08857001" lon="-2.88595003">
<ele>493.288</ele>
<time>2011-08-03T15:08:38Z</time>
</trkpt>
<trkpt lat="43.08841000" lon="-2.88566002">
<ele>495.209</ele>
<time>2011-08-03T15:08:55Z</time>
</trkpt>
<trkpt lat="43.08841000" lon="-2.88523003">
<ele>505.785</ele>
<time>2011-08-03T15:09:15Z</time>
</trkpt>
<trkpt lat="43.08837002" lon="-2.88494999">
<ele>506.760</ele>
<time>2011-08-03T15:09:32Z</time>
</trkpt>
<trkpt lat="43.08831998" lon="-2.88461999">
<ele>503.865</ele>
<time>2011-08-03T15:09:47Z</time>
</trkpt>
<trkpt lat="43.08830003" lon="-2.88425999">
<ele>509.168</ele>
<time>2011-08-03T15:10:04Z</time>
</trkpt>
<trkpt lat="43.08837002" lon="-2.88385003">
<ele>514.929</ele>
<time>2011-08-03T15:10:24Z</time>
</trkpt>
<trkpt lat="43.08848997" lon="-2.88352003">
<ele>523.585</ele>
<time>2011-08-03T15:10:43Z</time>
</trkpt>
<trkpt lat="43.08866004" lon="-2.88288997">
<ele>527.426</ele>
<time>2011-08-03T15:11:16Z</time>
</trkpt>
<trkpt lat="43.08867998" lon="-2.88264999">
<ele>528.858</ele>
<time>2011-08-03T15:11:28Z</time>
</trkpt>
<trkpt lat="43.08876003" lon="-2.88235998">
<ele>534.162</ele>
<time>2011-08-03T15:11:43Z</time>
</trkpt>
<trkpt lat="43.08877001" lon="-2.88218999">
<ele>534.619</ele>
<time>2011-08-03T15:11:51Z</time>
</trkpt>
<trkpt lat="43.08891996" lon="-2.88168004">
<ele>541.843</ele>
<time>2011-08-03T15:12:18Z</time>
</trkpt>
<trkpt lat="43.08906999" lon="-2.88122004">
<ele>543.763</ele>
<time>2011-08-03T15:12:39Z</time>
</trkpt>
<trkpt lat="43.08906999" lon="-2.88083003">
<ele>546.171</ele>
<time>2011-08-03T15:12:56Z</time>
</trkpt>
<trkpt lat="43.08889003" lon="-2.88061000">
<ele>545.683</ele>
<time>2011-08-03T15:13:11Z</time>
</trkpt>
<trkpt lat="43.08868996" lon="-2.88051998">
<ele>549.036</ele>
<time>2011-08-03T15:13:25Z</time>
</trkpt>
<trkpt lat="43.08844001" lon="-2.88054999">
<ele>552.420</ele>
<time>2011-08-03T15:13:41Z</time>
</trkpt>
<trkpt lat="43.08807003" lon="-2.88097001">
<ele>567.781</ele>
<time>2011-08-03T15:14:16Z</time>
</trkpt>
<trkpt lat="43.08782998" lon="-2.88117000">
<ele>571.652</ele>
<time>2011-08-03T15:14:39Z</time>
</trkpt>
<trkpt lat="43.08746000" lon="-2.88156998">
<ele>582.686</ele>
<time>2011-08-03T15:15:16Z</time>
</trkpt>
<trkpt lat="43.08667998" lon="-2.88221003">
<ele>597.591</ele>
<time>2011-08-03T15:16:26Z</time>
</trkpt>
<trkpt lat="43.08604999" lon="-2.88258000">
<ele>605.302</ele>
<time>2011-08-03T15:17:14Z</time>
</trkpt>
<trkpt lat="43.08588998" lon="-2.88288997">
<ele>611.551</ele>
<time>2011-08-03T15:17:33Z</time>
</trkpt>
<trkpt lat="43.08538003" lon="-2.88376001">
<ele>619.719</ele>
<time>2011-08-03T15:18:21Z</time>
</trkpt>
<trkpt lat="43.08512002" lon="-2.88382002">
<ele>622.584</ele>
<time>2011-08-03T15:18:38Z</time>
</trkpt>
<trkpt lat="43.08489002" lon="-2.88369999">
<ele>627.400</ele>
<time>2011-08-03T15:18:58Z</time>
</trkpt>
<trkpt lat="43.08470998" lon="-2.88399998">
<ele>634.594</ele>
<time>2011-08-03T15:19:21Z</time>
</trkpt>
<trkpt lat="43.08447998" lon="-2.88432998">
<ele>639.897</ele>
<time>2011-08-03T15:19:46Z</time>
</trkpt>
<trkpt lat="43.08410003" lon="-2.88488997">
<ele>651.419</ele>
<time>2011-08-03T15:20:25Z</time>
</trkpt>
<trkpt lat="43.08388000" lon="-2.88517001">
<ele>658.155</ele>
<time>2011-08-03T15:20:47Z</time>
</trkpt>
<trkpt lat="43.08357004" lon="-2.88527998">
<ele>661.050</ele>
<time>2011-08-03T15:21:11Z</time>
</trkpt>
<trkpt lat="43.08328003" lon="-2.88526003">
<ele>665.836</ele>
<time>2011-08-03T15:21:33Z</time>
</trkpt>
<trkpt lat="43.08308003" lon="-2.88493004">
<ele>667.299</ele>
<time>2011-08-03T15:21:52Z</time>
</trkpt>
<trkpt lat="43.08306998" lon="-2.88432000">
<ele>668.244</ele>
<time>2011-08-03T15:22:11Z</time>
</trkpt>
<trkpt lat="43.08309001" lon="-2.88408003">
<ele>670.164</ele>
<time>2011-08-03T15:22:48Z</time>
</trkpt>
<trkpt lat="43.08283998" lon="-2.88235998">
<ele>682.661</ele>
<time>2011-08-03T15:23:52Z</time>
</trkpt>
<trkpt lat="43.08254996" lon="-2.88137997">
<ele>691.317</ele>
<time>2011-08-03T15:24:34Z</time>
</trkpt>
<trkpt lat="43.08239004" lon="-2.88093003">
<ele>695.645</ele>
<time>2011-08-03T15:24:56Z</time>
</trkpt>
<trkpt lat="43.08181001" lon="-2.87962999">
<ele>707.197</ele>
<time>2011-08-03T15:25:56Z</time>
</trkpt>
<trkpt lat="43.08138999" lon="-2.87877998">
<ele>714.878</ele>
<time>2011-08-03T15:26:36Z</time>
</trkpt>
<trkpt lat="43.08047997" lon="-2.87644001">
<ele>738.439</ele>
<time>2011-08-03T15:28:32Z</time>
</trkpt>
<trkpt lat="43.07987002" lon="-2.87512003">
<ele>751.393</ele>
<time>2011-08-03T15:29:37Z</time>
</trkpt>
<trkpt lat="43.07924003" lon="-2.87401998">
<ele>766.785</ele>
<time>2011-08-03T15:30:49Z</time>
</trkpt>
<trkpt lat="43.07826002" lon="-2.87249004">
<ele>786.963</ele>
<time>2011-08-03T15:32:34Z</time>
</trkpt>
<trkpt lat="43.07786004" lon="-2.87171999">
<ele>796.107</ele>
<time>2011-08-03T15:33:20Z</time>
</trkpt>
<trkpt lat="43.07754999" lon="-2.87099998">
<ele>805.251</ele>
<time>2011-08-03T15:34:02Z</time>
</trkpt>
<trkpt lat="43.07738001" lon="-2.87069002">
<ele>809.092</ele>
<time>2011-08-03T15:34:22Z</time>
</trkpt>
<trkpt lat="43.07725000" lon="-2.87021996">
<ele>817.260</ele>
<time>2011-08-03T15:34:50Z</time>
</trkpt>
<trkpt lat="43.07712997" lon="-2.86994001">
<ele>821.101</ele>
<time>2011-08-03T15:35:10Z</time>
</trkpt>
<trkpt lat="43.07666000" lon="-2.86896997">
<ele>836.950</ele>
<time>2011-08-03T15:36:21Z</time>
</trkpt>
<trkpt lat="43.07617997" lon="-2.86807001">
<ele>850.422</ele>
<time>2011-08-03T15:37:26Z</time>
</trkpt>
<trkpt lat="43.07603002" lon="-2.86786004">
<ele>853.318</ele>
<time>2011-08-03T15:37:42Z</time>
</trkpt>
<trkpt lat="43.07607997" lon="-2.86755997">
<ele>856.183</ele>
<time>2011-08-03T15:37:58Z</time>
</trkpt>
<trkpt lat="43.07626999" lon="-2.86754999">
<ele>855.696</ele>
<time>2011-08-03T15:38:10Z</time>
</trkpt>
<trkpt lat="43.07620000" lon="-2.86729996">
<ele>855.238</ele>
<time>2011-08-03T15:38:25Z</time>
</trkpt>
<trkpt lat="43.07603002" lon="-2.86748000">
<ele>857.159</ele>
<time>2011-08-03T15:38:42Z</time>
</trkpt>
<trkpt lat="43.07540003" lon="-2.86718002">
<ele>862.432</ele>
<time>2011-08-03T15:39:30Z</time>
</trkpt>
<trkpt lat="43.07486996" lon="-2.86681004">
<ele>869.168</ele>
<time>2011-08-03T15:40:10Z</time>
</trkpt>
<trkpt lat="43.07442002" lon="-2.86656998">
<ele>876.849</ele>
<time>2011-08-03T15:40:48Z</time>
</trkpt>
<trkpt lat="43.07386003" lon="-2.86619003">
<ele>888.401</ele>
<time>2011-08-03T15:41:38Z</time>
</trkpt>
<trkpt lat="43.07360999" lon="-2.86613001">
<ele>893.216</ele>
<time>2011-08-03T15:41:58Z</time>
</trkpt>
<trkpt lat="43.07334999" lon="-2.86620998">
<ele>897.514</ele>
<time>2011-08-03T15:42:18Z</time>
</trkpt>
<trkpt lat="43.07314002" lon="-2.86607997">
<ele>901.842</ele>
<time>2011-08-03T15:42:37Z</time>
</trkpt>
<trkpt lat="43.07284003" lon="-2.86561998">
<ele>910.499</ele>
<time>2011-08-03T15:43:15Z</time>
</trkpt>
<trkpt lat="43.07255999" lon="-2.86542996">
<ele>913.882</ele>
<time>2011-08-03T15:43:37Z</time>
</trkpt>
<trkpt lat="43.07223997" lon="-2.86538998">
<ele>917.235</ele>
<time>2011-08-03T15:43:59Z</time>
</trkpt>
<trkpt lat="43.07193998" lon="-2.86561998">
<ele>921.563</ele>
<time>2011-08-03T15:44:21Z</time>
</trkpt>
<trkpt lat="43.07078999" lon="-2.86693996">
<ele>941.741</ele>
<time>2011-08-03T15:45:58Z</time>
</trkpt>
<trkpt lat="43.07049997" lon="-2.86708999">
<ele>946.069</ele>
<time>2011-08-03T15:46:16Z</time>
</trkpt>
<trkpt lat="43.07016000" lon="-2.86708002">
<ele>951.372</ele>
<time>2011-08-03T15:46:39Z</time>
</trkpt>
<trkpt lat="43.06954997" lon="-2.86676000">
<ele>961.949</ele>
<time>2011-08-03T15:47:23Z</time>
</trkpt>
<trkpt lat="43.06927001" lon="-2.86633001">
<ele>964.814</ele>
<time>2011-08-03T15:47:46Z</time>
</trkpt>
<trkpt lat="43.06926004" lon="-2.86626999">
<ele>965.302</ele>
<time>2011-08-03T15:47:49Z</time>
</trkpt>
<trkpt lat="43.06936003" lon="-2.86623001">
<ele>967.222</ele>
<time>2011-08-03T15:47:57Z</time>
</trkpt>
<trkpt lat="43.06967000" lon="-2.86636001">
<ele>970.575</ele>
<time>2011-08-03T15:48:15Z</time>
</trkpt>
<trkpt lat="43.06995003" lon="-2.86610998">
<ele>973.958</ele>
<time>2011-08-03T15:48:34Z</time>
</trkpt>
<trkpt lat="43.06992003" lon="-2.86577999">
<ele>976.823</ele>
<time>2011-08-03T15:48:50Z</time>
</trkpt>
<trkpt lat="43.06974996" lon="-2.86548997">
<ele>981.151</ele>
<time>2011-08-03T15:49:09Z</time>
</trkpt>
<trkpt lat="43.06957000" lon="-2.86508999">
<ele>985.967</ele>
<time>2011-08-03T15:49:32Z</time>
</trkpt>
<trkpt lat="43.06927001" lon="-2.86426999">
<ele>991.728</ele>
<time>2011-08-03T15:50:13Z</time>
</trkpt>
<trkpt lat="43.06901998" lon="-2.86387998">
<ele>996.056</ele>
<time>2011-08-03T15:50:35Z</time>
</trkpt>
<trkpt lat="43.06874002" lon="-2.86361997">
<ele>1000.872</ele>
<time>2011-08-03T15:50:56Z</time>
</trkpt>
<trkpt lat="43.06839997" lon="-2.86321999">
<ele>1000.384</ele>
<time>2011-08-03T15:51:13Z</time>
</trkpt>
<trkpt lat="43.06776001" lon="-2.86265002">
<ele>992.703</ele>
<time>2011-08-03T15:51:27Z</time>
</trkpt>
<trkpt lat="43.06684999" lon="-2.86225003">
<ele>995.111</ele>
<time>2011-08-03T15:51:53Z</time>
</trkpt>
<trkpt lat="43.06662996" lon="-2.86196999">
<ele>995.568</ele>
<time>2011-08-03T15:52:06Z</time>
</trkpt>
<trkpt lat="43.06632000" lon="-2.86128997">
<ele>1005.200</ele>
<time>2011-08-03T15:52:43Z</time>
</trkpt>
<trkpt lat="43.06576001" lon="-2.85989002">
<ele>1018.642</ele>
<time>2011-08-03T15:53:58Z</time>
</trkpt>
<trkpt lat="43.06553998" lon="-2.85944997">
<ele>1022.513</ele>
<time>2011-08-03T15:54:19Z</time>
</trkpt>
<trkpt lat="43.06520001" lon="-2.85904999">
<ele>1026.353</ele>
<time>2011-08-03T15:54:39Z</time>
</trkpt>
<trkpt lat="43.06475996" lon="-2.85875998">
<ele>1027.298</ele>
<time>2011-08-03T15:54:56Z</time>
</trkpt>
<trkpt lat="43.06376997" lon="-2.85829000">
<ele>1028.761</ele>
<time>2011-08-03T15:55:29Z</time>
</trkpt>
<trkpt lat="43.06349002" lon="-2.85805003">
<ele>1028.273</ele>
<time>2011-08-03T15:55:38Z</time>
</trkpt>
<trkpt lat="43.06332003" lon="-2.85796001">
<ele>1026.810</ele>
<time>2011-08-03T15:55:42Z</time>
</trkpt>
<trkpt lat="43.06320998" lon="-2.85793997">
<ele>1026.353</ele>
<time>2011-08-03T15:55:44Z</time>
</trkpt>
<trkpt lat="43.06284998" lon="-2.85809001">
<ele>1027.298</ele>
<time>2011-08-03T15:55:55Z</time>
</trkpt>
<trkpt lat="43.06257002" lon="-2.85862000">
<ele>1030.194</ele>
<time>2011-08-03T15:56:13Z</time>
</trkpt>
<trkpt lat="43.06227003" lon="-2.85959003">
<ele>1038.850</ele>
<time>2011-08-03T15:56:47Z</time>
</trkpt>
<trkpt lat="43.06224003" lon="-2.86009999">
<ele>1042.203</ele>
<time>2011-08-03T15:57:04Z</time>
</trkpt>
<trkpt lat="43.06215998" lon="-2.86045999">
<ele>1045.586</ele>
<time>2011-08-03T15:57:20Z</time>
</trkpt>
<trkpt lat="43.06179000" lon="-2.86065001">
<ele>1047.018</ele>
<time>2011-08-03T15:57:38Z</time>
</trkpt>
<trkpt lat="43.06152002" lon="-2.86056996">
<ele>1047.018</ele>
<time>2011-08-03T15:57:50Z</time>
</trkpt>
<trkpt lat="43.06116999" lon="-2.86036997">
<ele>1045.586</ele>
<time>2011-08-03T15:58:02Z</time>
</trkpt>
<trkpt lat="43.06045996" lon="-2.86022999">
<ele>1037.387</ele>
<time>2011-08-03T15:58:18Z</time>
</trkpt>
<trkpt lat="43.06024002" lon="-2.86006998">
<ele>1034.522</ele>
<time>2011-08-03T15:58:22Z</time>
</trkpt>
<trkpt lat="43.05958003" lon="-2.85940999">
<ele>1026.353</ele>
<time>2011-08-03T15:58:35Z</time>
</trkpt>
<trkpt lat="43.05893001" lon="-2.85842998">
<ele>1021.050</ele>
<time>2011-08-03T15:58:54Z</time>
</trkpt>
<trkpt lat="43.05866003" lon="-2.85816997">
<ele>1018.642</ele>
<time>2011-08-03T15:58:59Z</time>
</trkpt>
<trkpt lat="43.05831000" lon="-2.85762004">
<ele>1015.776</ele>
<time>2011-08-03T15:59:07Z</time>
</trkpt>
<trkpt lat="43.05801999" lon="-2.85721997">
<ele>1014.801</ele>
<time>2011-08-03T15:59:14Z</time>
</trkpt>
<trkpt lat="43.05758002" lon="-2.85720999">
<ele>1008.553</ele>
<time>2011-08-03T15:59:23Z</time>
</trkpt>
<trkpt lat="43.05739998" lon="-2.85757997">
<ele>1004.225</ele>
<time>2011-08-03T15:59:29Z</time>
</trkpt>
<trkpt lat="43.05715003" lon="-2.85785004">
<ele>999.896</ele>
<time>2011-08-03T15:59:36Z</time>
</trkpt>
<trkpt lat="43.05708004" lon="-2.85812999">
<ele>997.519</ele>
<time>2011-08-03T15:59:41Z</time>
</trkpt>
<trkpt lat="43.05696001" lon="-2.85838002">
<ele>997.519</ele>
<time>2011-08-03T15:59:49Z</time>
</trkpt>
<trkpt lat="43.05672004" lon="-2.85855001">
<ele>1001.817</ele>
<time>2011-08-03T16:00:07Z</time>
</trkpt>
<trkpt lat="43.05644000" lon="-2.85882996">
<ele>1006.145</ele>
<time>2011-08-03T16:00:25Z</time>
</trkpt>
<trkpt lat="43.05610003" lon="-2.85931000">
<ele>1010.016</ele>
<time>2011-08-03T16:00:45Z</time>
</trkpt>
<trkpt lat="43.05545999" lon="-2.86062998">
<ele>1016.721</ele>
<time>2011-08-03T16:01:20Z</time>
</trkpt>
<trkpt lat="43.05503000" lon="-2.86124999">
<ele>1019.129</ele>
<time>2011-08-03T16:01:38Z</time>
</trkpt>
<trkpt lat="43.05460998" lon="-2.86136004">
<ele>1018.184</ele>
<time>2011-08-03T16:01:49Z</time>
</trkpt>
<trkpt lat="43.05440999" lon="-2.86156003">
<ele>1016.264</ele>
<time>2011-08-03T16:01:54Z</time>
</trkpt>
<trkpt lat="43.05420002" lon="-2.86205004">
<ele>1011.936</ele>
<time>2011-08-03T16:02:02Z</time>
</trkpt>
<trkpt lat="43.05410002" lon="-2.86219002">
<ele>1010.473</ele>
<time>2011-08-03T16:02:05Z</time>
</trkpt>
<trkpt lat="43.05372996" lon="-2.86252001">
<ele>1007.120</ele>
<time>2011-08-03T16:02:17Z</time>
</trkpt>
<trkpt lat="43.05358001" lon="-2.86255999">
<ele>1004.712</ele>
<time>2011-08-03T16:02:24Z</time>
</trkpt>
<trkpt lat="43.05335001" lon="-2.86301002">
<ele>997.976</ele>
<time>2011-08-03T16:02:41Z</time>
</trkpt>
<trkpt lat="43.05306000" lon="-2.86322996">
<ele>994.623</ele>
<time>2011-08-03T16:02:54Z</time>
</trkpt>
<trkpt lat="43.05276001" lon="-2.86338000">
<ele>992.215</ele>
<time>2011-08-03T16:03:07Z</time>
</trkpt>
<trkpt lat="43.05254996" lon="-2.86324002">
<ele>989.808</ele>
<time>2011-08-03T16:03:18Z</time>
</trkpt>
<trkpt lat="43.05227998" lon="-2.86364000">
<ele>989.320</ele>
<time>2011-08-03T16:03:32Z</time>
</trkpt>
<trkpt lat="43.05191997" lon="-2.86386003">
<ele>991.271</ele>
<time>2011-08-03T16:03:47Z</time>
</trkpt>
<trkpt lat="43.05151002" lon="-2.86379004">
<ele>988.375</ele>
<time>2011-08-03T16:04:00Z</time>
</trkpt>
<trkpt lat="43.05088003" lon="-2.86343004">
<ele>983.071</ele>
<time>2011-08-03T16:04:15Z</time>
</trkpt>
<trkpt lat="43.05027997" lon="-2.86320004">
<ele>978.286</ele>
<time>2011-08-03T16:04:24Z</time>
</trkpt>
<trkpt lat="43.04991997" lon="-2.86315997">
<ele>976.366</ele>
<time>2011-08-03T16:04:29Z</time>
</trkpt>
<trkpt lat="43.04921002" lon="-2.86295000">
<ele>974.446</ele>
<time>2011-08-03T16:04:41Z</time>
</trkpt>
<trkpt lat="43.04871004" lon="-2.86295998">
<ele>974.903</ele>
<time>2011-08-03T16:04:55Z</time>
</trkpt>
<trkpt lat="43.04790001" lon="-2.86304003">
<ele>974.903</ele>
<time>2011-08-03T16:05:23Z</time>
</trkpt>
<trkpt lat="43.04744999" lon="-2.86324002">
<ele>972.038</ele>
<time>2011-08-03T16:05:36Z</time>
</trkpt>
<trkpt lat="43.04692998" lon="-2.86364998">
<ele>962.406</ele>
<time>2011-08-03T16:05:52Z</time>
</trkpt>
<trkpt lat="43.04646000" lon="-2.86387998">
<ele>952.805</ele>
<time>2011-08-03T16:06:04Z</time>
</trkpt>
<trkpt lat="43.04622003" lon="-2.86391996">
<ele>950.397</ele>
<time>2011-08-03T16:06:09Z</time>
</trkpt>
<trkpt lat="43.04602004" lon="-2.86387000">
<ele>948.477</ele>
<time>2011-08-03T16:06:14Z</time>
</trkpt>
<trkpt lat="43.04577998" lon="-2.86387000">
<ele>944.636</ele>
<time>2011-08-03T16:06:21Z</time>
</trkpt>
<trkpt lat="43.04550002" lon="-2.86383002">
<ele>938.875</ele>
<time>2011-08-03T16:06:30Z</time>
</trkpt>
<trkpt lat="43.04501002" lon="-2.86371997">
<ele>933.084</ele>
<time>2011-08-03T16:06:41Z</time>
</trkpt>
<trkpt lat="43.04439001" lon="-2.86347999">
<ele>924.458</ele>
<time>2011-08-03T16:06:55Z</time>
</trkpt>
<trkpt lat="43.04423000" lon="-2.86331001">
<ele>923.971</ele>
<time>2011-08-03T16:06:59Z</time>
</trkpt>
<trkpt lat="43.04428004" lon="-2.86311002">
<ele>923.971</ele>
<time>2011-08-03T16:07:07Z</time>
</trkpt>
<trkpt lat="43.04491002" lon="-2.86311002">
<ele>917.235</ele>
<time>2011-08-03T16:07:21Z</time>
</trkpt>
<trkpt lat="43.04548997" lon="-2.86278002">
<ele>910.011</ele>
<time>2011-08-03T16:07:35Z</time>
</trkpt>
<trkpt lat="43.04589003" lon="-2.86223997">
<ele>902.330</ele>
<time>2011-08-03T16:07:49Z</time>
</trkpt>
<trkpt lat="43.04607997" lon="-2.86170999">
<ele>893.216</ele>
<time>2011-08-03T16:08:03Z</time>
</trkpt>
<trkpt lat="43.04603001" lon="-2.86160002">
<ele>892.729</ele>
<time>2011-08-03T16:08:11Z</time>
</trkpt>
<trkpt lat="43.04577000" lon="-2.86148996">
<ele>897.057</ele>
<time>2011-08-03T16:08:30Z</time>
</trkpt>
<trkpt lat="43.04554000" lon="-2.86131000">
<ele>902.818</ele>
<time>2011-08-03T16:08:49Z</time>
</trkpt>
<trkpt lat="43.04541000" lon="-2.86104002">
<ele>908.091</ele>
<time>2011-08-03T16:09:08Z</time>
</trkpt>
<trkpt lat="43.04528997" lon="-2.86065998">
<ele>911.474</ele>
<time>2011-08-03T16:09:29Z</time>
</trkpt>
<trkpt lat="43.04495000" lon="-2.85816000">
<ele>928.299</ele>
<time>2011-08-03T16:11:01Z</time>
</trkpt>
<trkpt lat="43.04492000" lon="-2.85757997">
<ele>930.707</ele>
<time>2011-08-03T16:11:18Z</time>
</trkpt>
<trkpt lat="43.04476996" lon="-2.85710002">
<ele>931.164</ele>
<time>2011-08-03T16:11:33Z</time>
</trkpt>
<trkpt lat="43.04465001" lon="-2.85634004">
<ele>934.060</ele>
<time>2011-08-03T16:11:57Z</time>
</trkpt>
<trkpt lat="43.04485998" lon="-2.85585003">
<ele>931.164</ele>
<time>2011-08-03T16:12:08Z</time>
</trkpt>
<trkpt lat="43.04511999" lon="-2.85546999">
<ele>928.756</ele>
<time>2011-08-03T16:12:14Z</time>
</trkpt>
<trkpt lat="43.04518998" lon="-2.85519004">
<ele>928.299</ele>
<time>2011-08-03T16:12:18Z</time>
</trkpt>
<trkpt lat="43.04518998" lon="-2.85432997">
<ele>923.971</ele>
<time>2011-08-03T16:12:31Z</time>
</trkpt>
<trkpt lat="43.04527002" lon="-2.85365003">
<ele>920.587</ele>
<time>2011-08-03T16:12:44Z</time>
</trkpt>
<trkpt lat="43.04528000" lon="-2.85323001">
<ele>921.563</ele>
<time>2011-08-03T16:12:57Z</time>
</trkpt>
<trkpt lat="43.04534999" lon="-2.85284998">
<ele>922.050</ele>
<time>2011-08-03T16:13:09Z</time>
</trkpt>
<trkpt lat="43.04522996" lon="-2.85250003">
<ele>921.075</ele>
<time>2011-08-03T16:13:21Z</time>
</trkpt>
<trkpt lat="43.04511001" lon="-2.85208999">
<ele>916.259</ele>
<time>2011-08-03T16:13:33Z</time>
</trkpt>
<trkpt lat="43.04476996" lon="-2.85199000">
<ele>920.130</ele>
<time>2011-08-03T16:13:51Z</time>
</trkpt>
<trkpt lat="43.04461003" lon="-2.85178003">
<ele>924.458</ele>
<time>2011-08-03T16:14:05Z</time>
</trkpt>
<trkpt lat="43.04432999" lon="-2.85163997">
<ele>923.971</ele>
<time>2011-08-03T16:14:15Z</time>
</trkpt>
<trkpt lat="43.04400000" lon="-2.85150996">
<ele>928.756</ele>
<time>2011-08-03T16:14:34Z</time>
</trkpt>
<trkpt lat="43.04360001" lon="-2.85139999">
<ele>933.572</ele>
<time>2011-08-03T16:14:56Z</time>
</trkpt>
<trkpt lat="43.04325996" lon="-2.85155003">
<ele>935.492</ele>
<time>2011-08-03T16:15:12Z</time>
</trkpt>
<trkpt lat="43.04285998" lon="-2.85162999">
<ele>935.004</ele>
<time>2011-08-03T16:15:26Z</time>
</trkpt>
<trkpt lat="43.04249000" lon="-2.85130000">
<ele>934.547</ele>
<time>2011-08-03T16:15:40Z</time>
</trkpt>
<trkpt lat="43.04219001" lon="-2.85071000">
<ele>934.547</ele>
<time>2011-08-03T16:15:55Z</time>
</trkpt>
<trkpt lat="43.04203000" lon="-2.85008999">
<ele>935.004</ele>
<time>2011-08-03T16:16:10Z</time>
</trkpt>
<trkpt lat="43.04192003" lon="-2.84942999">
<ele>934.060</ele>
<time>2011-08-03T16:16:26Z</time>
</trkpt>
<trkpt lat="43.04202002" lon="-2.84897000">
<ele>936.955</ele>
<time>2011-08-03T16:16:40Z</time>
</trkpt>
<trkpt lat="43.04232999" lon="-2.84867998">
<ele>943.661</ele>
<time>2011-08-03T16:16:57Z</time>
</trkpt>
<trkpt lat="43.04268002" lon="-2.84838997">
<ele>946.556</ele>
<time>2011-08-03T16:17:14Z</time>
</trkpt>
<trkpt lat="43.04347001" lon="-2.84738003">
<ele>949.909</ele>
<time>2011-08-03T16:17:53Z</time>
</trkpt>
<trkpt lat="43.04340002" lon="-2.84706001">
<ele>949.909</ele>
<time>2011-08-03T16:18:04Z</time>
</trkpt>
<trkpt lat="43.04307003" lon="-2.84663999">
<ele>946.069</ele>
<time>2011-08-03T16:18:17Z</time>
</trkpt>
<trkpt lat="43.04275000" lon="-2.84640002">
<ele>941.253</ele>
<time>2011-08-03T16:18:26Z</time>
</trkpt>
<trkpt lat="43.04170000" lon="-2.84585000">
<ele>922.995</ele>
<time>2011-08-03T16:18:53Z</time>
</trkpt>
<trkpt lat="43.04130002" lon="-2.84569996">
<ele>913.882</ele>
<time>2011-08-03T16:19:06Z</time>
</trkpt>
<trkpt lat="43.04100003" lon="-2.84552998">
<ele>906.658</ele>
<time>2011-08-03T16:19:14Z</time>
</trkpt>
<trkpt lat="43.04069996" lon="-2.84542998">
<ele>899.465</ele>
<time>2011-08-03T16:19:21Z</time>
</trkpt>
<trkpt lat="43.03989999" lon="-2.84595000">
<ele>891.753</ele>
<time>2011-08-03T16:19:41Z</time>
</trkpt>
<trkpt lat="43.03916004" lon="-2.84621998">
<ele>881.664</ele>
<time>2011-08-03T16:19:58Z</time>
</trkpt>
<trkpt lat="43.03858998" lon="-2.84637001">
<ele>869.168</ele>
<time>2011-08-03T16:20:10Z</time>
</trkpt>
<trkpt lat="43.03779999" lon="-2.84660999">
<ele>857.646</ele>
<time>2011-08-03T16:20:26Z</time>
</trkpt>
<trkpt lat="43.03750000" lon="-2.84676002">
<ele>853.318</ele>
<time>2011-08-03T16:20:33Z</time>
</trkpt>
<trkpt lat="43.03700002" lon="-2.84683001">
<ele>843.686</ele>
<time>2011-08-03T16:20:46Z</time>
</trkpt>
<trkpt lat="43.03677002" lon="-2.84674997">
<ele>838.413</ele>
<time>2011-08-03T16:20:52Z</time>
</trkpt>
<trkpt lat="43.03658000" lon="-2.84646004">
<ele>835.518</ele>
<time>2011-08-03T16:20:58Z</time>
</trkpt>
<trkpt lat="43.03638998" lon="-2.84588998">
<ele>833.110</ele>
<time>2011-08-03T16:21:10Z</time>
</trkpt>
<trkpt lat="43.03601003" lon="-2.84545999">
<ele>828.782</ele>
<time>2011-08-03T16:21:23Z</time>
</trkpt>
<trkpt lat="43.03536999" lon="-2.84474996">
<ele>814.852</ele>
<time>2011-08-03T16:21:46Z</time>
</trkpt>
<trkpt lat="43.03496003" lon="-2.84440999">
<ele>804.763</ele>
<time>2011-08-03T16:21:59Z</time>
</trkpt>
<trkpt lat="43.03471000" lon="-2.84398000">
<ele>802.843</ele>
<time>2011-08-03T16:22:10Z</time>
</trkpt>
<trkpt lat="43.03448997" lon="-2.84352000">
<ele>805.708</ele>
<time>2011-08-03T16:22:21Z</time>
</trkpt>
<trkpt lat="43.03435997" lon="-2.84332998">
<ele>805.251</ele>
<time>2011-08-03T16:22:25Z</time>
</trkpt>
<trkpt lat="43.03424003" lon="-2.84300996">
<ele>802.356</ele>
<time>2011-08-03T16:22:30Z</time>
</trkpt>
<trkpt lat="43.03418999" lon="-2.84273998">
<ele>801.868</ele>
<time>2011-08-03T16:22:34Z</time>
</trkpt>
<trkpt lat="43.03427003" lon="-2.84220999">
<ele>798.515</ele>
<time>2011-08-03T16:22:45Z</time>
</trkpt>
<trkpt lat="43.03493002" lon="-2.84059002">
<ele>791.779</ele>
<time>2011-08-03T16:23:22Z</time>
</trkpt>
<trkpt lat="43.03494000" lon="-2.84030001">
<ele>792.267</ele>
<time>2011-08-03T16:23:34Z</time>
</trkpt>
<trkpt lat="43.03491997" lon="-2.84014000">
<ele>801.868</ele>
<time>2011-08-03T16:23:43Z</time>
</trkpt>
<trkpt lat="43.03490999" lon="-2.83974999">
<ele>809.092</ele>
<time>2011-08-03T16:23:58Z</time>
</trkpt>
<trkpt lat="43.03484998" lon="-2.83929996">
<ele>804.276</ele>
<time>2011-08-03T16:24:10Z</time>
</trkpt>
<trkpt lat="43.03473003" lon="-2.83869001">
<ele>802.356</ele>
<time>2011-08-03T16:24:30Z</time>
</trkpt>
<trkpt lat="43.03467002" lon="-2.83852003">
<ele>798.027</ele>
<time>2011-08-03T16:24:41Z</time>
</trkpt>
<trkpt lat="43.03467999" lon="-2.83843998">
<ele>798.515</ele>
<time>2011-08-03T16:25:12Z</time>
</trkpt>
<trkpt lat="43.03455996" lon="-2.83820998">
<ele>797.540</ele>
<time>2011-08-03T16:25:18Z</time>
</trkpt>
<trkpt lat="43.03448997" lon="-2.83812004">
<ele>795.162</ele>
<time>2011-08-03T16:25:20Z</time>
</trkpt>
<trkpt lat="43.03425000" lon="-2.83773003">
<ele>796.107</ele>
<time>2011-08-03T16:25:31Z</time>
</trkpt>
<trkpt lat="43.03395999" lon="-2.83735000">
<ele>798.515</ele>
<time>2011-08-03T16:25:46Z</time>
</trkpt>
<trkpt lat="43.03376997" lon="-2.83709996">
<ele>794.675</ele>
<time>2011-08-03T16:25:58Z</time>
</trkpt>
<trkpt lat="43.03332003" lon="-2.83682001">
<ele>788.426</ele>
<time>2011-08-03T16:26:10Z</time>
</trkpt>
<trkpt lat="43.03280999" lon="-2.83684004">
<ele>787.451</ele>
<time>2011-08-03T16:26:22Z</time>
</trkpt>
<trkpt lat="43.03273003" lon="-2.83672999">
<ele>785.531</ele>
<time>2011-08-03T16:26:33Z</time>
</trkpt>
<trkpt lat="43.03270999" lon="-2.83662999">
<ele>795.619</ele>
<time>2011-08-03T16:26:46Z</time>
</trkpt>
<trkpt lat="43.03280999" lon="-2.83650996">
<ele>807.171</ele>
<time>2011-08-03T16:27:01Z</time>
</trkpt>
<trkpt lat="43.03274000" lon="-2.83648004">
<ele>824.941</ele>
<time>2011-08-03T16:27:17Z</time>
</trkpt>
<trkpt lat="43.03234999" lon="-2.83639002">
<ele>806.196</ele>
<time>2011-08-03T16:27:30Z</time>
</trkpt>
<trkpt lat="43.03192997" lon="-2.83648004">
<ele>793.699</ele>
<time>2011-08-03T16:27:44Z</time>
</trkpt>
<trkpt lat="43.03142002" lon="-2.83666997">
<ele>787.451</ele>
<time>2011-08-03T16:28:03Z</time>
</trkpt>
<trkpt lat="43.03103998" lon="-2.83705001">
<ele>785.531</ele>
<time>2011-08-03T16:28:20Z</time>
</trkpt>
<trkpt lat="43.03054000" lon="-2.83728001">
<ele>775.442</ele>
<time>2011-08-03T16:28:36Z</time>
</trkpt>
<trkpt lat="43.03008000" lon="-2.83735000">
<ele>761.970</ele>
<time>2011-08-03T16:28:50Z</time>
</trkpt>
<trkpt lat="43.03000004" lon="-2.83719996">
<ele>760.537</ele>
<time>2011-08-03T16:28:56Z</time>
</trkpt>
<trkpt lat="43.02975001" lon="-2.83734002">
<ele>760.049</ele>
<time>2011-08-03T16:29:15Z</time>
</trkpt>
<trkpt lat="43.02968999" lon="-2.83738998">
<ele>760.537</ele>
<time>2011-08-03T16:29:21Z</time>
</trkpt>
<trkpt lat="43.02964004" lon="-2.83755996">
<ele>759.592</ele>
<time>2011-08-03T16:29:32Z</time>
</trkpt>
<trkpt lat="43.02942999" lon="-2.83767002">
<ele>761.512</ele>
<time>2011-08-03T16:29:48Z</time>
</trkpt>
<trkpt lat="43.02903000" lon="-2.83777999">
<ele>761.025</ele>
<time>2011-08-03T16:30:03Z</time>
</trkpt>
<trkpt lat="43.02849004" lon="-2.83778996">
<ele>759.104</ele>
<time>2011-08-03T16:30:20Z</time>
</trkpt>
<trkpt lat="43.02813004" lon="-2.83754001">
<ele>757.641</ele>
<time>2011-08-03T16:30:32Z</time>
</trkpt>
<trkpt lat="43.02741003" lon="-2.83695001">
<ele>762.457</ele>
<time>2011-08-03T16:31:05Z</time>
</trkpt>
<trkpt lat="43.02695003" lon="-2.83666000">
<ele>764.865</ele>
<time>2011-08-03T16:31:27Z</time>
</trkpt>
<trkpt lat="43.02647000" lon="-2.83629002">
<ele>767.761</ele>
<time>2011-08-03T16:31:49Z</time>
</trkpt>
<trkpt lat="43.02631997" lon="-2.83613998">
<ele>768.218</ele>
<time>2011-08-03T16:31:58Z</time>
</trkpt>
<trkpt lat="43.02637001" lon="-2.83607997">
<ele>769.681</ele>
<time>2011-08-03T16:32:04Z</time>
</trkpt>
<trkpt lat="43.02706998" lon="-2.83609003">
<ele>778.337</ele>
<time>2011-08-03T16:32:49Z</time>
</trkpt>
<trkpt lat="43.02797003" lon="-2.83623001">
<ele>788.914</ele>
<time>2011-08-03T16:33:48Z</time>
</trkpt>
<trkpt lat="43.02834000" lon="-2.83622003">
<ele>788.914</ele>
<time>2011-08-03T16:34:06Z</time>
</trkpt>
<trkpt lat="43.02870998" lon="-2.83609003">
<ele>791.779</ele>
<time>2011-08-03T16:34:26Z</time>
</trkpt>
<trkpt lat="43.02890997" lon="-2.83570999">
<ele>793.212</ele>
<time>2011-08-03T16:34:44Z</time>
</trkpt>
<trkpt lat="43.02900997" lon="-2.83525997">
<ele>797.540</ele>
<time>2011-08-03T16:35:05Z</time>
</trkpt>
<trkpt lat="43.02883001" lon="-2.83446997">
<ele>809.579</ele>
<time>2011-08-03T16:35:49Z</time>
</trkpt>
<trkpt lat="43.02876002" lon="-2.83335996">
<ele>823.021</ele>
<time>2011-08-03T16:36:47Z</time>
</trkpt>
<trkpt lat="43.02870001" lon="-2.83304002">
<ele>827.837</ele>
<time>2011-08-03T16:37:06Z</time>
</trkpt>
<trkpt lat="43.02873999" lon="-2.83265999">
<ele>831.677</ele>
<time>2011-08-03T16:37:26Z</time>
</trkpt>
<trkpt lat="43.02906998" lon="-2.83196001">
<ele>838.901</ele>
<time>2011-08-03T16:38:08Z</time>
</trkpt>
<trkpt lat="43.02915003" lon="-2.83154000">
<ele>842.742</ele>
<time>2011-08-03T16:38:30Z</time>
</trkpt>
<trkpt lat="43.02922999" lon="-2.83127001">
<ele>847.527</ele>
<time>2011-08-03T16:38:47Z</time>
</trkpt>
<trkpt lat="43.02936000" lon="-2.83107002">
<ele>854.751</ele>
<time>2011-08-03T16:39:06Z</time>
</trkpt>
<trkpt lat="43.02951003" lon="-2.83088998">
<ele>856.671</ele>
<time>2011-08-03T16:39:25Z</time>
</trkpt>
<trkpt lat="43.02964004" lon="-2.83067004">
<ele>861.487</ele>
<time>2011-08-03T16:39:45Z</time>
</trkpt>
<trkpt lat="43.02975998" lon="-2.83078998">
<ele>864.352</ele>
<time>2011-08-03T16:40:04Z</time>
</trkpt>
<trkpt lat="43.02987004" lon="-2.83071002">
<ele>866.760</ele>
<time>2011-08-03T16:40:20Z</time>
</trkpt>
<trkpt lat="43.03023004" lon="-2.83062000">
<ele>879.744</ele>
<time>2011-08-03T16:41:10Z</time>
</trkpt>
<trkpt lat="43.03031000" lon="-2.83048999">
<ele>881.177</ele>
<time>2011-08-03T16:41:20Z</time>
</trkpt>
<trkpt lat="43.03048996" lon="-2.83035002">
<ele>884.560</ele>
<time>2011-08-03T16:41:38Z</time>
</trkpt>
<trkpt lat="43.03063002" lon="-2.83013997">
<ele>885.505</ele>
<time>2011-08-03T16:41:54Z</time>
</trkpt>
<trkpt lat="43.03084997" lon="-2.82970998">
<ele>880.232</ele>
<time>2011-08-03T16:42:06Z</time>
</trkpt>
<trkpt lat="43.03129002" lon="-2.82898000">
<ele>872.063</ele>
<time>2011-08-03T16:42:18Z</time>
</trkpt>
<trkpt lat="43.03153996" lon="-2.82849996">
<ele>871.576</ele>
<time>2011-08-03T16:42:28Z</time>
</trkpt>
<trkpt lat="43.03175999" lon="-2.82785003">
<ele>880.720</ele>
<time>2011-08-03T16:43:09Z</time>
</trkpt>
<trkpt lat="43.03197004" lon="-2.82730998">
<ele>893.674</ele>
<time>2011-08-03T16:44:01Z</time>
</trkpt>
<trkpt lat="43.03220004" lon="-2.82690003">
<ele>906.658</ele>
<time>2011-08-03T16:44:56Z</time>
</trkpt>
<trkpt lat="43.03228000" lon="-2.82671998">
<ele>909.066</ele>
<time>2011-08-03T16:45:17Z</time>
</trkpt>
<trkpt lat="43.03253003" lon="-2.82609000">
<ele>925.403</ele>
<time>2011-08-03T16:46:29Z</time>
</trkpt>
<trkpt lat="43.03300001" lon="-2.82526002">
<ele>953.780</ele>
<time>2011-08-03T16:48:24Z</time>
</trkpt>
<trkpt lat="43.03309003" lon="-2.82513002">
<ele>958.566</ele>
<time>2011-08-03T16:48:45Z</time>
</trkpt>
<trkpt lat="43.03325004" lon="-2.82504997">
<ele>964.326</ele>
<time>2011-08-03T16:49:08Z</time>
</trkpt>
<trkpt lat="43.03349001" lon="-2.82504000">
<ele>969.142</ele>
<time>2011-08-03T16:49:35Z</time>
</trkpt>
<trkpt lat="43.03369001" lon="-2.82488996">
<ele>970.117</ele>
<time>2011-08-03T16:49:50Z</time>
</trkpt>
<trkpt lat="43.03392998" lon="-2.82451998">
<ele>969.142</ele>
<time>2011-08-03T16:50:08Z</time>
</trkpt>
<trkpt lat="43.03409996" lon="-2.82418001">
<ele>971.550</ele>
<time>2011-08-03T16:50:24Z</time>
</trkpt>
<trkpt lat="43.03434002" lon="-2.82369001">
<ele>971.062</ele>
<time>2011-08-03T16:50:45Z</time>
</trkpt>
<trkpt lat="43.03444002" lon="-2.82329002">
<ele>971.062</ele>
<time>2011-08-03T16:51:00Z</time>
</trkpt>
<trkpt lat="43.03461998" lon="-2.82297998">
<ele>974.903</ele>
<time>2011-08-03T16:51:19Z</time>
</trkpt>
<trkpt lat="43.03473003" lon="-2.82274998">
<ele>980.694</ele>
<time>2011-08-03T16:51:37Z</time>
</trkpt>
<trkpt lat="43.03517997" lon="-2.82232996">
<ele>989.808</ele>
<time>2011-08-03T16:52:21Z</time>
</trkpt>
<trkpt lat="43.03539002" lon="-2.82197004">
<ele>993.648</ele>
<time>2011-08-03T16:52:43Z</time>
</trkpt>
<trkpt lat="43.03553000" lon="-2.82166000">
<ele>995.568</ele>
<time>2011-08-03T16:53:01Z</time>
</trkpt>
<trkpt lat="43.03641999" lon="-2.82083999">
<ele>1014.801</ele>
<time>2011-08-03T16:54:40Z</time>
</trkpt>
<trkpt lat="43.03668997" lon="-2.82107997">
<ele>1018.642</ele>
<time>2011-08-03T16:55:15Z</time>
</trkpt>
<trkpt lat="43.03710999" lon="-2.82166000">
<ele>1024.890</ele>
<time>2011-08-03T16:56:03Z</time>
</trkpt>
<trkpt lat="43.03727000" lon="-2.82182998">
<ele>1026.353</ele>
<time>2011-08-03T16:56:18Z</time>
</trkpt>
<trkpt lat="43.03747997" lon="-2.82205001">
<ele>1028.273</ele>
<time>2011-08-03T16:56:36Z</time>
</trkpt>
<trkpt lat="43.03789001" lon="-2.82240003">
<ele>1033.546</ele>
<time>2011-08-03T16:57:11Z</time>
</trkpt>
<trkpt lat="43.03802001" lon="-2.82244002">
<ele>1035.009</ele>
<time>2011-08-03T16:57:23Z</time>
</trkpt>
<trkpt lat="43.03831003" lon="-2.82248000">
<ele>1042.203</ele>
<time>2011-08-03T16:57:51Z</time>
</trkpt>
<trkpt lat="43.03858001" lon="-2.82244999">
<ele>1050.859</ele>
<time>2011-08-03T16:58:28Z</time>
</trkpt>
<trkpt lat="43.03870004" lon="-2.82244002">
<ele>1052.292</ele>
<time>2011-08-03T16:58:43Z</time>
</trkpt>
<trkpt lat="43.03884001" lon="-2.82227003">
<ele>1055.675</ele>
<time>2011-08-03T16:59:04Z</time>
</trkpt>
<trkpt lat="43.03883004" lon="-2.82186996">
<ele>1058.540</ele>
<time>2011-08-03T16:59:44Z</time>
</trkpt>
<trkpt lat="43.03890003" lon="-2.82156000">
<ele>1065.276</ele>
<time>2011-08-03T17:00:18Z</time>
</trkpt>
<trkpt lat="43.03894001" lon="-2.82115004">
<ele>1072.012</ele>
<time>2011-08-03T17:00:59Z</time>
</trkpt>
<trkpt lat="43.03897002" lon="-2.82094996">
<ele>1076.340</ele>
<time>2011-08-03T17:01:19Z</time>
</trkpt>
<trkpt lat="43.03917001" lon="-2.82037002">
<ele>1090.757</ele>
<time>2011-08-03T17:02:25Z</time>
</trkpt>
<trkpt lat="43.03897999" lon="-2.81999996">
<ele>1089.325</ele>
<time>2011-08-03T17:02:51Z</time>
</trkpt>
<trkpt lat="43.03901997" lon="-2.81998001">
<ele>1090.270</ele>
<time>2011-08-03T17:02:57Z</time>
</trkpt>
<trkpt lat="43.03924997" lon="-2.82024999">
<ele>1092.190</ele>
<time>2011-08-03T17:03:15Z</time>
</trkpt>
<trkpt lat="43.03943002" lon="-2.82061997">
<ele>1089.782</ele>
<time>2011-08-03T17:03:29Z</time>
</trkpt>
<trkpt lat="43.03989999" lon="-2.82126999">
<ele>1084.509</ele>
<time>2011-08-03T17:03:49Z</time>
</trkpt>
<trkpt lat="43.04095997" lon="-2.82248000">
<ele>1077.773</ele>
<time>2011-08-03T17:04:48Z</time>
</trkpt>
<trkpt lat="43.04101001" lon="-2.82261997">
<ele>1076.828</ele>
<time>2011-08-03T17:04:57Z</time>
</trkpt>
<trkpt lat="43.04124998" lon="-2.82294000">
<ele>1074.420</ele>
<time>2011-08-03T17:05:09Z</time>
</trkpt>
<trkpt lat="43.04203000" lon="-2.82389000">
<ele>1072.957</ele>
<time>2011-08-03T17:05:48Z</time>
</trkpt>
<trkpt lat="43.04228003" lon="-2.82412997">
<ele>1075.853</ele>
<time>2011-08-03T17:06:01Z</time>
</trkpt>
<trkpt lat="43.04248002" lon="-2.82418999">
<ele>1079.693</ele>
<time>2011-08-03T17:06:28Z</time>
</trkpt>
<trkpt lat="43.04249000" lon="-2.82415001">
<ele>1077.285</ele>
<time>2011-08-03T17:07:01Z</time>
</trkpt>
<trkpt lat="43.04249000" lon="-2.82425998">
<ele>1080.668</ele>
<time>2011-08-03T17:07:57Z</time>
</trkpt>
<trkpt lat="43.04255999" lon="-2.82445000">
<ele>1084.509</ele>
<time>2011-08-03T17:08:31Z</time>
</trkpt>
<trkpt lat="43.04264003" lon="-2.82454002">
<ele>1076.340</ele>
<time>2011-08-03T17:09:18Z</time>
</trkpt>
<trkpt lat="43.04272000" lon="-2.82500999">
<ele>1077.773</ele>
<time>2011-08-03T17:09:32Z</time>
</trkpt>
<trkpt lat="43.04291002" lon="-2.82552003">
<ele>1078.260</ele>
<time>2011-08-03T17:09:48Z</time>
</trkpt>
<trkpt lat="43.04311001" lon="-2.82580996">
<ele>1079.205</ele>
<time>2011-08-03T17:09:59Z</time>
</trkpt>
<trkpt lat="43.04382004" lon="-2.82638999">
<ele>1076.828</ele>
<time>2011-08-03T17:10:28Z</time>
</trkpt>
<trkpt lat="43.04423000" lon="-2.82652996">
<ele>1075.853</ele>
<time>2011-08-03T17:10:42Z</time>
</trkpt>
<trkpt lat="43.04478999" lon="-2.82658998">
<ele>1075.853</ele>
<time>2011-08-03T17:11:07Z</time>
</trkpt>
<trkpt lat="43.04553003" lon="-2.82671998">
<ele>1075.365</ele>
<time>2011-08-03T17:11:38Z</time>
</trkpt>
<trkpt lat="43.04620000" lon="-2.82681000">
<ele>1076.340</ele>
<time>2011-08-03T17:12:05Z</time>
</trkpt>
<trkpt lat="43.04658003" lon="-2.82667003">
<ele>1075.853</ele>
<time>2011-08-03T17:12:20Z</time>
</trkpt>
<trkpt lat="43.04685999" lon="-2.82647003">
<ele>1074.420</ele>
<time>2011-08-03T17:12:33Z</time>
</trkpt>
<trkpt lat="43.04711002" lon="-2.82609997">
<ele>1071.524</ele>
<time>2011-08-03T17:12:43Z</time>
</trkpt>
<trkpt lat="43.04754999" lon="-2.82573000">
<ele>1065.764</ele>
<time>2011-08-03T17:12:58Z</time>
</trkpt>
<trkpt lat="43.04774998" lon="-2.82550997">
<ele>1062.380</ele>
<time>2011-08-03T17:13:04Z</time>
</trkpt>
<trkpt lat="43.04823001" lon="-2.82452996">
<ele>1050.371</ele>
<time>2011-08-03T17:13:29Z</time>
</trkpt>
<trkpt lat="43.04876997" lon="-2.82402998">
<ele>1038.362</ele>
<time>2011-08-03T17:13:44Z</time>
</trkpt>
<trkpt lat="43.04938998" lon="-2.82382001">
<ele>1037.387</ele>
<time>2011-08-03T17:13:58Z</time>
</trkpt>
<trkpt lat="43.04977002" lon="-2.82349002">
<ele>1040.282</ele>
<time>2011-08-03T17:14:14Z</time>
</trkpt>
<trkpt lat="43.05010001" lon="-2.82327997">
<ele>1041.715</ele>
<time>2011-08-03T17:14:25Z</time>
</trkpt>
<trkpt lat="43.05045004" lon="-2.82299004">
<ele>1040.282</ele>
<time>2011-08-03T17:14:36Z</time>
</trkpt>
<trkpt lat="43.05073997" lon="-2.82290999">
<ele>1040.282</ele>
<time>2011-08-03T17:14:45Z</time>
</trkpt>
<trkpt lat="43.05108002" lon="-2.82293002">
<ele>1036.442</ele>
<time>2011-08-03T17:14:52Z</time>
</trkpt>
<trkpt lat="43.05124003" lon="-2.82300001">
<ele>1034.522</ele>
<time>2011-08-03T17:14:55Z</time>
</trkpt>
<trkpt lat="43.05194998" lon="-2.82324996">
<ele>1018.184</ele>
<time>2011-08-03T17:15:04Z</time>
</trkpt>
<trkpt lat="43.05219004" lon="-2.82337996">
<ele>1012.393</ele>
<time>2011-08-03T17:15:07Z</time>
</trkpt>
<trkpt lat="43.05266001" lon="-2.82336001">
<ele>999.896</ele>
<time>2011-08-03T17:15:13Z</time>
</trkpt>
<trkpt lat="43.05306997" lon="-2.82359001">
<ele>985.479</ele>
<time>2011-08-03T17:15:20Z</time>
</trkpt>
<trkpt lat="43.05309998" lon="-2.82369998">
<ele>984.534</ele>
<time>2011-08-03T17:15:21Z</time>
</trkpt>
<trkpt lat="43.05334004" lon="-2.82408002">
<ele>980.206</ele>
<time>2011-08-03T17:15:27Z</time>
</trkpt>
<trkpt lat="43.05357004" lon="-2.82428001">
<ele>976.366</ele>
<time>2011-08-03T17:15:33Z</time>
</trkpt>
<trkpt lat="43.05375997" lon="-2.82461998">
<ele>972.525</ele>
<time>2011-08-03T17:15:39Z</time>
</trkpt>
<trkpt lat="43.05391001" lon="-2.82477002">
<ele>970.575</ele>
<time>2011-08-03T17:15:42Z</time>
</trkpt>
<trkpt lat="43.05406004" lon="-2.82499004">
<ele>969.142</ele>
<time>2011-08-03T17:15:46Z</time>
</trkpt>
<trkpt lat="43.05427998" lon="-2.82509004">
<ele>970.575</ele>
<time>2011-08-03T17:15:52Z</time>
</trkpt>
<trkpt lat="43.05453999" lon="-2.82488996">
<ele>970.117</ele>
<time>2011-08-03T17:16:01Z</time>
</trkpt>
<trkpt lat="43.05496998" lon="-2.82490002">
<ele>968.197</ele>
<time>2011-08-03T17:16:09Z</time>
</trkpt>
<trkpt lat="43.05516000" lon="-2.82496003">
<ele>966.277</ele>
<time>2011-08-03T17:16:12Z</time>
</trkpt>
<trkpt lat="43.05541003" lon="-2.82517998">
<ele>962.894</ele>
<time>2011-08-03T17:16:16Z</time>
</trkpt>
<trkpt lat="43.05608997" lon="-2.82599998">
<ele>948.964</ele>
<time>2011-08-03T17:16:27Z</time>
</trkpt>
<trkpt lat="43.05624998" lon="-2.82605999">
<ele>946.556</ele>
<time>2011-08-03T17:16:29Z</time>
</trkpt>
<trkpt lat="43.05649004" lon="-2.82637004">
<ele>942.716</ele>
<time>2011-08-03T17:16:34Z</time>
</trkpt>
<trkpt lat="43.05699999" lon="-2.82789001">
<ele>922.050</ele>
<time>2011-08-03T17:16:55Z</time>
</trkpt>
<trkpt lat="43.05706001" lon="-2.82812001">
<ele>919.643</ele>
<time>2011-08-03T17:16:58Z</time>
</trkpt>
<trkpt lat="43.05745999" lon="-2.82849996">
<ele>914.339</ele>
<time>2011-08-03T17:17:08Z</time>
</trkpt>
<trkpt lat="43.05756996" lon="-2.82875997">
<ele>910.499</ele>
<time>2011-08-03T17:17:11Z</time>
</trkpt>
<trkpt lat="43.05887000" lon="-2.83038002">
<ele>872.063</ele>
<time>2011-08-03T17:17:28Z</time>
</trkpt>
<trkpt lat="43.05965002" lon="-2.83229998">
<ele>837.926</ele>
<time>2011-08-03T17:17:45Z</time>
</trkpt>
<trkpt lat="43.05975001" lon="-2.83288999">
<ele>827.349</ele>
<time>2011-08-03T17:17:50Z</time>
</trkpt>
<trkpt lat="43.05969000" lon="-2.83338997">
<ele>822.533</ele>
<time>2011-08-03T17:17:54Z</time>
</trkpt>
<trkpt lat="43.05978999" lon="-2.83396002">
<ele>820.156</ele>
<time>2011-08-03T17:17:59Z</time>
</trkpt>
<trkpt lat="43.05989997" lon="-2.83415004">
<ele>818.693</ele>
<time>2011-08-03T17:18:01Z</time>
</trkpt>
<trkpt lat="43.06002997" lon="-2.83462001">
<ele>812.932</ele>
<time>2011-08-03T17:18:05Z</time>
</trkpt>
<trkpt lat="43.06008001" lon="-2.83501002">
<ele>809.092</ele>
<time>2011-08-03T17:18:08Z</time>
</trkpt>
<trkpt lat="43.06008001" lon="-2.83508998">
<ele>809.579</ele>
<time>2011-02-07T14:54:38Z</time>
</trkpt>
<trkpt lat="43.06010004" lon="-2.83515000">
<ele>814.365</ele>
<time>2011-02-07T14:42:50Z</time>
</trkpt>
<trkpt lat="43.06007003" lon="-2.83515997">
<ele>811.957</ele>
<time>2011-02-07T14:41:04Z</time>
</trkpt>
<trkpt lat="43.06024002" lon="-2.83524002">
<ele>810.036</ele>
<time>2011-02-07T14:40:31Z</time>
</trkpt>
<trkpt lat="43.06028000" lon="-2.83580999">
<ele>813.907</ele>
<time>2011-02-07T14:40:00Z</time>
</trkpt>
<trkpt lat="43.06034002" lon="-2.83602004">
<ele>814.365</ele>
<time>2011-02-07T14:39:38Z</time>
</trkpt>
<trkpt lat="43.06043004" lon="-2.83625004">
<ele>820.156</ele>
<time>2011-02-07T14:39:22Z</time>
</trkpt>
<trkpt lat="43.06076003" lon="-2.83682001">
<ele>816.285</ele>
<time>2011-02-07T14:38:47Z</time>
</trkpt>
<trkpt lat="43.06066004" lon="-2.83745997">
<ele>822.076</ele>
<time>2011-02-07T14:37:57Z</time>
</trkpt>
<trkpt lat="43.06017003" lon="-2.83872999">
<ele>833.110</ele>
<time>2011-02-07T14:35:41Z</time>
</trkpt>
<trkpt lat="43.05988002" lon="-2.83978997">
<ele>833.110</ele>
<time>2011-02-07T14:34:49Z</time>
</trkpt>
<trkpt lat="43.05974004" lon="-2.84007998">
<ele>835.518</ele>
<time>2011-02-07T14:34:34Z</time>
</trkpt>
<trkpt lat="43.05959000" lon="-2.84030001">
<ele>833.110</ele>
<time>2011-02-07T14:34:19Z</time>
</trkpt>
<trkpt lat="43.05936998" lon="-2.84043998">
<ele>837.926</ele>
<time>2011-02-07T14:34:04Z</time>
</trkpt>
<trkpt lat="43.05873999" lon="-2.84109000">
<ele>843.686</ele>
<time>2011-02-07T14:33:13Z</time>
</trkpt>
<trkpt lat="43.05860999" lon="-2.84198997">
<ele>842.254</ele>
<time>2011-02-07T14:32:28Z</time>
</trkpt>
<trkpt lat="43.05867000" lon="-2.84256002">
<ele>837.926</ele>
<time>2011-02-07T14:31:56Z</time>
</trkpt>
<trkpt lat="43.05838997" lon="-2.84335001">
<ele>839.846</ele>
<time>2011-02-07T14:31:15Z</time>
</trkpt>
<trkpt lat="43.05840002" lon="-2.84355001">
<ele>839.846</ele>
<time>2011-02-07T14:31:00Z</time>
</trkpt>
<trkpt lat="43.05837002" lon="-2.84358001">
<ele>842.254</ele>
<time>2011-02-07T14:30:40Z</time>
</trkpt>
<trkpt lat="43.05838997" lon="-2.84367003">
<ele>842.254</ele>
<time>2011-02-07T14:30:23Z</time>
</trkpt>
<trkpt lat="43.05831998" lon="-2.84382996">
<ele>845.149</ele>
<time>2011-02-07T14:30:12Z</time>
</trkpt>
<trkpt lat="43.05828997" lon="-2.84436003">
<ele>846.094</ele>
<time>2011-02-07T14:29:45Z</time>
</trkpt>
<trkpt lat="43.05814999" lon="-2.84480000">
<ele>855.238</ele>
<time>2011-02-07T14:29:20Z</time>
</trkpt>
<trkpt lat="43.05820003" lon="-2.84493000">
<ele>851.398</ele>
<time>2011-02-07T14:28:29Z</time>
</trkpt>
<trkpt lat="43.05811998" lon="-2.84535999">
<ele>851.398</ele>
<time>2011-02-07T14:28:08Z</time>
</trkpt>
<trkpt lat="43.05812996" lon="-2.84588998">
<ele>860.024</ele>
<time>2011-02-07T14:27:40Z</time>
</trkpt>
<trkpt lat="43.05804002" lon="-2.84621000">
<ele>870.143</ele>
<time>2011-02-07T14:27:24Z</time>
</trkpt>
<trkpt lat="43.05792997" lon="-2.84670001">
<ele>865.815</ele>
<time>2011-02-07T14:26:56Z</time>
</trkpt>
<trkpt lat="43.05805997" lon="-2.84692003">
<ele>868.223</ele>
<time>2011-02-07T14:26:38Z</time>
</trkpt>
<trkpt lat="43.05827002" lon="-2.84723997">
<ele>863.895</ele>
<time>2011-02-07T14:26:08Z</time>
</trkpt>
<trkpt lat="43.05833003" lon="-2.84730996">
<ele>858.103</ele>
<time>2011-02-07T14:25:56Z</time>
</trkpt>
<trkpt lat="43.05854998" lon="-2.84746997">
<ele>854.263</ele>
<time>2011-02-07T14:25:42Z</time>
</trkpt>
<trkpt lat="43.05850002" lon="-2.84749000">
<ele>858.591</ele>
<time>2011-02-07T14:25:18Z</time>
</trkpt>
<trkpt lat="43.05846004" lon="-2.84758002">
<ele>865.327</ele>
<time>2011-02-07T14:24:58Z</time>
</trkpt>
<trkpt lat="43.05847001" lon="-2.84782000">
<ele>869.655</ele>
<time>2011-02-07T14:24:46Z</time>
</trkpt>
<trkpt lat="43.05857001" lon="-2.84801002">
<ele>869.168</ele>
<time>2011-02-07T14:24:35Z</time>
</trkpt>
<trkpt lat="43.05857998" lon="-2.84831998">
<ele>870.143</ele>
<time>2011-02-07T14:24:15Z</time>
</trkpt>
<trkpt lat="43.05864997" lon="-2.84858996">
<ele>871.576</ele>
<time>2011-02-07T14:24:02Z</time>
</trkpt>
<trkpt lat="43.05876003" lon="-2.84874000">
<ele>876.391</ele>
<time>2011-02-07T14:23:53Z</time>
</trkpt>
<trkpt lat="43.05889003" lon="-2.84952999">
<ele>896.569</ele>
<time>2011-02-07T14:23:05Z</time>
</trkpt>
<trkpt lat="43.05910997" lon="-2.84962999">
<ele>908.578</ele>
<time>2011-02-07T14:22:42Z</time>
</trkpt>
<trkpt lat="43.05929001" lon="-2.84982000">
<ele>915.802</ele>
<time>2011-02-07T14:22:25Z</time>
</trkpt>
<trkpt lat="43.05925003" lon="-2.84988999">
<ele>918.667</ele>
<time>2011-02-07T14:22:18Z</time>
</trkpt>
<trkpt lat="43.05917996" lon="-2.84992000">
<ele>918.667</ele>
<time>2011-02-07T14:21:28Z</time>
</trkpt>
<trkpt lat="43.05913998" lon="-2.85005998">
<ele>923.971</ele>
<time>2011-02-07T14:21:11Z</time>
</trkpt>
<trkpt lat="43.05916999" lon="-2.85064001">
<ele>936.955</ele>
<time>2011-02-07T14:20:23Z</time>
</trkpt>
<trkpt lat="43.05956997" lon="-2.85097000">
<ele>942.716</ele>
<time>2011-02-07T14:19:44Z</time>
</trkpt>
<trkpt lat="43.05968002" lon="-2.85106002">
<ele>937.412</ele>
<time>2011-02-07T14:19:33Z</time>
</trkpt>
<trkpt lat="43.05982000" lon="-2.85103999">
<ele>943.661</ele>
<time>2011-02-07T14:19:14Z</time>
</trkpt>
<trkpt lat="43.05992000" lon="-2.85110001">
<ele>943.204</ele>
<time>2011-02-07T14:19:04Z</time>
</trkpt>
<trkpt lat="43.06028998" lon="-2.85146001">
<ele>940.308</ele>
<time>2011-02-07T14:18:29Z</time>
</trkpt>
<trkpt lat="43.06054998" lon="-2.85199000">
<ele>936.955</ele>
<time>2011-02-07T14:18:00Z</time>
</trkpt>
<trkpt lat="43.06053003" lon="-2.85222997">
<ele>942.228</ele>
<time>2011-02-07T14:17:48Z</time>
</trkpt>
<trkpt lat="43.06057001" lon="-2.85232997">
<ele>947.989</ele>
<time>2011-02-07T14:17:40Z</time>
</trkpt>
<trkpt lat="43.06067999" lon="-2.85237003">
<ele>951.829</ele>
<time>2011-02-07T14:17:34Z</time>
</trkpt>
<trkpt lat="43.06084997" lon="-2.85251001">
<ele>949.452</ele>
<time>2011-02-07T14:16:56Z</time>
</trkpt>
<trkpt lat="43.06091996" lon="-2.85270003">
<ele>952.317</ele>
<time>2011-02-07T14:16:45Z</time>
</trkpt>
<trkpt lat="43.06103999" lon="-2.85273003">
<ele>956.645</ele>
<time>2011-02-07T14:16:34Z</time>
</trkpt>
<trkpt lat="43.06106002" lon="-2.85284000">
<ele>958.078</ele>
<time>2011-02-07T14:16:27Z</time>
</trkpt>
<trkpt lat="43.06116002" lon="-2.85294000">
<ele>958.566</ele>
<time>2011-02-07T14:16:19Z</time>
</trkpt>
<trkpt lat="43.06117997" lon="-2.85313999">
<ele>957.621</ele>
<time>2011-02-07T14:16:06Z</time>
</trkpt>
<trkpt lat="43.06150996" lon="-2.85402001">
<ele>976.823</ele>
<time>2011-02-07T14:15:14Z</time>
</trkpt>
<trkpt lat="43.06162999" lon="-2.85419997">
<ele>978.286</ele>
<time>2011-02-07T14:15:03Z</time>
</trkpt>
<trkpt lat="43.06182998" lon="-2.85441002">
<ele>986.455</ele>
<time>2011-02-07T14:14:45Z</time>
</trkpt>
<trkpt lat="43.06228001" lon="-2.85491000">
<ele>990.783</ele>
<time>2011-02-07T14:14:10Z</time>
</trkpt>
<trkpt lat="43.06254001" lon="-2.85531996">
<ele>995.111</ele>
<time>2011-02-07T14:13:41Z</time>
</trkpt>
<trkpt lat="43.06264001" lon="-2.85573000">
<ele>1001.359</ele>
<time>2011-02-07T14:13:18Z</time>
</trkpt>
<trkpt lat="43.06267002" lon="-2.85621003">
<ele>1009.528</ele>
<time>2011-02-07T14:12:52Z</time>
</trkpt>
<trkpt lat="43.06263003" lon="-2.85635001">
<ele>1011.936</ele>
<time>2011-02-07T14:12:45Z</time>
</trkpt>
<trkpt lat="43.06261998" lon="-2.85672996">
<ele>1008.065</ele>
<time>2011-02-07T14:12:28Z</time>
</trkpt>
<trkpt lat="43.06264998" lon="-2.85683004">
<ele>1008.065</ele>
<time>2011-02-07T14:12:20Z</time>
</trkpt>
<trkpt lat="43.06260003" lon="-2.85703003">
<ele>1017.697</ele>
<time>2011-02-07T14:12:06Z</time>
</trkpt>
<trkpt lat="43.06264998" lon="-2.85720002">
<ele>1019.617</ele>
<time>2011-02-07T14:10:59Z</time>
</trkpt>
<trkpt lat="43.06297998" lon="-2.85770000">
<ele>1022.970</ele>
<time>2011-02-07T14:10:15Z</time>
</trkpt>
<trkpt lat="43.06309003" lon="-2.85780997">
<ele>1026.810</ele>
<time>2011-02-07T14:10:01Z</time>
</trkpt>
<trkpt lat="43.06337996" lon="-2.85795003">
<ele>1027.786</ele>
<time>2011-02-07T14:08:20Z</time>
</trkpt>
<trkpt lat="43.06359999" lon="-2.85818003">
<ele>1029.706</ele>
<time>2011-02-07T14:07:27Z</time>
</trkpt>
<trkpt lat="43.06391004" lon="-2.85839997">
<ele>1030.681</ele>
<time>2011-02-07T14:07:08Z</time>
</trkpt>
<trkpt lat="43.06491000" lon="-2.85884002">
<ele>1030.681</ele>
<time>2011-02-07T14:06:23Z</time>
</trkpt>
<trkpt lat="43.06537000" lon="-2.85920002">
<ele>1028.273</ele>
<time>2011-02-07T14:06:02Z</time>
</trkpt>
<trkpt lat="43.06569999" lon="-2.85979003">
<ele>1024.433</ele>
<time>2011-02-07T14:05:40Z</time>
</trkpt>
<trkpt lat="43.06655997" lon="-2.86184996">
<ele>1000.872</ele>
<time>2011-02-07T14:04:27Z</time>
</trkpt>
<trkpt lat="43.06684001" lon="-2.86225003">
<ele>998.952</ele>
<time>2011-02-07T14:04:10Z</time>
</trkpt>
<trkpt lat="43.06776999" lon="-2.86268002">
<ele>994.623</ele>
<time>2011-02-07T14:03:30Z</time>
</trkpt>
<trkpt lat="43.06786001" lon="-2.86274004">
<ele>992.703</ele>
<time>2011-02-07T14:03:16Z</time>
</trkpt>
<trkpt lat="43.06867003" lon="-2.86302997">
<ele>1009.040</ele>
<time>2011-02-07T14:02:21Z</time>
</trkpt>
<trkpt lat="43.06868998" lon="-2.86310004">
<ele>1009.528</ele>
<time>2011-02-07T14:01:20Z</time>
</trkpt>
<trkpt lat="43.06867003" lon="-2.86308001">
<ele>1006.632</ele>
<time>2011-02-07T14:00:11Z</time>
</trkpt>
<trkpt lat="43.06871999" lon="-2.86315997">
<ele>1006.632</ele>
<time>2011-02-07T13:59:51Z</time>
</trkpt>
<trkpt lat="43.06898997" lon="-2.86344999">
<ele>998.952</ele>
<time>2011-02-07T13:59:16Z</time>
</trkpt>
<trkpt lat="43.06970000" lon="-2.86403999">
<ele>980.206</ele>
<time>2011-02-07T13:58:04Z</time>
</trkpt>
<trkpt lat="43.07000997" lon="-2.86436001">
<ele>972.525</ele>
<time>2011-02-07T13:57:27Z</time>
</trkpt>
<trkpt lat="43.07130002" lon="-2.86489997">
<ele>934.547</ele>
<time>2011-02-07T13:55:25Z</time>
</trkpt>
<trkpt lat="43.07148996" lon="-2.86492998">
<ele>929.244</ele>
<time>2011-02-07T13:55:09Z</time>
</trkpt>
<trkpt lat="43.07207996" lon="-2.86512000">
<ele>917.722</ele>
<time>2011-02-07T13:54:25Z</time>
</trkpt>
<trkpt lat="43.07284003" lon="-2.86563003">
<ele>909.066</ele>
<time>2011-02-07T13:53:02Z</time>
</trkpt>
<trkpt lat="43.07301999" lon="-2.86597000">
<ele>904.250</ele>
<time>2011-02-07T13:52:27Z</time>
</trkpt>
<trkpt lat="43.07324999" lon="-2.86617997">
<ele>898.977</ele>
<time>2011-02-07T13:52:06Z</time>
</trkpt>
<trkpt lat="43.07356004" lon="-2.86617000">
<ele>893.674</ele>
<time>2011-02-07T13:51:44Z</time>
</trkpt>
<trkpt lat="43.07384997" lon="-2.86622004">
<ele>888.401</ele>
<time>2011-02-07T13:51:22Z</time>
</trkpt>
<trkpt lat="43.07507004" lon="-2.86695999">
<ele>865.815</ele>
<time>2011-02-07T13:49:47Z</time>
</trkpt>
<trkpt lat="43.07577998" lon="-2.86722997">
<ele>857.159</ele>
<time>2011-02-07T13:48:59Z</time>
</trkpt>
<trkpt lat="43.07660996" lon="-2.86761998">
<ele>852.343</ele>
<time>2011-02-07T13:48:01Z</time>
</trkpt>
<trkpt lat="43.07679998" lon="-2.86777999">
<ele>852.830</ele>
<time>2011-02-07T13:47:48Z</time>
</trkpt>
<trkpt lat="43.07768997" lon="-2.86833999">
<ele>858.591</ele>
<time>2011-02-07T13:46:47Z</time>
</trkpt>
<trkpt lat="43.07771000" lon="-2.86840000">
<ele>855.696</ele>
<time>2011-02-07T13:45:38Z</time>
</trkpt>
<trkpt lat="43.07814997" lon="-2.86906997">
<ele>851.855</ele>
<time>2011-02-07T13:44:57Z</time>
</trkpt>
<trkpt lat="43.07834996" lon="-2.86928999">
<ele>852.343</ele>
<time>2011-02-07T13:44:16Z</time>
</trkpt>
<trkpt lat="43.07881004" lon="-2.86985996">
<ele>839.358</ele>
<time>2011-02-07T13:43:09Z</time>
</trkpt>
<trkpt lat="43.07928002" lon="-2.87046002">
<ele>835.518</ele>
<time>2011-02-07T13:42:30Z</time>
</trkpt>
<trkpt lat="43.07991997" lon="-2.87105002">
<ele>828.782</ele>
<time>2011-02-07T13:41:42Z</time>
</trkpt>
<trkpt lat="43.08032004" lon="-2.87168001">
<ele>825.429</ele>
<time>2011-02-07T13:41:05Z</time>
</trkpt>
<trkpt lat="43.08075003" lon="-2.87220002">
<ele>824.454</ele>
<time>2011-02-07T13:40:30Z</time>
</trkpt>
<trkpt lat="43.08115002" lon="-2.87283998">
<ele>817.748</ele>
<time>2011-02-07T13:39:51Z</time>
</trkpt>
<trkpt lat="43.08131003" lon="-2.87316998">
<ele>815.340</ele>
<time>2011-02-07T13:39:33Z</time>
</trkpt>
<trkpt lat="43.08139997" lon="-2.87359997">
<ele>810.524</ele>
<time>2011-02-07T13:39:13Z</time>
</trkpt>
<trkpt lat="43.08191000" lon="-2.87467000">
<ele>803.331</ele>
<time>2011-02-07T13:37:50Z</time>
</trkpt>
<trkpt lat="43.08213003" lon="-2.87545002">
<ele>795.162</ele>
<time>2011-02-07T13:36:52Z</time>
</trkpt>
<trkpt lat="43.08276999" lon="-2.87637002">
<ele>787.451</ele>
<time>2011-02-07T13:35:39Z</time>
</trkpt>
<trkpt lat="43.08302002" lon="-2.87742999">
<ele>772.089</ele>
<time>2011-02-07T13:34:40Z</time>
</trkpt>
<trkpt lat="43.08318003" lon="-2.87774004">
<ele>766.785</ele>
<time>2011-02-07T13:34:20Z</time>
</trkpt>
<trkpt lat="43.08322999" lon="-2.87807004">
<ele>761.970</ele>
<time>2011-02-07T13:34:01Z</time>
</trkpt>
<trkpt lat="43.08321004" lon="-2.87822996">
<ele>758.617</ele>
<time>2011-02-07T13:33:51Z</time>
</trkpt>
<trkpt lat="43.08342000" lon="-2.87948004">
<ele>737.951</ele>
<time>2011-02-07T13:32:39Z</time>
</trkpt>
<trkpt lat="43.08334004" lon="-2.88307001">
<ele>677.388</ele>
<time>2011-02-07T13:28:24Z</time>
</trkpt>
<trkpt lat="43.08339000" lon="-2.88396000">
<ele>666.811</ele>
<time>2011-02-07T13:27:33Z</time>
</trkpt>
<trkpt lat="43.08345999" lon="-2.88425001">
<ele>661.538</ele>
<time>2011-02-07T13:27:16Z</time>
</trkpt>
<trkpt lat="43.08339997" lon="-2.88428999">
<ele>661.538</ele>
<time>2011-02-07T13:24:51Z</time>
</trkpt>
<trkpt lat="43.08369996" lon="-2.88474999">
<ele>652.394</ele>
<time>2011-02-07T13:24:05Z</time>
</trkpt>
<trkpt lat="43.08391999" lon="-2.88481001">
<ele>648.553</ele>
<time>2011-02-07T13:23:45Z</time>
</trkpt>
<trkpt lat="43.08403004" lon="-2.88491998">
<ele>646.633</ele>
<time>2011-02-07T13:23:30Z</time>
</trkpt>
<trkpt lat="43.08404001" lon="-2.88507999">
<ele>644.713</ele>
<time>2011-02-07T13:23:20Z</time>
</trkpt>
<trkpt lat="43.08407002" lon="-2.88507001">
<ele>640.842</ele>
<time>2011-02-07T13:22:54Z</time>
</trkpt>
<trkpt lat="43.08403004" lon="-2.88510002">
<ele>639.409</ele>
<time>2011-02-07T13:22:40Z</time>
</trkpt>
<trkpt lat="43.08401998" lon="-2.88510002">
<ele>643.250</ele>
<time>2011-02-07T13:22:24Z</time>
</trkpt>
<trkpt lat="43.08400003" lon="-2.88507001">
<ele>639.897</ele>
<time>2011-02-07T13:21:45Z</time>
</trkpt>
<trkpt lat="43.08403004" lon="-2.88514998">
<ele>634.136</ele>
<time>2011-02-07T13:21:11Z</time>
</trkpt>
<trkpt lat="43.08400003" lon="-2.88511997">
<ele>642.793</ele>
<time>2011-02-07T13:20:07Z</time>
</trkpt>
<trkpt lat="43.08473001" lon="-2.88395002">
<ele>624.048</ele>
<time>2011-02-07T13:19:20Z</time>
</trkpt>
<trkpt lat="43.08496001" lon="-2.88373997">
<ele>617.799</ele>
<time>2011-02-07T13:19:11Z</time>
</trkpt>
<trkpt lat="43.08526000" lon="-2.88389001">
<ele>612.983</ele>
<time>2011-02-07T13:19:01Z</time>
</trkpt>
<trkpt lat="43.08601001" lon="-2.88274999">
<ele>599.023</ele>
<time>2011-02-07T13:18:27Z</time>
</trkpt>
<trkpt lat="43.08628997" lon="-2.88251999">
<ele>595.183</ele>
<time>2011-02-07T13:18:14Z</time>
</trkpt>
<trkpt lat="43.08657998" lon="-2.88235998">
<ele>591.830</ele>
<time>2011-02-07T13:18:01Z</time>
</trkpt>
<trkpt lat="43.08699002" lon="-2.88208002">
<ele>577.413</ele>
<time>2011-02-07T13:17:47Z</time>
</trkpt>
<trkpt lat="43.08726998" lon="-2.88182002">
<ele>574.518</ele>
<time>2011-02-07T13:17:35Z</time>
</trkpt>
<trkpt lat="43.08761003" lon="-2.88149999">
<ele>565.404</ele>
<time>2011-02-07T13:17:20Z</time>
</trkpt>
<trkpt lat="43.08788002" lon="-2.88117997">
<ele>560.588</ele>
<time>2011-02-07T13:17:07Z</time>
</trkpt>
<trkpt lat="43.08821001" lon="-2.88086004">
<ele>549.036</ele>
<time>2011-02-07T13:16:54Z</time>
</trkpt>
<trkpt lat="43.08843004" lon="-2.88061998">
<ele>549.524</ele>
<time>2011-02-07T13:16:45Z</time>
</trkpt>
<trkpt lat="43.08870999" lon="-2.88054002">
<ele>549.524</ele>
<time>2011-02-07T13:16:36Z</time>
</trkpt>
<trkpt lat="43.08886003" lon="-2.88061998">
<ele>548.091</ele>
<time>2011-02-07T13:16:33Z</time>
</trkpt>
<trkpt lat="43.08904996" lon="-2.88107000">
<ele>543.276</ele>
<time>2011-02-07T13:16:25Z</time>
</trkpt>
<trkpt lat="43.08877001" lon="-2.88224003">
<ele>530.291</ele>
<time>2011-02-07T13:16:09Z</time>
</trkpt>
<trkpt lat="43.08876003" lon="-2.88255997">
<ele>524.043</ele>
<time>2011-02-07T13:16:02Z</time>
</trkpt>
<trkpt lat="43.08919002" lon="-2.88261001">
<ele>512.034</ele>
<time>2011-02-07T13:15:45Z</time>
</trkpt>
<trkpt lat="43.08981003" lon="-2.88277002">
<ele>495.209</ele>
<time>2011-02-07T13:15:23Z</time>
</trkpt>
<trkpt lat="43.09035997" lon="-2.88277999">
<ele>488.472</ele>
<time>2011-02-07T13:15:03Z</time>
</trkpt>
<trkpt lat="43.09061000" lon="-2.88297001">
<ele>487.528</ele>
<time>2011-02-07T13:14:54Z</time>
</trkpt>
<trkpt lat="43.09107000" lon="-2.88330998">
<ele>475.031</ele>
<time>2011-02-07T13:14:33Z</time>
</trkpt>
<trkpt lat="43.09124996" lon="-2.88379001">
<ele>469.270</ele>
<time>2011-02-07T13:14:21Z</time>
</trkpt>
<trkpt lat="43.09135004" lon="-2.88426996">
<ele>455.310</ele>
<time>2011-02-07T13:14:09Z</time>
</trkpt>
<trkpt lat="43.09163000" lon="-2.88435998">
<ele>446.684</ele>
<time>2011-02-07T13:13:57Z</time>
</trkpt>
<trkpt lat="43.09198002" lon="-2.88422998">
<ele>439.461</ele>
<time>2011-02-07T13:13:44Z</time>
</trkpt>
<trkpt lat="43.09225000" lon="-2.88421003">
<ele>438.028</ele>
<time>2011-02-07T13:13:34Z</time>
</trkpt>
<trkpt lat="43.09248000" lon="-2.88445998">
<ele>431.780</ele>
<time>2011-02-07T13:13:21Z</time>
</trkpt>
<trkpt lat="43.09316003" lon="-2.88494001">
<ele>426.964</ele>
<time>2011-02-07T13:12:55Z</time>
</trkpt>
<trkpt lat="43.09382002" lon="-2.88635002">
<ele>407.243</ele>
<time>2011-02-07T13:12:17Z</time>
</trkpt>
<trkpt lat="43.09503003" lon="-2.88783001">
<ele>401.970</ele>
<time>2011-02-07T13:11:22Z</time>
</trkpt>
<trkpt lat="43.09550000" lon="-2.88828003">
<ele>398.617</ele>
<time>2011-02-07T13:11:01Z</time>
</trkpt>
<trkpt lat="43.09577996" lon="-2.88862000">
<ele>396.667</ele>
<time>2011-02-07T13:10:47Z</time>
</trkpt>
<trkpt lat="43.09589999" lon="-2.88911001">
<ele>392.369</ele>
<time>2011-02-07T13:10:35Z</time>
</trkpt>
<trkpt lat="43.09598004" lon="-2.88973999">
<ele>373.624</ele>
<time>2011-02-07T13:10:17Z</time>
</trkpt>
<trkpt lat="43.09612001" lon="-2.89082000">
<ele>359.664</ele>
<time>2011-02-07T13:09:49Z</time>
</trkpt>
<trkpt lat="43.09619000" lon="-2.89186003">
<ele>345.735</ele>
<time>2011-02-07T13:09:23Z</time>
</trkpt>
<trkpt lat="43.09615002" lon="-2.89243000">
<ele>339.974</ele>
<time>2011-02-07T13:09:03Z</time>
</trkpt>
<trkpt lat="43.09624004" lon="-2.89269000">
<ele>331.318</ele>
<time>2011-02-07T13:08:55Z</time>
</trkpt>
<trkpt lat="43.09642998" lon="-2.89394000">
<ele>307.757</ele>
<time>2011-02-07T13:08:44Z</time>
</trkpt>
<trkpt lat="43.09655998" lon="-2.89446998">
<ele>298.613</ele>
<time>2011-02-07T13:08:39Z</time>
</trkpt>
<trkpt lat="43.09744000" lon="-2.89596003">
<ele>278.922</ele>
<time>2011-02-07T13:08:24Z</time>
</trkpt>
<trkpt lat="43.09851003" lon="-2.89750004">
<ele>252.496</ele>
<time>2011-02-07T13:08:08Z</time>
</trkpt>
<trkpt lat="43.09871002" lon="-2.89807001">
<ele>247.193</ele>
<time>2011-02-07T13:08:03Z</time>
</trkpt>
<trkpt lat="43.09877004" lon="-2.89895003">
<ele>236.129</ele>
<time>2011-02-07T13:07:55Z</time>
</trkpt>
<trkpt lat="43.09901001" lon="-2.89952000">
<ele>228.448</ele>
<time>2011-02-07T13:07:49Z</time>
</trkpt>
<trkpt lat="43.09946003" lon="-2.90010002">
<ele>223.175</ele>
<time>2011-02-07T13:07:41Z</time>
</trkpt>
<trkpt lat="43.09954000" lon="-2.90098004">
<ele>219.304</ele>
<time>2011-02-07T13:07:32Z</time>
</trkpt>
<trkpt lat="43.09940999" lon="-2.90145999">
<ele>218.359</ele>
<time>2011-02-07T13:07:27Z</time>
</trkpt>
<trkpt lat="43.09960001" lon="-2.90277997">
<ele>208.758</ele>
<time>2011-02-07T13:07:14Z</time>
</trkpt>
<trkpt lat="43.09993998" lon="-2.90329001">
<ele>199.614</ele>
<time>2011-02-07T13:07:07Z</time>
</trkpt>
<trkpt lat="43.10023000" lon="-2.90342001">
<ele>194.798</ele>
<time>2011-02-07T13:07:03Z</time>
</trkpt>
<trkpt lat="43.10091002" lon="-2.90362998">
<ele>185.196</ele>
<time>2011-02-07T13:06:51Z</time>
</trkpt>
<trkpt lat="43.10133004" lon="-2.90359000">
<ele>182.789</ele>
<time>2011-02-07T12:11:28Z</time>
</trkpt>
<trkpt lat="43.10183999" lon="-2.90377004">
<ele>178.460</ele>
<time>2011-02-07T12:11:20Z</time>
</trkpt>
<trkpt lat="43.10202003" lon="-2.90405997">
<ele>177.028</ele>
<time>2011-02-07T12:11:15Z</time>
</trkpt>
<trkpt lat="43.10200000" lon="-2.90458996">
<ele>173.645</ele>
<time>2011-02-07T12:11:09Z</time>
</trkpt>
<trkpt lat="43.10253996" lon="-2.90493001">
<ele>173.645</ele>
<time>2011-02-07T12:10:57Z</time>
</trkpt>
<trkpt lat="43.10343004" lon="-2.90579997">
<ele>166.451</ele>
<time>2011-02-07T12:10:47Z</time>
</trkpt>
<trkpt lat="43.10380999" lon="-2.90598999">
<ele>164.988</ele>
<time>2011-02-07T12:10:43Z</time>
</trkpt>
<trkpt lat="43.10498999" lon="-2.90588002">
<ele>164.043</ele>
<time>2011-02-07T12:10:32Z</time>
</trkpt>
<trkpt lat="43.10512000" lon="-2.90638997">
<ele>160.203</ele>
<time>2011-02-07T12:10:25Z</time>
</trkpt>
<trkpt lat="43.10508002" lon="-2.90647002">
<ele>159.715</ele>
<time>2011-02-07T12:10:24Z</time>
</trkpt>
<trkpt lat="43.10541001" lon="-2.90670999">
<ele>163.556</ele>
<time>2011-02-07T12:10:16Z</time>
</trkpt>
<trkpt lat="43.10563004" lon="-2.90674000">
<ele>162.611</ele>
<time>2011-02-07T12:10:11Z</time>
</trkpt>
<trkpt lat="43.10584000" lon="-2.90710000">
<ele>162.123</ele>
<time>2011-02-07T12:10:07Z</time>
</trkpt>
<trkpt lat="43.10640000" lon="-2.90907998">
<ele>164.043</ele>
<time>2011-02-07T12:09:54Z</time>
</trkpt>
<trkpt lat="43.10676000" lon="-2.91018999">
<ele>167.884</ele>
<time>2011-02-07T12:09:45Z</time>
</trkpt>
<trkpt lat="43.10692001" lon="-2.91110002">
<ele>167.884</ele>
<time>2011-02-07T12:07:55Z</time>
</trkpt>
</trkseg>
</trk>
<extensions>
</extensions>
</gpx>
